[[{"header":{"parameterUnit":"m.s-1","parameterCategory":1,"la1":30.6,"la2":28.766,"lo1":-90.7593,"lo2":-88.6598,"dy":0.0162,"dx":0.0183,"nx":116,"ny":114,"refTime":"2023-10-02T06:00:00:Z","depth":0,"parameterNumber":2,"parameterNumberName":"U-component_of_WINDS"},"data":[0.0,0.0,0.0,0.0,0.0,0.0,0.0,0.0,0.0,0.0,0.0,0.0,0.0,0.0,0.0,0.0,0.0,0.0,0.0,0.0,0.0,0.0,0.0,0.0,0.0,0.0,0.0,0.0,0.0,0.0,0.0,0.0,0.0,0.0,0.0,0.0,0.0,0.0,0.0,0.0,0.0,0.0,0.0,0.0,0.0,0.0,0.0,0.0,0.0,0.0,0.0,0.0,0.0,0.0,0.0,0.0,0.0,0.0,0.0,0.0,0.0,0.0,0.0,0.0,0.0,0.0,0.0,0.0,0.0,0.0,0.0,0.0,0.0,0.0,0.0,0.0,0.0,0.0,0.0,0.0,0.0,0.0,0.0,0.0,0.0,0.0,0.0,0.0,0.0,0.0,0.0,0.0,0.0,0.0,0.0,0.0,0.0,0.0,0.0,0.0,0.0,0.0,0.0,0.0,0.0,0.0,0.0,0.0,0.0,0.0,0.0,0.0,0.0,0.0,0.0,0.0,0.0,0.0,0.0,0.0,0.0,0.0,0.0,0.0,0.0,0.0,0.0,0.0,0.0,0.0,0.0,0.0,0.0,0.0,0.0,0.0,0.0,0.0,0.0,0.0,0.0,0.0,0.0,0.0,0.0,0.0,0.0,0.0,0.0,0.0,0.0,0.0,0.0,0.0,0.0,0.0,0.0,0.0,0.0,0.0,0.0,0.0,0.0,0.0,0.0,0.0,0.0,0.0,0.0,0.0,0.0,0.0,0.0,0.0,0.0,0.0,0.0,0.0,0.0,0.0,0.0,0.0,0.0,0.0,0.0,0.0,0.0,0.0,0.0,0.0,0.0,0.0,0.0,0.0,0.0,0.0,0.0,0.0,0.0,0.0,0.0,0.0,0.0,0.0,0.0,0.0,0.0,0.0,0.0,0.0,0.0,0.0,0.0,0.0,0.0,0.0,0.0,0.0,0.0,0.0,0.0,0.0,0.0,0.0,0.0,0.0,0.0,0.0,0.0,0.0,0.0,0.0,0.0,0.0,0.0,0.0,0.0,0.0,0.0,0.0,0.0,0.0,0.0,0.0,0.0,0.0,0.0,0.0,0.0,0.0,0.0,0.0,0.0,0.0,0.0,0.0,0.0,0.0,0.0,0.0,0.0,0.0,0.0,0.0,0.0,0.0,0.0,0.0,0.0,0.0,0.0,0.0,0.0,0.0,0.0,0.0,0.0,0.0,0.0,0.0,0.0,0.0,0.0,0.0,0.0,0.0,0.0,0.0,0.0,0.0,0.0,0.0,0.0,0.0,0.0,0.0,0.0,0.0,0.0,0.0,0.0,0.0,0.0,0.0,0.0,0.0,0.0,0.0,0.0,0.0,0.0,0.0,0.0,0.0,0.0,0.0,0.0,0.0,0.0,0.0,0.0,0.0,0.0,0.0,0.0,0.0,0.0,0.0,0.0,0.0,0.0,0.0,0.0,0.0,0.0,0.0,0.0,0.0,0.0,0.0,0.0,0.0,0.0,0.0,0.0,0.0,0.0,0.0,0.0,0.0,0.0,0.0,0.0,0.0,0.0,0.0,0.0,0.0,0.0,0.0,0.0,0.0,0.0,0.0,0.0,0.0,0.0,0.0,0.0,0.0,0.0,0.0,0.0,0.0,0.0,0.0,0.0,0.0,0.0,0.0,0.0,0.0,0.0,0.0,0.0,0.0,0.0,0.0,0.0,0.0,0.0,0.0,0.0,0.0,0.0,0.0,0.0,0.0,0.0,0.0,0.0,0.0,0.0,0.0,0.0,0.0,0.0,0.0,0.0,0.0,0.0,0.0,0.0,0.0,0.0,0.0,0.0,0.0,0.0,0.0,0.0,0.0,0.0,0.0,0.0,0.0,0.0,0.0,0.0,0.0,0.0,0.0,0.0,0.0,0.0,0.0,0.0,0.0,0.0,0.0,0.0,0.0,0.0,0.0,0.0,0.0,0.0,0.0,0.0,0.0,0.0,0.0,0.0,0.0,0.0,0.0,0.0,0.0,0.0,0.0,0.0,0.0,0.0,0.0,0.0,0.0,0.0,0.0,0.0,0.0,0.0,0.0,0.0,0.0,0.0,0.0,0.0,0.0,0.0,0.0,0.0,0.0,0.0,0.0,0.0,0.0,0.0,0.0,0.0,0.0,0.0,0.0,0.0,0.0,0.0,0.0,0.0,0.0,0.0,0.0,0.0,0.0,0.0,0.0,0.0,0.0,0.0,0.0,0.0,0.0,0.0,0.0,0.0,0.0,0.0,0.0,0.0,0.0,0.0,0.0,0.0,0.0,0.0,0.0,0.0,0.0,0.0,0.0,0.0,0.0,0.0,0.0,0.0,0.0,0.0,0.0,0.0,0.0,0.0,0.0,0.0,0.0,0.0,0.0,0.0,0.0,0.0,0.0,0.0,0.0,0.0,0.0,0.0,0.0,0.0,0.0,0.0,0.0,0.0,0.0,0.0,0.0,0.0,0.0,0.0,0.0,0.0,0.0,0.0,0.0,0.0,0.0,0.0,0.0,0.0,0.0,0.0,0.0,0.0,0.0,0.0,0.0,0.0,0.0,0.0,0.0,0.0,0.0,0.0,0.0,0.0,0.0,0.0,0.0,0.0,0.0,0.0,0.0,0.0,0.0,0.0,0.0,0.0,0.0,0.0,0.0,0.0,0.0,0.0,0.0,0.0,0.0,0.0,0.0,0.0,0.0,0.0,0.0,0.0,0.0,0.0,0.0,0.0,0.0,0.0,0.0,0.0,0.0,0.0,0.0,0.0,0.0,0.0,0.0,0.0,0.0,0.0,0.0,0.0,0.0,0.0,0.0,0.0,0.0,0.0,0.0,0.0,0.0,0.0,0.0,0.0,0.0,0.0,0.0,0.0,0.0,0.0,0.0,0.0,0.0,0.0,0.0,0.0,0.0,0.0,0.0,0.0,0.0,0.0,0.0,0.0,0.0,0.0,0.0,0.0,0.0,0.0,0.0,0.0,0.0,0.0,0.0,0.0,0.0,0.0,0.0,0.0,0.0,0.0,0.0,0.0,0.0,0.0,0.0,0.0,0.0,0.0,0.0,0.0,0.0,0.0,0.0,0.0,0.0,0.0,0.0,0.0,0.0,0.0,0.0,0.0,0.0,0.0,0.0,0.0,0.0,0.0,0.0,0.0,0.0,0.0,0.0,0.0,0.0,0.0,0.0,0.0,0.0,0.0,0.0,0.0,0.0,0.0,0.0,0.0,0.0,0.0,0.0,0.0,0.0,0.0,0.0,0.0,0.0,0.0,0.0,0.0,0.0,0.0,0.0,0.0,0.0,0.0,0.0,0.0,0.0,0.0,0.0,0.0,0.0,0.0,0.0,0.0,0.0,0.0,0.0,0.0,0.0,0.0,0.0,0.0,0.0,0.0,0.0,0.0,0.0,0.0,0.0,0.0,0.0,0.0,0.0,0.0,0.0,0.0,0.0,0.0,0.0,0.0,0.0,0.0,0.0,0.0,0.0,0.0,0.0,0.0,0.0,0.0,0.0,0.0,0.0,0.0,0.0,0.0,0.0,0.0,0.0,0.0,0.0,0.0,0.0,0.0,0.0,0.0,0.0,0.0,0.0,0.0,0.0,0.0,0.0,0.0,0.0,0.0,0.0,0.0,0.0,0.0,0.0,0.0,0.0,0.0,0.0,0.0,0.0,0.0,0.0,0.0,0.0,0.0,0.0,0.0,0.0,0.0,0.0,0.0,0.0,0.0,0.0,0.0,0.0,0.0,0.0,0.0,0.0,0.0,0.0,0.0,0.0,0.0,0.0,0.0,0.0,0.0,0.0,0.0,0.0,0.0,0.0,0.0,0.0,0.0,0.0,0.0,0.0,0.0,0.0,0.0,0.0,0.0,0.0,0.0,0.0,0.0,0.0,0.0,0.0,0.0,0.0,0.0,0.0,0.0,0.0,0.0,0.0,0.0,0.0,0.0,0.0,0.0,0.0,0.0,0.0,0.0,0.0,0.0,0.0,0.0,0.0,0.0,0.0,0.0,0.0,0.0,0.0,0.0,0.0,0.0,0.0,0.0,0.0,0.0,0.0,0.0,0.0,0.0,0.0,0.0,0.0,0.0,0.0,0.0,0.0,0.0,0.0,0.0,0.0,0.0,0.0,0.0,0.0,0.0,0.0,0.0,0.0,0.0,0.0,0.0,0.0,0.0,0.0,0.0,0.0,0.0,0.0,0.0,0.0,0.0,0.0,0.0,0.0,0.0,0.0,0.0,0.0,0.0,0.0,0.0,0.0,0.0,0.0,0.0,0.0,0.0,0.0,0.0,0.0,0.0,0.0,0.0,0.0,0.0,0.0,0.0,0.0,0.0,0.0,0.0,0.0,0.0,0.0,0.0,0.0,0.0,0.0,0.0,0.0,0.0,0.0,0.0,0.0,0.0,0.0,0.0,0.0,0.0,0.0,0.0,0.0,0.0,0.0,0.0,0.0,0.0,0.0,0.0,0.0,0.0,0.0,0.0,0.0,0.0,0.0,0.0,0.0,0.0,0.0,0.0,0.0,0.0,0.0,0.0,0.0,0.0,0.0,0.0,0.0,0.0,0.0,0.0,0.0,0.0,0.0,0.0,0.0,0.0,0.0,0.0,0.0,0.0,0.0,0.0,0.0,0.0,0.0,0.0,0.0,0.0,0.0,0.0,0.0,0.0,0.0,0.0,0.0,0.0,0.0,0.0,0.0,0.0,0.0,0.0,0.0,0.0,0.0,0.0,0.0,0.0,0.0,0.0,0.0,0.0,0.0,0.0,0.0,0.0,0.0,0.0,0.0,0.0,0.0,0.0,0.0,0.0,0.0,0.0,0.0,0.0,0.0,0.0,0.0,0.0,0.0,0.0,0.0,0.0,0.0,0.0,0.0,0.0,0.0,0.0,0.0,0.0,0.0,0.0,0.0,0.0,0.0,0.0,0.0,0.0,0.0,0.0,0.0,0.0,0.0,0.0,0.0,0.0,0.0,0.0,0.0,0.0,0.0,0.0,0.0,0.0,0.0,0.0,0.0,0.0,0.0,0.0,0.0,0.0,0.0,0.0,0.0,0.0,0.0,0.0,0.0,0.0,0.0,0.0,0.0,0.0,0.0,0.0,0.0,0.0,0.0,0.0,0.0,0.0,0.0,0.0,0.0,0.0,0.0,0.0,0.0,0.0,0.0,0.0,0.0,0.0,0.0,0.0,0.0,0.0,0.0,0.0,0.0,0.0,0.0,0.0,0.0,0.0,0.0,0.0,0.0,0.0,0.0,0.0,0.0,0.0,0.0,0.0,0.0,0.0,0.0,0.0,0.0,0.0,0.0,0.0,0.0,0.0,0.0,0.0,0.0,0.0,0.0,0.0,0.0,0.0,0.0,0.0,0.0,0.0,0.0,0.0,0.0,0.0,0.0,0.0,0.0,0.0,0.0,0.0,0.0,0.0,0.0,0.0,0.0,0.0,0.0,0.0,0.0,0.0,0.0,0.0,0.0,0.0,0.0,0.0,0.0,0.0,0.0,0.0,0.0,0.0,0.0,0.0,0.0,0.0,0.0,0.0,0.0,0.0,0.0,0.0,0.0,0.0,0.0,0.0,0.0,0.0,0.0,0.0,0.0,0.0,0.0,0.0,0.0,0.0,0.0,0.0,0.0,0.0,0.0,0.0,0.0,0.0,0.0,0.0,0.0,0.0,0.0,0.0,0.0,0.0,0.0,0.0,0.0,0.0,0.0,0.0,0.0,0.0,0.0,0.0,0.0,0.0,0.0,0.0,0.0,0.0,0.0,0.0,0.0,0.0,0.0,0.0,0.0,0.0,0.0,0.0,0.0,0.0,0.0,0.0,0.0,0.0,0.0,0.0,0.0,0.0,0.0,0.0,0.0,0.0,0.0,0.0,0.0,0.0,0.0,0.0,0.0,0.0,0.0,0.0,0.0,0.0,0.0,0.0,0.0,0.0,0.0,0.0,0.0,0.0,0.0,0.0,0.0,0.0,0.0,0.0,0.0,0.0,0.0,0.0,0.0,0.0,0.0,0.0,0.0,0.0,0.0,0.0,0.0,0.0,0.0,0.0,0.0,0.0,0.0,4.0765,0.0,0.0,0.0,0.0,0.0,0.0,0.0,0.0,0.0,0.0,0.0,0.0,0.0,0.0,0.0,0.0,0.0,0.0,0.0,0.0,0.0,0.0,0.0,0.0,0.0,0.0,0.0,0.0,0.0,0.0,0.0,0.0,0.0,0.0,0.0,0.0,0.0,0.0,5.1241,5.1183,5.1106,5.0991,5.0933,5.0875,5.0779,0.0,0.0,0.0,0.0,0.0,0.0,0.0,0.0,0.0,0.0,0.0,0.0,0.0,0.0,0.0,0.0,0.0,0.0,0.0,0.0,0.0,0.0,0.0,0.0,0.0,0.0,0.0,0.0,0.0,0.0,0.0,0.0,0.0,0.0,0.0,0.0,0.0,0.0,0.0,0.0,0.0,0.0,0.0,0.0,0.0,0.0,0.0,0.0,0.0,0.0,0.0,0.0,0.0,0.0,0.0,0.0,0.0,0.0,0.0,0.0,0.0,0.0,0.0,0.0,0.0,0.0,0.0,0.0,0.0,0.0,0.0,4.0459,0.0,0.0,0.0,0.0,0.0,0.0,0.0,0.0,0.0,0.0,0.0,0.0,0.0,0.0,0.0,0.0,0.0,0.0,0.0,0.0,0.0,0.0,0.0,5.1406,5.1406,5.1406,5.1406,5.1406,0.0,0.0,0.0,0.0,0.0,0.0,5.1406,5.1289,5.1269,5.1373,5.1199,5.1141,5.1161,5.1141,5.1059,5.0933,5.0779,0.0,0.0,0.0,0.0,0.0,0.0,0.0,0.0,0.0,0.0,0.0,0.0,0.0,0.0,0.0,0.0,0.0,0.0,0.0,0.0,0.0,0.0,0.0,0.0,0.0,0.0,0.0,0.0,0.0,0.0,0.0,0.0,0.0,0.0,0.0,0.0,0.0,0.0,0.0,0.0,0.0,0.0,0.0,0.0,0.0,0.0,0.0,0.0,0.0,0.0,0.0,0.0,0.0,0.0,0.0,0.0,0.0,0.0,0.0,0.0,0.0,0.0,0.0,4.15,4.1067,4.1026,4.0612,4.0377,4.0425,4.0764,4.0849,4.0747,0.0,0.0,0.0,0.0,0.0,0.0,0.0,0.0,0.0,0.0,0.0,0.0,0.0,0.0,0.0,0.0,0.0,0.0,0.0,0.0,0.0,0.0,5.1406,5.1406,5.1406,5.1406,5.1406,5.1406,0.0,0.0,0.0,0.0,0.0,5.1406,5.1387,5.1327,5.1238,5.1199,5.1257,5.1355,5.1238,5.1159,5.1068,5.0933,5.0818,5.0702,0.0,0.0,0.0,0.0,0.0,0.0,0.0,0.0,0.0,0.0,0.0,0.0,0.0,0.0,0.0,0.0,0.0,0.0,0.0,0.0,0.0,0.0,0.0,0.0,0.0,0.0,0.0,0.0,0.0,0.0,0.0,0.0,0.0,0.0,0.0,0.0,0.0,0.0,0.0,0.0,0.0,4.3717,4.3716,0.0,0.0,0.0,0.0,0.0,0.0,0.0,0.0,0.0,0.0,0.0,0.0,0.0,4.3023,4.2024,4.2483,4.2155,4.115,4.1502,4.1668,4.1687,4.1583,4.1576,4.1528,4.1086,0.0,4.0206,4.0155,0.0,0.0,0.0,0.0,0.0,0.0,0.0,0.0,0.0,0.0,0.0,0.0,0.0,0.0,0.0,0.0,0.0,0.0,0.0,0.0,0.0,5.1406,5.1406,5.1406,5.1406,5.1406,5.1406,5.1406,0.0,0.0,0.0,5.1406,5.1406,5.1406,5.1367,5.1308,5.1308,5.1348,5.1406,5.1348,5.1232,5.1111,5.1048,5.0914,5.0702,5.0702,0.0,0.0,0.0,0.0,0.0,0.0,0.0,0.0,0.0,0.0,0.0,0.0,0.0,0.0,0.0,0.0,0.0,0.0,0.0,0.0,0.0,0.0,0.0,0.0,0.0,0.0,0.0,0.0,0.0,0.0,0.0,0.0,0.0,0.0,0.0,0.0,0.0,0.0,0.0,4.3629,4.3577,4.375,4.3734,4.366,0.0,0.0,0.0,0.0,0.0,0.0,0.0,0.0,0.0,4.3497,4.3497,4.3243,4.2768,4.2701,4.2431,4.1928,4.148,4.1288,4.1262,4.0968,4.0832,4.0832,4.0578,4.0341,4.007,4.007,3.9868,3.948,0.0,0.0,0.0,0.0,3.7298,3.7348,0.0,0.0,0.0,0.0,0.0,0.0,0.0,0.0,0.0,0.0,0.0,0.0,5.1406,5.1406,5.1406,5.1406,5.1406,5.1406,5.1406,5.1406,5.1406,5.1406,5.1406,5.1406,5.1406,5.1406,5.1406,5.1406,5.1406,5.1406,5.1406,5.1406,5.1308,5.1113,5.1101,5.0952,5.0702,5.0702,5.0702,5.0702,0.0,0.0,0.0,0.0,0.0,0.0,0.0,0.0,0.0,0.0,0.0,0.0,0.0,0.0,0.0,0.0,0.0,0.0,0.0,0.0,0.0,0.0,0.0,0.0,0.0,0.0,0.0,0.0,0.0,0.0,0.0,0.0,0.0,0.0,0.0,0.0,0.0,4.366,4.3605,4.3826,4.366,4.3497,0.0,0.0,0.0,0.0,0.0,0.0,4.3497,4.3497,4.3497,4.3497,4.3369,4.3206,4.3078,4.253,4.2181,4.2038,4.1103,4.0679,4.0662,4.0256,4.007,4.007,4.007,4.007,4.007,4.007,4.007,4.002,3.9211,3.8892,3.8837,3.829,3.8101,3.8116,0.0,0.0,0.0,0.0,0.0,0.0,0.0,0.0,0.0,0.0,0.0,5.1406,5.1406,5.1406,5.1406,5.1406,5.1406,5.1406,5.1406,5.1406,5.1406,5.1406,5.1406,5.1406,5.1406,5.1406,5.1406,5.1406,5.1406,5.1406,5.1406,5.1406,5.1328,5.1191,5.112,5.0952,5.0702,5.0702,5.0702,5.0702,5.0702,0.0,0.0,0.0,0.0,0.0,0.0,0.0,0.0,0.0,0.0,0.0,0.0,0.0,0.0,0.0,0.0,0.0,0.0,0.0,0.0,0.0,0.0,0.0,0.0,0.0,0.0,0.0,0.0,0.0,0.0,0.0,0.0,0.0,0.0,0.0,0.0,0.0,0.0,4.3516,4.3497,0.0,0.0,0.0,0.0,4.3497,4.3497,4.3497,4.3497,4.3497,4.3497,4.3497,4.3023,4.2477,4.1896,4.1285,4.074,4.0222,4.0189,4.0155,4.0155,4.0087,4.007,4.007,4.007,4.007,4.007,4.007,4.007,4.002,3.9211,3.8891,3.8873,3.8856,3.8824,3.8925,0.0,0.0,0.0,0.0,0.0,0.0,0.0,0.0,5.1406,5.1406,5.1406,5.1406,5.1406,5.1406,5.1406,5.1406,5.1406,5.1406,5.1406,5.1406,5.1406,5.1406,5.1406,5.1406,5.1406,5.1406,5.1406,5.1406,5.1406,5.1406,5.1406,5.1406,5.1055,5.0429,5.0311,4.9856,4.9221,5.026,5.0375,4.9856,4.9856,4.9548,0.0,0.0,0.0,0.0,0.0,0.0,0.0,0.0,0.0,0.0,0.0,0.0,0.0,0.0,0.0,0.0,0.0,0.0,0.0,0.0,0.0,0.0,0.0,0.0,0.0,0.0,0.0,0.0,0.0,0.0,0.0,0.0,0.0,0.0,0.0,0.0,0.0,4.3497,4.3497,0.0,4.3497,4.3497,4.3497,4.3497,4.3497,4.3497,4.3497,4.3497,4.3351,4.3023,4.2805,4.239,4.1788,4.1181,4.0804,4.0612,4.0256,4.007,4.007,4.007,4.007,4.007,4.007,4.007,4.007,4.007,4.007,4.0054,3.9783,3.9649,3.9649,3.9649,3.9649,3.9581,0.0,0.0,0.0,0.0,0.0,0.0,0.0,0.0,5.1406,5.1406,5.1406,5.1406,5.1406,5.1406,5.1406,5.1406,5.1406,5.1406,5.1406,5.1406,5.1406,5.1406,5.1406,5.1406,5.1406,5.1406,5.1269,5.0996,5.0996,5.084,5.0566,5.0566,5.0195,4.955,4.9419,4.8972,4.8356,4.9394,4.949,4.8971,4.8971,4.8625,4.8106,0.0,0.0,0.0,0.0,0.0,0.0,0.0,0.0,0.0,0.0,0.0,0.0,0.0,0.0,0.0,0.0,0.0,0.0,0.0,0.0,0.0,0.0,0.0,0.0,0.0,0.0,0.0,0.0,0.0,0.0,0.0,0.0,0.0,0.0,0.0,4.3497,4.3497,4.3497,4.3497,4.3497,4.3497,4.3497,4.3497,4.3497,4.3424,4.3224,4.3224,4.2951,4.2422,4.2208,4.1876,4.1477,4.09,4.0629,4.0629,4.0256,4.007,4.007,4.007,4.007,4.007,4.007,4.007,4.007,4.007,3.9952,3.975,4.0003,4.007,4.007,4.007,3.9952,3.9531,0.0,0.0,0.0,0.0,0.0,0.0,0.0,5.1406,5.1406,5.1406,5.1406,5.1406,5.1406,5.1387,5.1367,5.1367,5.1348,5.1328,5.1328,5.1328,5.1328,5.1328,5.1328,5.1328,5.1328,5.1328,5.0937,5.0156,5.0156,4.9726,4.8906,4.8906,4.8828,4.8652,4.8515,4.8373,4.8234,4.8081,4.8008,4.803,4.8046,4.8043,4.8024,0.0,0.0,0.0,0.0,0.0,0.0,0.0,0.0,0.0,0.0,0.0,0.0,0.0,0.0,0.0,0.0,0.0,0.0,0.0,0.0,0.0,0.0,0.0,0.0,0.0,0.0,0.0,0.0,0.0,0.0,0.0,0.0,0.0,4.3497,4.3497,4.3497,4.3497,4.3497,4.3497,4.3497,4.3497,4.3497,4.3497,4.3479,4.3243,4.275,4.2681,4.2391,4.1792,4.1188,4.0883,4.0866,4.0358,4.0054,4.0054,4.0037,4.002,4.002,4.002,4.002,4.002,4.002,4.002,4.002,4.002,3.9581,3.8975,3.9783,4.0054,4.002,4.0037,3.9548,3.8714,0.0,0.0,0.0,0.0,0.0,0.0,5.1406,5.1406,5.1406,5.1406,5.1406,5.1406,5.1406,5.0879,5.0527,5.0527,4.9941,4.959,4.959,4.959,4.959,4.959,4.959,4.959,4.959,4.959,4.9473,4.9258,4.9258,4.9121,4.8906,4.8906,4.8535,4.789,4.7659,4.7192,4.6544,4.6371,4.6296,4.6337,4.6987,4.6833,4.6294,0.0,0.0,0.0,0.0,0.0,0.0,0.0,0.0,0.0,0.0,0.0,0.0,0.0,0.0,0.0,0.0,0.0,0.0,0.0,0.0,0.0,0.0,0.0,0.0,0.0,0.0,0.0,0.0,0.0,0.0,0.0,0.0,4.3497,4.3497,4.3497,4.3497,4.3497,4.3497,4.3497,4.3497,4.3497,4.3497,4.3497,4.3133,4.286,4.2732,4.2287,4.1789,4.1163,4.1008,4.0696,4.0341,3.9598,3.9228,3.9211,3.8673,3.8439,3.8439,3.8439,3.8439,3.8439,3.8439,3.8439,3.8439,3.8439,3.8288,3.8238,3.9581,3.9413,3.8489,3.9026,3.8384,3.7187,0.0,0.0,0.0,0.0,0.0,0.0,5.0957,5.0898,5.0762,5.0391,5.0351,5.0351,5.0351,4.9941,4.9668,4.9668,4.9199,4.8906,4.8906,4.8906,4.8906,4.8906,4.8906,4.8906,4.8906,4.8906,4.8711,4.8359,4.8359,4.8164,4.7812,4.7812,4.7519,4.6953,4.68,4.6403,4.5853,4.5738,4.5643,4.5624,4.6142,4.6046,4.5586,4.5586,4.5586,4.5586,4.5586,4.5586,4.5586,4.5586,0.0,0.0,0.0,0.0,0.0,0.0,0.0,0.0,0.0,0.0,0.0,0.0,0.0,0.0,0.0,0.0,0.0,0.0,0.0,0.0,0.0,0.0,0.0,0.0,4.3151,4.3078,4.2823,4.3023,4.3151,4.3151,4.2933,4.2787,4.2787,4.2787,4.2787,4.2787,4.2514,4.2196,4.1943,4.1608,4.1188,4.0595,4.0239,3.9935,3.9598,3.8824,3.8444,3.8424,3.802,3.7818,3.7818,3.7818,3.7818,0.0,3.7818,3.7818,3.7818,3.7818,3.7576,0.0,0.0,0.0,0.0,0.0,3.738,3.6591,0.0,0.0,0.0,0.0,0.0,0.0,5.0312,5.0117,4.9785,4.9004,4.8906,4.8906,4.8906,4.8808,4.875,4.875,4.8652,4.8613,4.8613,4.8613,4.8613,4.8613,4.8613,4.8613,4.8613,4.8613,4.8223,4.7441,4.7441,4.7051,4.6308,4.6308,4.623,4.6113,4.6113,4.6,4.5812,4.5791,4.5719,4.5586,4.5586,4.5586,4.5586,4.5586,4.5586,4.5586,4.5586,4.5586,4.5586,4.5586,0.0,0.0,0.0,0.0,0.0,0.0,0.0,0.0,0.0,0.0,0.0,0.0,0.0,0.0,0.0,0.0,0.0,0.0,0.0,0.0,0.0,0.0,0.0,0.0,4.2648,4.2414,4.1887,4.2196,4.2505,4.2578,4.2141,4.1814,4.1814,4.1814,4.1814,4.1814,4.1724,4.1444,4.0915,0.0,0.0,0.0,0.0,3.879,3.8766,3.8027,3.7649,3.7652,3.7606,3.751,3.751,3.751,3.751,3.751,3.751,3.751,3.751,3.751,3.7121,3.6526,3.7277,3.7607,3.7597,3.677,3.6481,3.6356,0.0,0.0,0.0,0.0,0.0,0.0,5.0215,4.9609,4.9082,4.8926,4.8906,4.8906,4.8906,4.8262,4.7851,4.7851,4.7207,4.6797,4.6797,4.6797,4.6797,4.6797,4.6797,4.6797,4.6797,4.6797,4.6719,4.6543,4.6543,4.6465,4.6308,4.6308,4.6289,4.6269,4.6152,4.6012,4.5882,4.5822,4.5719,4.5586,4.5586,4.5586,4.5586,4.5586,4.5586,4.5586,4.5586,4.5586,4.5586,4.5586,4.5586,4.5586,4.5586,4.5547,0.0,0.0,0.0,0.0,0.0,0.0,0.0,0.0,0.0,0.0,0.0,0.0,0.0,0.0,0.0,0.0,0.0,0.0,0.0,4.2732,4.227,4.1921,4.1834,4.1479,4.1427,4.1921,4.1868,4.1816,4.1816,4.1816,4.1816,4.1816,4.1375,4.1003,4.0916,3.9851,3.9228,3.916,3.8405,3.803,3.7982,3.7266,3.6844,3.6808,0.0,0.0,3.5954,3.5954,3.5954,3.5954,3.5954,3.5954,3.5954,3.5954,3.5844,3.5704,3.5859,3.631,3.6754,3.5963,3.5689,3.5689,0.0,0.0,0.0,0.0,0.0,0.0,4.9023,4.8535,4.8086,4.7656,4.7598,4.7598,4.7598,4.7207,4.6953,4.6953,4.6543,4.6308,4.6308,4.6308,4.6308,4.6308,4.6308,4.6308,4.6308,4.6308,4.6308,4.6308,4.6308,4.6308,4.6308,4.6308,4.6308,4.6308,4.623,4.6133,4.5994,4.5893,4.5796,4.5699,4.5624,4.5586,4.5586,4.5586,4.5586,4.5586,4.5586,4.5586,4.5586,4.5586,4.5586,4.5586,4.5586,4.5586,4.5566,0.0,0.0,0.0,0.0,0.0,0.0,0.0,0.0,0.0,0.0,0.0,0.0,0.0,0.0,4.3424,0.0,0.0,4.2487,4.189,4.1539,4.1256,4.1001,4.0679,4.0696,4.1273,4.1086,4.0967,4.0967,4.0967,4.0967,4.0967,4.0273,3.9885,3.9885,3.8891,3.8375,3.8357,3.7604,3.7194,3.7231,3.5954,3.532,3.532,3.4916,3.4747,3.4762,3.524,3.5504,3.5504,3.5504,3.5504,3.5504,3.5504,3.5504,3.5504,3.5504,3.5704,3.5999,3.5659,3.5504,3.5504,0.0,0.0,0.0,0.0,0.0,0.0,0.0,4.7461,4.7109,4.6387,4.6308,4.6308,4.6308,4.6308,4.6308,4.6308,4.6308,4.6308,4.6308,4.6308,4.6308,4.6308,4.6308,4.6308,4.6308,4.6308,4.6308,4.6308,4.6308,4.6308,4.6308,4.6308,4.6308,4.6308,4.6308,4.623,4.6093,4.5978,4.5885,4.5815,4.5699,4.5624,4.5624,4.5605,4.5586,4.5586,4.5586,4.5586,4.5586,4.5586,4.5586,4.5586,4.5586,4.5586,4.5586,4.5509,4.5124,0.0,0.0,0.0,0.0,0.0,0.0,0.0,0.0,0.0,4.3497,4.3497,4.3424,4.3206,4.2787,4.2523,4.2047,4.1094,4.0815,4.0595,4.0172,4.007,4.0206,4.0459,4.0256,4.007,4.007,3.9969,3.9851,3.9851,3.916,3.8688,3.8669,3.7962,3.7568,3.7544,3.6622,3.611,3.611,3.4549,3.3762,3.3725,3.3725,3.3738,3.3797,3.4579,3.4916,3.4916,3.4916,3.5041,3.521,3.521,3.5335,3.5504,3.5504,3.5365,3.5225,3.5394,3.5504,3.5504,0.0,0.0,0.0,0.0,0.0,0.0,0.0,0.0,4.6406,4.6308,4.6308,4.6308,4.6308,4.6308,4.6308,4.6308,4.6308,4.6308,4.6308,4.6308,4.6308,4.6308,4.6308,4.6308,4.6308,4.6308,4.6308,4.6308,4.6308,4.6308,4.6308,4.6308,4.6308,4.6308,4.6308,4.623,4.6094,4.609,4.601,4.5873,4.5815,4.5776,4.5757,4.5643,4.5586,4.5586,4.5586,4.5586,4.5586,4.5586,4.5586,4.5586,4.5586,4.5586,4.5528,4.524,4.5105,4.4901,4.4255,4.3778,4.3497,4.3497,4.3497,4.3497,0.0,0.0,4.3497,4.3497,4.3114,4.2768,4.2732,4.18,4.1094,4.1017,4.0561,4.0189,4.0087,4.007,3.9851,3.9211,3.9682,4.007,4.007,3.9446,3.9026,3.9026,3.8321,3.791,3.7919,3.7169,3.6761,3.6747,3.5165,3.4286,3.4286,3.326,3.2762,3.2774,3.2774,3.2781,3.2775,3.2847,3.2941,3.2941,3.2941,3.3398,3.4147,3.4147,3.4703,3.5504,3.5504,3.4931,3.4286,3.518,3.5504,3.5504,0.0,0.0,0.0,0.0,0.0,0.0,0.0,0.0,0.0,4.6308,4.6308,4.6308,4.6308,4.6308,4.6308,4.6308,4.6308,4.6308,4.6308,4.6308,4.6308,4.6308,4.6308,4.6308,4.6308,4.6308,4.6308,4.6308,4.6308,4.6308,4.6308,4.6308,4.6308,4.6308,4.6308,4.6269,4.6211,4.6133,4.6075,4.599,4.5853,4.5796,4.5796,4.5643,4.5586,4.5586,4.5586,4.5586,0.0,4.5586,4.5586,4.5586,4.5586,4.5586,4.5528,4.5201,4.4957,4.4646,4.39,4.3624,0.0,0.0,4.3497,4.3497,4.3497,4.3497,4.3406,4.3096,4.286,4.2505,4.1793,4.1242,4.0815,0.0,4.0256,4.007,4.007,3.9682,3.9261,3.8959,3.8809,3.874,3.8739,3.8455,3.8272,3.827,3.7535,3.7091,3.7124,3.5829,3.507,3.507,3.3841,3.3221,3.3218,3.2259,3.1636,3.1293,3.1293,3.1182,3.085,3.142,3.1685,3.1685,3.1685,3.1866,3.2263,3.2773,3.2941,3.2941,3.3398,3.3064,3.2486,3.4009,3.4608,3.4608,0.0,0.0,0.0,0.0,0.0,0.0,0.0,0.0,0.0,0.0,4.6308,4.6308,4.6308,4.6308,4.6308,4.6308,4.6308,4.6308,4.6308,4.6308,4.6308,4.6308,4.6308,4.6308,4.6308,4.6308,4.6308,4.6308,4.6308,4.6308,4.6308,4.6308,4.6308,4.6308,4.6308,4.6308,4.6289,4.6191,4.6152,4.6132,4.5959,4.5868,4.5815,4.5699,4.5624,4.5586,4.5586,4.5586,4.5586,4.5586,4.5586,4.5586,4.5586,4.5528,4.5393,4.5049,4.4657,4.4189,4.366,0.0,0.0,4.3497,4.3497,4.3497,4.3497,4.3387,4.3169,4.2787,4.245,4.1937,4.1077,4.0798,4.0561,4.0172,4.007,4.007,4.007,3.9413,3.8822,3.8602,3.7928,3.7375,3.7219,3.7351,3.7444,3.7487,3.6481,3.5859,3.5859,3.444,3.3616,3.3611,3.2732,3.2003,3.1552,3.0611,2.9907,2.9372,2.9315,2.9264,2.9126,2.9894,3.0186,3.0186,3.0186,3.0325,3.0637,3.124,3.1296,3.1068,3.1645,3.1345,3.0787,3.2193,3.2939,3.3175,0.0,0.0,0.0,0.0,0.0,0.0,0.0,0.0,0.0,0.0,0.0,0.0,0.0,4.6308,4.6308,4.6308,4.6308,4.6308,4.6308,4.6308,4.6308,4.6308,4.6308,4.6308,4.6308,4.6308,4.6308,4.6308,4.6308,4.6308,4.6308,4.6308,4.6308,4.6308,4.6308,4.6308,4.6308,4.6308,4.6289,4.6289,4.6152,4.6013,4.5892,4.5815,4.5719,4.5586,4.5586,4.5586,4.5586,4.5586,4.5586,4.5586,4.5586,4.5374,4.5049,4.4722,4.4096,4.3516,4.3497,0.0,4.3497,4.3497,4.3497,4.3497,4.3497,4.3096,4.2732,4.2713,4.1768,4.0932,4.0933,4.0459,4.0138,4.007,4.007,4.007,4.007,3.9413,3.8623,3.7917,3.7155,3.6375,0.0,3.6224,3.6626,3.6637,3.5056,3.4103,3.4103,3.3202,3.2623,3.2664,3.1694,3.0496,2.9015,2.8094,2.7341,2.6729,2.6719,2.7232,2.8114,2.8196,2.8209,2.8209,2.8209,2.8707,2.9573,2.9602,3.0155,3.0984,3.1002,3.0405,2.9575,2.9602,3.0211,3.107,0.0,0.0,0.0,0.0,0.0,0.0,0.0,0.0,0.0,0.0,0.0,0.0,0.0,0.0,0.0,0.0,4.6308,4.6308,4.6308,4.6308,4.6308,4.6308,4.6308,4.6308,4.6308,4.6308,4.6308,4.6308,4.6308,4.6308,4.6308,4.6308,4.6308,4.6308,4.6308,4.6308,4.6308,4.6308,4.6308,4.6289,4.6152,4.6022,4.5891,4.5829,4.5719,4.5586,0.0,4.5586,4.5586,4.5586,4.5586,4.5547,4.5336,4.5201,4.4978,4.4369,4.3849,4.3497,4.3497,0.0,4.3497,4.3497,4.3497,4.3406,4.3059,4.2823,4.2468,4.1666,4.1198,4.0798,4.0425,4.0222,4.007,4.007,4.007,3.9935,3.9396,3.864,3.7899,3.7118,3.6325,0.0,0.0,0.0,0.0,3.4916,3.4316,3.3725,3.3124,3.2158,3.1312,3.056,2.9384,2.8118,2.6865,2.6291,2.5707,2.5104,2.5397,2.5728,2.6083,2.6759,2.7036,2.7036,2.7036,2.725,2.7528,2.8105,2.8157,2.8051,2.8596,2.8252,2.7503,2.7503,2.7736,2.8247,0.0,0.0,0.0,0.0,0.0,0.0,0.0,0.0,0.0,0.0,0.0,0.0,0.0,0.0,0.0,0.0,0.0,4.6308,4.6308,4.6308,4.6308,4.6308,4.6308,4.6308,4.6308,4.6308,4.6308,4.6308,4.6308,4.6308,4.6308,4.6308,4.6308,4.6308,4.6308,4.6308,4.6308,4.6308,4.6308,4.6289,4.6211,4.6055,4.5894,4.5848,4.5738,0.0,4.5586,4.5586,4.5586,4.5586,4.5586,4.5547,4.5355,4.511,4.4764,4.4031,4.3679,4.3497,4.3497,4.3497,4.3497,4.3497,4.3369,4.3114,4.2787,4.2375,4.1842,4.1077,4.0764,4.0493,4.0172,4.007,4.0003,3.975,3.9649,3.9396,3.8623,3.7859,3.7208,3.6679,3.5969,3.5365,0.0,0.0,0.0,3.4024,3.3354,3.2756,3.2134,3.0997,2.9907,2.8852,2.7702,2.6382,2.4781,2.447,2.4116,2.3455,2.4124,2.446,2.4498,2.5505,2.5965,2.5977,2.6321,2.6533,2.6546,2.7036,2.6998,2.6546,2.7049,2.6929,2.6533,2.6533,2.6533,2.6678,0.0,0.0,0.0,0.0,0.0,0.0,0.0,0.0,0.0,0.0,0.0,0.0,0.0,0.0,0.0,0.0,0.0,0.0,4.6308,4.6308,4.6308,4.6308,4.6308,4.6308,4.6308,4.6308,4.6308,4.6308,4.6308,4.6308,4.6308,4.6308,4.6308,4.6308,4.6308,4.6308,4.6308,4.6308,4.6308,4.6308,4.6308,4.6133,4.5914,4.5906,4.5776,4.5605,4.5586,4.5586,4.5586,4.5586,4.5566,4.5547,4.5547,4.5105,4.4391,4.3716,4.3497,4.3497,4.3497,4.3497,4.3497,4.3497,4.3096,4.2697,4.2647,4.1735,4.0883,4.0849,4.0442,4.007,0.0,0.0,3.9834,3.9026,3.8908,3.8621,3.7851,3.7105,3.6607,0.0,0.0,0.0,0.0,0.0,0.0,3.3857,0.0,3.1139,3.101,2.9639,2.8334,2.7334,2.6691,2.5241,2.2819,2.2787,2.247,2.1927,2.2907,2.3422,2.3468,2.4443,2.4933,2.4953,2.5977,2.6427,2.6427,2.6452,2.6533,2.6533,2.6533,2.6533,2.6533,2.6533,2.6533,2.6533,0.0,0.0,0.0,0.0,0.0,0.0,0.0,0.0,0.0,0.0,0.0,0.0,0.0,0.0,0.0,0.0,0.0,0.0,4.6308,4.6308,4.6308,4.6308,4.6308,4.6308,4.6308,4.6308,4.6308,4.6308,4.6308,4.6308,4.6308,4.6308,4.6308,4.6308,4.6308,4.6308,4.6308,4.6308,4.6308,4.6308,4.6308,4.6191,4.6031,4.5945,4.5834,4.5738,4.5624,4.5586,4.5586,4.5586,4.5278,4.4857,4.4857,4.4354,4.3734,4.3569,4.3497,4.3497,4.3497,4.3497,4.3497,4.3497,4.3096,4.2577,4.2123,4.1461,4.0798,4.0391,4.0206,4.007,0.0,0.0,0.0,3.9026,3.8918,0.0,3.7094,3.6733,0.0,3.5844,0.0,3.4286,3.4009,3.2693,0.0,0.0,3.147,3.0431,2.8509,2.8094,2.6796,2.4566,2.4117,2.316,2.1622,2.1376,2.1083,2.0966,2.1927,2.2349,2.2434,2.3415,2.3863,2.3952,2.4941,2.5387,2.5411,2.6189,2.6533,2.6533,2.6533,2.6533,2.6533,2.6533,2.6533,2.6533,0.0,0.0,0.0,0.0,0.0,0.0,0.0,0.0,0.0,0.0,0.0,0.0,0.0,0.0,0.0,0.0,0.0,0.0,0.0,4.6308,4.6308,4.6308,4.6308,4.6308,4.6308,4.6308,4.6308,4.6308,4.6308,4.6308,4.6308,4.6308,4.6308,4.6308,4.6308,4.6308,4.6308,4.6308,4.6308,0.0,0.0,4.6172,4.5992,4.5925,4.5815,4.5699,4.5624,4.5586,4.5586,0.0,0.0,4.4977,4.4687,4.4314,4.3934,4.3605,0.0,4.3497,4.3497,4.3497,4.3497,4.3497,4.3096,4.2539,4.1947,4.1307,4.0764,4.0206,4.007,0.0,4.007,0.0,0.0,0.0,0.0,0.0,3.6325,3.614,3.5969,0.0,3.4593,0.0,3.3424,3.207,3.0842,0.0,2.9664,2.8991,2.7591,2.664,2.5215,2.3335,2.2723,2.2025,2.0966,2.0751,2.0566,2.0644,2.1171,2.1386,2.1396,2.2372,2.281,2.2889,0.0,2.4342,2.4393,2.4941,2.5176,2.5257,2.5647,2.5847,2.5871,2.6321,2.6533,2.6533,0.0,0.0,0.0,0.0,0.0,0.0,0.0,0.0,0.0,0.0,4.609,0.0,0.0,0.0,0.0,0.0,0.0,0.0,0.0,0.0,4.6308,4.6308,4.6308,4.6308,4.6308,4.6308,4.6308,4.6308,4.6308,4.6308,4.6308,4.6308,4.6308,4.6308,4.6308,4.6308,4.6308,4.6308,4.6308,4.6308,4.6308,4.615,4.5948,0.0,4.5796,4.5624,4.5605,4.5586,4.5586,4.5586,4.5566,4.5419,4.4784,4.4558,4.4373,4.3697,4.3497,4.3497,4.3497,4.3497,4.3497,4.3497,4.3096,4.2577,4.2033,4.1403,4.0781,4.0273,0.0,4.007,4.007,4.0003,3.9463,3.8037,0.0,3.7136,3.5689,3.5504,3.5474,3.5335,3.4425,3.3428,3.2495,3.1526,3.0072,2.813,2.7411,2.707,2.7002,2.5137,2.3664,2.2667,2.2123,2.1396,2.0644,2.0566,2.0566,2.0566,2.0566,2.0566,2.0654,2.1406,2.1818,2.1906,2.3006,0.0,2.3502,2.3618,2.3805,2.3991,2.4711,2.5071,2.5294,2.6189,2.6533,2.6533,0.0,0.0,0.0,0.0,0.0,0.0,0.0,0.0,0.0,0.0,4.6033,4.6056,0.0,0.0,0.0,0.0,0.0,0.0,0.0,0.0,0.0,4.6308,4.6308,4.6308,4.6308,4.6308,4.6308,4.6308,4.6308,4.6308,4.6308,4.6308,4.6308,4.6308,4.6308,4.6308,4.6308,4.6308,4.6308,4.6308,4.6308,4.6273,4.6216,4.5982,0.0,0.0,4.5643,4.5586,4.5586,4.5586,4.5413,4.5127,4.4709,4.438,4.4026,4.3624,4.3497,4.3497,4.3497,4.3497,4.3497,4.3497,4.3096,4.2664,4.2559,4.1684,0.0,0.0,4.0408,4.007,4.007,3.9564,3.8824,3.792,0.0,0.0,0.0,0.0,3.5195,0.0,0.0,0.0,0.0,0.0,0.0,0.0,0.0,2.4681,2.4215,2.3544,2.247,2.1063,2.0878,2.0761,2.0566,2.0566,2.0566,2.0566,2.0566,2.0566,2.0644,2.0761,2.0858,2.0966,2.2699,0.0,2.3547,2.4422,2.5226,2.5896,2.5288,2.5505,2.6296,2.644,2.6533,2.6533,0.0,0.0,0.0,0.0,0.0,0.0,0.0,4.6191,4.6044,4.5916,4.593,4.5892,4.5757,4.5815,4.5843,0.0,0.0,0.0,0.0,0.0,0.0,0.0,4.6308,4.6308,4.6308,4.6308,4.6308,4.6308,0.0,4.6308,4.6308,4.6308,4.6308,4.6308,4.6308,4.6308,4.6308,4.6308,4.6308,4.6308,4.6308,4.6264,4.6182,0.0,0.0,0.0,0.0,4.5586,4.5586,4.5586,4.5374,4.5068,4.4914,4.46,4.4244,4.3879,4.3642,4.3497,4.3497,4.3497,4.3497,4.3497,4.3314,4.3041,4.2768,0.0,0.0,0.0,4.0459,4.007,4.007,0.0,0.0,0.0,0.0,0.0,0.0,0.0,0.0,0.0,0.0,0.0,0.0,0.0,0.0,0.0,0.0,2.3439,2.3179,2.2242,2.1386,2.0644,2.0566,2.0566,2.0566,2.0566,2.0566,2.0566,2.0566,2.0566,2.0566,2.0566,2.0566,2.0664,2.2123,0.0,2.2787,2.3779,2.4517,2.4958,2.5003,2.5281,2.5753,2.6308,2.6533,2.6533,0.0,0.0,0.0,0.0,0.0,0.0,0.0,4.6133,4.6015,4.5893,4.5815,4.5719,4.5605,4.5699,4.5757,0.0,0.0,0.0,0.0,0.0,0.0,0.0,0.0,0.0,0.0,0.0,0.0,0.0,4.6308,0.0,0.0,0.0,0.0,0.0,4.6308,4.6308,4.6308,4.6308,4.6308,0.0,0.0,4.623,0.0,0.0,0.0,0.0,0.0,4.5586,4.5586,4.5586,4.5413,4.5204,4.5206,4.4865,4.4408,4.3999,4.3716,4.3497,4.3497,4.3497,4.3497,4.3497,4.3497,4.3387,4.2951,4.2441,0.0,4.1237,4.0646,4.0239,4.0138,0.0,3.9398,0.0,0.0,0.0,0.0,0.0,0.0,0.0,0.0,0.0,0.0,0.0,0.0,0.0,0.0,0.0,2.2449,2.1278,2.0566,2.0566,2.0566,2.0566,2.0566,2.0566,2.0566,2.0566,2.0771,2.0878,2.0878,2.0878,2.0878,2.0966,2.1916,0.0,0.0,2.3409,2.3921,2.4218,2.4809,2.5152,2.5399,2.6202,2.6533,2.6533,0.0,0.0,0.0,0.0,0.0,0.0,0.0,4.5996,4.5898,4.5835,4.5699,4.5605,4.5586,4.5605,4.5605,0.0,0.0,0.0,0.0,0.0,0.0,0.0,0.0,0.0,0.0,0.0,0.0,0.0,0.0,0.0,0.0,0.0,0.0,0.0,0.0,0.0,4.6308,4.6308,0.0,0.0,0.0,0.0,0.0,0.0,0.0,0.0,0.0,0.0,4.5586,0.0,0.0,4.5554,4.5552,4.4874,4.3993,4.3664,0.0,0.0,4.3497,4.3497,4.3497,4.3497,4.3497,4.3479,4.3442,0.0,4.2466,4.1816,4.1239,4.0662,4.0189,3.948,3.8723,3.7914,3.7184,3.6451,0.0,0.0,0.0,0.0,0.0,0.0,0.0,0.0,0.0,0.0,0.0,0.0,2.0771,2.0664,2.0566,2.0566,2.0566,2.0566,2.0566,2.0566,2.0566,2.0644,2.1484,2.1906,2.1906,2.1906,2.1906,2.1927,2.2907,0.0,0.0,2.4486,2.5367,2.6126,2.5318,2.5529,2.6333,2.6452,2.6533,2.6533,0.0,0.0,0.0,0.0,0.0,0.0,4.6113,4.5994,4.5879,4.5811,4.568,4.5586,4.5586,4.5586,4.5586,4.5586,0.0,0.0,0.0,0.0,0.0,0.0,0.0,0.0,0.0,0.0,0.0,4.6308,0.0,0.0,0.0,0.0,0.0,0.0,0.0,0.0,0.0,4.6308,0.0,0.0,0.0,0.0,0.0,0.0,0.0,0.0,0.0,0.0,0.0,0.0,0.0,0.0,4.5293,4.4874,0.0,0.0,4.3826,4.3497,4.3497,4.3497,4.3497,4.3497,4.3497,4.3497,4.3497,0.0,4.254,4.1908,4.1313,4.0764,4.0206,3.9834,3.9379,3.8606,3.7823,3.7075,0.0,0.0,0.0,0.0,0.0,0.0,0.0,0.0,0.0,0.0,0.0,0.0,2.0566,2.0566,2.0566,2.0566,2.0566,2.0566,2.0566,2.0566,2.0566,2.0644,2.1592,2.2014,2.2031,2.265,2.2936,2.291,2.3606,0.0,0.0,2.4645,2.5131,2.546,2.5033,2.5137,2.5473,2.5473,2.5473,2.5473,0.0,0.0,0.0,0.0,0.0,4.623,4.6074,4.5969,4.5853,4.5757,4.5643,4.5586,4.5586,4.5586,4.5586,4.5586,4.5586,0.0,0.0,0.0,0.0,0.0,0.0,0.0,0.0,0.0,4.6308,4.6308,4.6308,0.0,0.0,0.0,0.0,0.0,0.0,0.0,0.0,0.0,0.0,0.0,0.0,0.0,0.0,0.0,0.0,0.0,0.0,0.0,0.0,0.0,0.0,0.0,4.5259,4.501,4.4729,0.0,4.4136,4.366,4.366,4.3587,4.3497,4.3497,4.3497,4.3497,0.0,0.0,4.2768,4.2205,4.1576,4.1001,4.0442,4.0206,3.9834,3.9026,3.8132,3.7204,3.641,0.0,0.0,0.0,0.0,0.0,0.0,0.0,0.0,0.0,0.0,0.0,0.0,2.0566,2.0566,2.0566,2.0566,2.0566,2.0566,2.0566,2.0566,2.0644,2.1829,2.2414,2.2468,2.3512,2.3966,2.3918,2.4147,0.0,0.0,2.4608,2.4811,2.482,2.482,2.482,2.482,2.482,2.482,2.482,0.0,0.0,0.0,0.0,0.0,0.0,4.5937,4.5911,4.5834,4.5624,4.5586,4.5586,4.5586,4.5586,4.5586,4.5586,4.5586,0.0,0.0,0.0,0.0,0.0,0.0,0.0,0.0,0.0,4.6308,4.6308,4.6308,4.6308,4.6308,4.6308,0.0,0.0,0.0,0.0,0.0,0.0,0.0,0.0,0.0,0.0,0.0,0.0,0.0,0.0,0.0,0.0,0.0,0.0,0.0,0.0,0.0,4.5355,4.5016,4.4681,4.4318,4.3989,4.3989,4.3752,4.3497,4.3497,4.3497,4.3497,0.0,0.0,4.3351,4.2805,4.2218,4.163,4.1001,4.0442,3.9834,3.9026,3.7736,3.6508,3.571,0.0,0.0,0.0,0.0,0.0,0.0,0.0,0.0,0.0,0.0,0.0,0.0,2.0566,2.0566,2.0566,2.0566,2.0566,2.0566,2.0566,2.0566,2.0644,2.2569,2.3475,2.3524,2.451,2.4966,0.0,0.0,0.0,0.0,2.4619,2.4811,2.482,2.482,2.482,2.482,2.482,2.482,2.482,0.0,0.0,0.0,0.0,0.0,0.0,0.0,4.5872,4.5776,4.5605,4.5586,4.5586,4.5586,4.5586,4.5586,4.5586,4.5586,0.0,0.0,0.0,0.0,0.0,0.0,0.0,0.0,0.0,4.6211,4.6308,4.6308,4.6308,4.6308,4.6308,4.6308,4.6308,0.0,0.0,0.0,0.0,0.0,0.0,0.0,0.0,0.0,0.0,0.0,0.0,0.0,0.0,0.0,0.0,0.0,0.0,0.0,0.0,0.0,4.5328,4.4871,4.441,4.4397,4.4118,4.3826,4.3826,4.3679,4.3497,4.3497,4.3497,4.3351,4.2805,4.2539,4.2234,4.1621,4.0629,3.9817,3.9564,3.7552,3.5967,0.0,0.0,0.0,0.0,0.0,0.0,0.0,0.0,0.0,0.0,0.0,0.0,0.0,2.0566,2.0566,2.0566,2.0566,2.0566,2.0566,2.0566,2.0566,2.0644,2.2569,2.3486,2.3536,2.5269,2.5834,0.0,0.0,0.0,0.0,2.3735,2.3664,2.3665,2.3665,2.3665,2.3665,2.3665,2.3665,2.3665,0.0,0.0,0.0,0.0,0.0,0.0,0.0,4.5841,4.5757,4.5605,4.5586,4.5586,4.5586,4.5586,4.5586,4.5586,4.5586,0.0,0.0,0.0,0.0,0.0,0.0,0.0,4.5969,4.6005,4.6094,4.6211,4.6211,4.625,4.6308,4.6308,4.6308,4.6308,4.6308,0.0,0.0,0.0,0.0,0.0,0.0,0.0,4.6289,0.0,0.0,0.0,0.0,0.0,0.0,0.0,0.0,0.0,0.0,0.0,0.0,0.0,4.4607,4.4078,4.4252,4.3774,4.3247,4.3247,4.3096,0.0,0.0,4.286,4.2713,4.2333,4.2006,4.1651,4.1261,4.0358,3.9593,3.9395,3.7463,3.5907,0.0,0.0,0.0,0.0,0.0,0.0,0.0,0.0,0.0,0.0,0.0,0.0,0.0,2.0771,2.0566,2.0566,2.0566,2.0566,2.0566,2.0566,2.0566,2.0644,2.2569,2.3378,2.3293,2.5269,2.5847,0.0,0.0,0.0,0.0,2.3359,2.3078,2.3078,2.3078,2.3078,2.3078,2.3078,2.3078,2.3078,0.0,0.0,0.0,0.0,0.0,0.0,0.0,4.5834,4.5738,4.5605,4.5586,4.5586,4.5586,4.5586,4.5586,4.5586,4.5586,0.0,0.0,0.0,0.0,0.0,0.0,0.0,4.5796,4.5852,4.5953,4.609,4.6093,4.6152,4.6269,4.6289,4.6289,4.6289,4.6308,4.6308,0.0,0.0,0.0,0.0,0.0,0.0,0.0,0.0,0.0,0.0,0.0,0.0,0.0,0.0,0.0,0.0,0.0,0.0,0.0,0.0,0.0,0.0,0.0,4.2864,4.2028,4.2038,4.2026,0.0,0.0,0.0,0.0,4.1586,4.0881,4.0266,4.0266,3.9779,3.9211,3.8694,3.7374,0.0,0.0,0.0,0.0,0.0,0.0,0.0,0.0,0.0,0.0,0.0,0.0,0.0,0.0,2.1181,2.0654,2.0566,2.0654,2.0654,2.0566,2.0566,2.0654,2.0751,2.2569,2.3249,2.288,2.4691,2.5271,0.0,0.0,0.0,0.0,2.3346,2.3078,2.3078,2.3078,2.3078,2.3078,2.3078,2.3078,2.3078,0.0,0.0,0.0,0.0,0.0,0.0,0.0,0.0,0.0,0.0,4.5586,4.5586,4.5586,4.5586,4.5586,0.0,0.0,0.0,0.0,0.0,0.0,0.0,0.0,0.0,4.5796,4.5815,4.586,4.5938,4.5952,4.5957,4.5996,4.6094,4.6152,4.6152,4.625,4.6308,0.0,0.0,0.0,0.0,0.0,0.0,0.0,0.0,0.0,0.0,4.5796,4.5699,0.0,0.0,0.0,0.0,0.0,0.0,0.0,0.0,4.2771,4.212,4.2236,0.0,4.2396,4.2393,4.2181,4.2009,0.0,0.0,0.0,0.0,0.0,0.0,4.0891,3.9937,3.8994,3.8534,3.6898,0.0,0.0,0.0,0.0,0.0,0.0,0.0,0.0,0.0,0.0,0.0,0.0,0.0,0.0,2.171,2.1288,2.0644,2.1278,2.1278,2.0644,2.0566,2.0966,2.17,2.247,2.3249,2.3893,2.4605,2.4694,0.0,0.0,0.0,2.3273,2.3163,2.3078,2.3078,2.3078,2.3078,2.3078,2.3078,2.3078,2.3078,0.0,0.0,0.0,0.0,0.0,0.0,0.0,0.0,0.0,0.0,0.0,4.5586,4.5586,4.5586,0.0,0.0,0.0,0.0,0.0,0.0,0.0,0.0,0.0,4.5624,4.5719,4.5719,4.5757,4.5853,4.5847,4.5866,4.5905,4.6049,4.6094,4.6113,4.623,4.6308,0.0,0.0,0.0,0.0,4.6308,0.0,0.0,0.0,0.0,0.0,4.587,4.5776,0.0,4.5699,4.5393,4.4914,0.0,0.0,0.0,0.0,4.1882,4.1212,4.1212,4.1386,4.1578,4.1578,4.1443,4.1309,4.1309,0.0,0.0,0.0,0.0,0.0,0.0,0.0,3.9124,3.8493,3.7482,0.0,0.0,0.0,0.0,0.0,0.0,0.0,0.0,0.0,0.0,0.0,0.0,0.0,0.0,2.2143,2.1651,2.1231,2.1643,2.1489,2.0644,2.0976,2.1484,2.1927,2.2617,2.314,2.3474,2.4126,2.4111,0.0,0.0,0.0,2.3078,2.3078,2.3078,2.3078,2.3078,2.3078,2.3078,2.3078,2.3078,2.3078,0.0,0.0,0.0,0.0,0.0,0.0,0.0,0.0,0.0,0.0,0.0,0.0,0.0,0.0,0.0,0.0,0.0,0.0,0.0,0.0,0.0,0.0,4.5586,4.5586,4.5586,4.5586,4.5643,4.5776,4.5776,4.5796,4.5853,4.5988,4.6061,4.6113,4.623,4.6308,0.0,0.0,0.0,0.0,4.6308,0.0,0.0,0.0,0.0,0.0,0.0,0.0,0.0,4.5676,4.5049,4.4282,4.403,0.0,0.0,0.0,0.0,0.0,4.0489,4.0489,4.0489,4.0489,4.0489,4.0489,4.0489,0.0,0.0,0.0,0.0,0.0,0.0,0.0,0.0,0.0,0.0,0.0,0.0,0.0,0.0,0.0,0.0,0.0,0.0,0.0,0.0,0.0,0.0,0.0,0.0,2.254,2.2043,2.1874,2.1999,2.1677,2.0832,2.1497,2.1997,2.2104,2.2842,2.303,2.2747,2.3495,2.358,2.3078,0.0,0.0,2.3138,2.322,2.3233,2.3138,2.3258,2.3305,2.3245,2.3138,2.3198,2.3245,0.0,0.0,0.0,0.0,0.0,0.0,0.0,0.0,0.0,0.0,0.0,0.0,0.0,0.0,0.0,0.0,0.0,0.0,0.0,0.0,0.0,4.5586,4.5586,4.5586,4.5586,4.5586,4.5605,4.5624,4.5624,4.5624,4.5643,4.5776,4.5944,4.6113,4.623,4.6308,4.6308,4.6308,0.0,0.0,0.0,0.0,0.0,0.0,0.0,0.0,0.0,0.0,0.0,4.5109,4.4703,4.4222,4.281,0.0,0.0,0.0,0.0,0.0,4.0489,4.0489,4.0489,4.0489,4.0489,4.0489,4.0489,4.0296,0.0,0.0,0.0,0.0,0.0,0.0,0.0,0.0,0.0,0.0,0.0,0.0,0.0,0.0,0.0,0.0,0.0,0.0,0.0,0.0,0.0,0.0,2.3163,2.2967,2.2565,2.1946,2.2543,2.2554,2.171,2.1832,2.2312,2.3105,2.2787,2.3058,2.3777,2.3384,2.3175,2.3078,0.0,2.3078,2.3125,2.3826,2.3722,2.3198,2.3826,2.4118,2.406,2.3365,2.3531,2.4002,0.0,0.0,0.0,0.0,0.0,0.0,0.0,0.0,0.0,0.0,0.0,0.0,0.0,0.0,0.0,0.0,0.0,0.0,0.0,0.0,4.5586,4.5586,4.5586,4.5586,4.5586,4.5586,4.5586,4.5586,4.5586,4.5624,4.5719,4.5873,4.6003,4.6113,4.623,4.6308,4.6308,4.6308,4.6308,4.6308,0.0,0.0,0.0,0.0,0.0,0.0,0.0,0.0,0.0,0.0,4.3697,4.3071,4.229,0.0,0.0,0.0,0.0,0.0,4.0658,4.0658,4.0658,4.0658,4.0639,4.062,4.0658,4.0581,0.0,0.0,0.0,0.0,0.0,0.0,0.0,0.0,0.0,0.0,0.0,0.0,0.0,0.0,0.0,0.0,0.0,0.0,0.0,0.0,0.0,0.0,2.3777,2.3359,2.2942,2.2552,2.2942,2.2942,2.2552,2.2552,2.276,2.3175,2.2955,2.3065,2.3495,2.3679,2.3764,2.3777,0.0,2.4322,2.4356,2.4736,2.4697,2.4353,2.4284,2.4509,2.4851,2.4496,2.4553,2.4781,0.0,0.0,0.0,0.0,0.0,0.0,0.0,0.0,0.0,0.0,0.0,0.0,0.0,0.0,0.0,0.0,0.0,0.0,0.0,4.501,4.501,4.501,4.501,4.5201,4.5586,4.5586,4.5586,4.5586,4.5586,4.5665,4.5802,4.5973,4.6061,4.6113,4.623,4.6308,4.6308,4.6308,4.6308,4.6308,0.0,0.0,0.0,0.0,0.0,0.0,0.0,0.0,0.0,0.0,0.0,0.0,0.0,0.0,0.0,4.0788,4.0788,4.0764,4.0569,4.0508,4.0469,4.0296,4.0331,4.0459,4.0517,4.0362,0.0,0.0,0.0,0.0,0.0,0.0,0.0,0.0,0.0,0.0,0.0,0.0,0.0,0.0,0.0,0.0,0.0,0.0,0.0,0.0,0.0,0.0,2.458,2.3987,2.3666,2.3666,2.347,2.3371,2.3371,2.3175,2.3078,2.3078,2.3273,2.3371,2.3384,2.4,2.4393,2.4553,2.4972,2.5222,2.5378,2.5604,2.5574,2.5342,2.4984,2.5052,2.5411,2.5602,2.5658,2.555,0.0,0.0,0.0,0.0,0.0,0.0,0.0,0.0,0.0,0.0,0.0,0.0,0.0,0.0,0.0,0.0,0.0,0.0,0.0,4.3267,4.3267,4.3267,4.3267,4.4013,4.5566,4.5586,4.5586,4.5586,4.5586,4.5677,4.5795,4.5886,4.5983,4.6113,4.623,4.6308,4.6308,4.6308,4.6308,4.6308,4.6308,0.0,0.0,0.0,0.0,0.0,0.0,0.0,0.0,0.0,0.0,0.0,0.0,0.0,4.0797,4.0797,4.0797,4.0636,3.9902,3.9685,3.9512,3.877,3.9135,3.9684,3.9684,3.9059,0.0,3.8388,0.0,0.0,0.0,0.0,0.0,0.0,0.0,0.0,0.0,0.0,0.0,0.0,0.0,0.0,0.0,0.0,0.0,0.0,0.0,0.0,2.5362,2.5282,2.5208,2.5208,2.4546,2.421,2.421,2.347,2.3078,2.3138,2.3876,2.421,2.421,2.4296,2.4654,2.5314,2.4666,2.4773,2.5451,2.6156,2.6039,2.5452,2.6112,2.5954,2.5497,2.6199,2.6402,2.6308,0.0,0.0,0.0,0.0,0.0,0.0,0.0,0.0,0.0,0.0,0.0,0.0,0.0,0.0,0.0,0.0,0.0,0.0,0.0,4.3099,4.3099,4.3099,4.3099,4.3387,4.402,4.4066,4.4051,4.4051,4.409,4.4118,4.4198,4.4386,4.4508,4.4551,4.4648,4.4687,4.4687,4.4687,4.4687,4.4687,4.4687,4.4687,0.0,0.0,0.0,0.0,0.0,0.0,0.0,0.0,4.1641,4.1562,4.123,4.1094,4.0937,4.0391,4.0234,4.0057,3.9214,3.8987,3.8909,3.8597,3.8355,0.0,0.0,3.8711,3.8318,3.7737,3.762,0.0,0.0,0.0,0.0,0.0,0.0,0.0,0.0,0.0,0.0,0.0,0.0,0.0,0.0,0.0,0.0,0.0,0.0,0.0,0.0,2.5669,2.538,2.538,2.5133,2.4953,2.4957,2.4658,2.4533,2.4533,2.4395,2.4522,2.5009,2.5462,2.584,2.6106,2.6298,2.6482,2.6796,2.706,2.703,2.6811,2.706,2.6715,2.617,2.6902,2.7172,2.7093,0.0,0.0,0.0,0.0,0.0,0.0,0.0,0.0,0.0,0.0,0.0,0.0,0.0,0.0,0.0,0.0,0.0,0.0,4.2283,4.2283,4.2283,4.2283,4.2283,4.2283,4.2283,4.228,4.2552,4.3107,4.3145,4.3184,4.3201,4.3426,4.3555,4.3594,4.3672,4.3691,4.3691,4.3691,4.3691,4.3691,4.3691,4.3691,0.0,0.0,0.0,0.0,0.0,0.0,0.0,0.0,4.1191,4.1152,4.0879,4.0781,4.0625,3.9746,3.9492,3.9297,3.8437,3.8184,3.8125,3.7851,0.0,0.0,3.7637,3.7773,3.7598,3.6953,3.6816,0.0,0.0,0.0,0.0,0.0,0.0,0.0,0.0,0.0,0.0,0.0,0.0,0.0,0.0,0.0,0.0,0.0,0.0,0.0,0.0,2.6672,2.6314,2.6111,2.5879,2.573,2.5723,2.5513,2.5513,2.5736,2.5263,2.5232,2.577,2.6249,2.6645,2.6862,2.7135,2.739,2.7625,2.7625,2.7625,2.7625,2.7625,2.7299,2.6909,2.7395,2.7625,2.753,0.0,0.0,0.0,0.0,0.0,0.0,0.0,0.0,0.0,0.0,0.0,0.0,0.0,0.0,0.0,0.0,0.0,0.0,4.0489,4.0489,4.0489,4.0489,4.0489,4.0489,4.0489,4.0489,4.1347,4.3069,4.3069,4.3108,4.3181,4.3319,4.3457,4.3574,4.3633,4.3672,4.3672,4.3672,4.3672,4.3672,4.3672,4.3672,4.3574,0.0,0.0,0.0,0.0,0.0,0.0,0.0,4.1191,4.1035,4.0176,3.9883,3.9726,3.8848,3.8594,3.8398,3.7519,3.7285,3.707,0.0,0.0,0.0,3.5996,3.5996,3.5996,3.5996,0.0,0.0,0.0,0.0,0.0,0.0,0.0,0.0,0.0,0.0,0.0,0.0,0.0,0.0,0.0,0.0,0.0,0.0,0.0,0.0,0.0,2.8505,2.8253,2.764,2.6905,2.6547,2.6482,2.5785,2.5785,2.6482,2.6482,2.6482,2.6482,2.6482,2.692,2.7545,2.6825,2.692,2.7625,2.7625,2.7625,2.7625,2.7625,2.7625,2.7625,2.7625,2.7625,2.7625,0.0,0.0,0.0,0.0,0.0,0.0,0.0,0.0,0.0,0.0,0.0,0.0,0.0,0.0,0.0,0.0,0.0,0.0,4.0489,4.0489,4.0489,4.0489,4.0489,4.0489,4.0489,4.0489,4.0754,4.127,4.127,4.1328,4.1439,4.1473,4.1558,4.1641,4.1758,4.1797,4.1816,4.1894,4.1933,4.1933,4.1933,4.1933,4.1914,0.0,0.0,0.0,0.0,0.0,0.0,0.0,0.0,0.0,3.998,3.9473,3.8809,3.7949,3.7695,3.75,3.6621,3.6387,0.0,3.6055,0.0,0.0,0.0,3.5996,0.0,0.0,0.0,0.0,0.0,0.0,0.0,0.0,0.0,0.0,0.0,0.0,0.0,0.0,0.0,0.0,0.0,0.0,0.0,0.0,0.0,0.0,0.0,2.8904,2.8662,2.764,2.7795,2.7685,2.728,2.706,2.706,2.728,2.728,2.728,2.728,2.728,2.7405,2.756,2.739,2.7405,2.7625,2.7625,2.7625,2.7625,2.7625,2.7625,2.7625,2.7625,2.7625,2.7625,0.0,0.0,0.0,0.0,0.0,0.0,0.0,0.0,0.0,0.0,4.1289,0.0,0.0,0.0,0.0,0.0,0.0,0.0,0.0,4.0489,4.0489,4.0489,4.0489,4.0489,4.0489,4.0489,4.0489,4.0489,4.0489,4.0543,4.062,4.0677,4.0738,4.0799,4.0935,4.1035,4.1074,4.1172,4.1191,4.1191,4.1191,4.1191,4.1191,0.0,0.0,0.0,0.0,0.0,0.0,0.0,0.0,0.0,3.8984,3.8516,3.791,3.7031,3.6777,3.668,3.6133,3.5996,0.0,0.0,0.0,0.0,0.0,0.0,0.0,0.0,0.0,0.0,0.0,0.0,0.0,0.0,0.0,0.0,0.0,0.0,0.0,0.0,0.0,0.0,0.0,0.0,0.0,0.0,0.0,0.0,0.0,2.9546,2.9301,2.8372,2.8658,2.8551,2.7936,2.7936,2.7861,2.7625,2.7625,2.7625,2.7625,2.7625,2.7625,2.7625,2.7625,2.7625,2.7625,2.7625,2.7625,2.7625,2.7625,2.7625,2.7625,2.7625,2.7625,2.7625,0.0,0.0,0.0,0.0,0.0,0.0,0.0,0.0,0.0,0.0,4.0489,4.0489,0.0,0.0,0.0,0.0,0.0,0.0,0.0,4.0489,4.0489,4.0489,4.0489,4.0489,4.0489,4.0489,4.0489,4.0489,4.0489,4.0489,4.0489,4.062,4.0716,4.0773,4.0906,4.1032,4.1152,4.1172,4.1191,4.1191,4.1191,4.1191,4.1172,4.1172,0.0,0.0,0.0,0.0,0.0,0.0,0.0,0.0,3.7519,3.7226,3.6992,3.6211,3.5996,3.5996,3.5996,0.0,0.0,0.0,0.0,0.0,0.0,0.0,0.0,0.0,0.0,0.0,0.0,0.0,0.0,0.0,0.0,0.0,0.0,0.0,0.0,0.0,0.0,0.0,0.0,0.0,0.0,0.0,0.0,0.0,0.0,3.036,3.005,2.942,2.9448,2.9203,2.8587,2.8575,2.8283,2.767,2.767,2.767,2.767,2.764,2.7625,2.7625,2.7655,2.7655,2.7625,2.7625,2.7625,2.7625,2.7625,2.7625,2.7625,2.7625,2.7625,2.7625,0.0,0.0,0.0,0.0,0.0,0.0,0.0,0.0,0.0,0.0,0.0,0.0,0.0,0.0,0.0,0.0,0.0,0.0,0.0,4.0373,4.0489,4.0489,4.0489,4.0489,4.0489,4.0489,4.0489,4.0489,4.0489,4.0489,4.0489,4.0543,4.0562,4.0558,4.0694,4.0808,4.0898,4.0996,4.1094,4.1191,4.1191,4.1133,4.1035,4.1035,4.0586,0.0,0.0,0.0,0.0,0.0,0.0,0.0,3.7129,3.6582,3.6035,3.5957,3.5918,3.5937,3.5996,3.5996,0.0,0.0,0.0,0.0,0.0,0.0,0.0,0.0,0.0,0.0,0.0,0.0,0.0,0.0,0.0,0.0,0.0,0.0,0.0,0.0,0.0,0.0,0.0,0.0,0.0,0.0,0.0,0.0,3.0825,3.0931,3.0501,2.9426,2.984,2.9823,2.923,2.9234,2.89,0.0,2.8299,2.8299,2.8283,2.7795,2.7625,2.764,2.8112,2.8032,2.7625,2.7625,2.7625,2.7625,2.7625,2.7625,2.7625,2.7625,2.7625,2.7625,0.0,0.0,0.0,0.0,0.0,0.0,0.0,0.0,0.0,0.0,0.0,0.0,0.0,0.0,0.0,0.0,0.0,0.0,0.0,0.0,4.0335,3.9935,3.9531,3.9304,3.9304,3.9304,3.9304,3.9304,3.9304,3.9704,4.0489,4.0489,4.0543,4.0596,4.0665,4.0738,4.0811,4.0867,4.0723,4.043,4.043,4.0137,3.9706,3.9705,3.9408,3.8979,3.8981,0.0,0.0,0.0,0.0,0.0,0.0,0.0,3.571,3.5768,3.5806,3.5801,3.5859,0.0,0.0,3.5852,0.0,0.0,0.0,0.0,0.0,0.0,0.0,0.0,0.0,0.0,0.0,0.0,0.0,0.0,0.0,0.0,0.0,0.0,0.0,0.0,0.0,0.0,0.0,0.0,0.0,3.1185,3.0549,3.0611,3.0281,2.9482,2.9761,2.9549,2.8787,2.9151,2.8987,2.8426,2.8737,2.8945,2.891,2.8611,2.8442,2.846,2.8784,2.8617,2.8032,2.8364,2.8283,2.8047,2.8364,2.844,2.8425,2.8142,2.8032,2.8001,0.0,0.0,0.0,0.0,0.0,0.0,0.0,0.0,0.0,0.0,0.0,0.0,0.0,0.0,0.0,0.0,0.0,0.0,0.0,0.0,0.0,3.9089,3.8381,3.8001,3.8001,3.8001,3.8001,3.8001,3.8001,3.8708,4.0062,4.0065,4.0142,4.0239,4.0239,4.0277,4.0342,4.0344,3.9962,3.9376,3.9379,3.8949,3.8271,3.8284,3.8174,3.8016,3.8031,3.7467,3.6747,3.6747,0.0,0.0,0.0,0.0,3.568,3.568,3.5674,3.5686,3.5706,0.0,3.5667,3.5472,0.0,0.0,0.0,0.0,0.0,0.0,0.0,0.0,0.0,0.0,0.0,0.0,0.0,0.0,0.0,0.0,0.0,0.0,0.0,0.0,0.0,0.0,0.0,0.0,0.0,3.0843,3.0311,3.0167,2.996,2.9595,2.9593,2.9197,2.8351,2.8937,2.891,2.8283,2.8867,2.9191,2.9198,2.9305,2.9377,2.9397,2.9526,2.9213,2.8676,2.9162,2.9119,2.8693,2.9213,2.9386,2.9339,2.8835,2.8572,2.8425,0.0,0.0,0.0,0.0,0.0,0.0,0.0,0.0,0.0,0.0,0.0,0.0,0.0,0.0,0.0,0.0,0.0,0.0,3.797,0.0,0.0,3.818,3.8064,3.7993,3.7993,3.7993,3.7993,3.7993,3.7993,3.8122,3.8334,3.8339,3.8331,3.8351,3.8351,3.8428,3.8558,3.8546,3.851,3.8466,3.8472,3.8361,3.8214,3.8221,3.7665,3.6906,3.6901,3.6386,3.5699,3.5699,3.5622,0.0,0.0,0.0,3.5545,3.5603,3.5612,3.5635,0.0,0.0,3.5481,0.0,0.0,0.0,0.0,0.0,0.0,0.0,0.0,0.0,0.0,0.0,0.0,0.0,0.0,0.0,0.0,0.0,0.0,0.0,0.0,0.0,0.0,0.0,0.0,0.0,3.1446,3.1054,3.0972,3.0421,3.0061,3.0024,3.0004,2.9782,2.9317,2.942,2.9016,2.8129,2.8249,2.8265,2.8283,2.8836,2.9187,2.9426,2.9969,2.9847,2.928,2.939,2.9358,2.9304,2.9354,2.9411,2.937,2.9321,2.8952,2.8551,0.0,0.0,0.0,0.0,0.0,0.0,0.0,0.0,0.0,0.0,0.0,0.0,0.0,0.0,0.0,3.8389,3.8488,3.8349,3.7815,3.7454,3.7257,3.7261,3.6843,3.6593,3.6593,3.6593,3.6593,3.6593,3.6593,3.6593,3.6612,3.6608,3.7108,3.8003,3.8003,3.8041,3.8099,3.8099,3.7815,3.7411,3.7401,3.7126,3.6689,3.6689,3.6406,3.604,3.604,3.5795,3.5493,3.5493,3.5493,3.5493,3.5493,0.0,0.0,0.0,3.5089,0.0,3.3895,3.3728,3.3632,0.0,0.0,0.0,0.0,0.0,0.0,0.0,0.0,0.0,0.0,0.0,0.0,0.0,0.0,0.0,0.0,0.0,0.0,0.0,0.0,0.0,0.0,0.0,0.0,0.0,3.0757,3.0509,3.0319,3.0051,2.9729,2.937,2.9383,2.9114,2.8602,2.9033,2.9214,2.9221,2.9221,2.9221,2.9238,2.9515,2.9462,2.9204,2.9482,2.9237,2.8725,2.9485,2.9564,2.9359,3.0124,3.0404,3.0387,3.0018,2.9749,2.9483,0.0,0.0,0.0,0.0,0.0,0.0,0.0,0.0,0.0,0.0,0.0,0.0,0.0,0.0,0.0,0.0,3.7656,3.7583,3.7376,3.6766,3.6386,3.6386,3.5815,3.5493,3.5493,3.5493,3.5493,3.5493,3.5493,3.5493,3.5493,3.5493,3.6175,3.7357,3.7357,3.7357,3.7357,3.7357,3.6991,3.6386,3.6386,3.6001,3.5397,3.5397,3.5359,3.5301,3.5359,0.0,0.0,0.0,3.5435,3.5397,3.5397,3.5339,0.0,0.0,0.0,0.0,0.0,0.0,0.0,0.0,0.0,0.0,0.0,0.0,0.0,0.0,0.0,0.0,0.0,0.0,0.0,0.0,0.0,0.0,0.0,0.0,0.0,0.0,0.0,0.0,0.0,0.0,0.0,0.0,3.0237,3.0099,2.9847,2.9749,2.9487,2.9037,2.8986,2.8695,2.8132,2.8507,2.9018,2.955,2.955,2.955,2.955,2.955,2.9236,2.873,2.8999,2.8862,2.8536,2.9433,2.9609,2.9393,3.051,3.0909,3.0875,3.0611,3.0421,3.0256,0.0,0.0,0.0,0.0,0.0,0.0,0.0,0.0,0.0,0.0,0.0,0.0,3.7987,3.7987,3.7679,3.6843,3.6766,3.6439,3.568,3.5603,3.5565,3.5565,3.5526,0.0,3.5493,3.5493,3.5493,3.5493,3.5493,3.5493,3.5493,3.5493,3.5565,3.5641,3.5641,3.5641,3.5641,3.5641,3.5603,3.5565,3.5565,3.5378,3.5128,3.5128,3.496,3.4768,0.0,0.0,0.0,0.0,0.0,3.5128,3.5128,3.4941,3.4581,0.0,0.0,0.0,0.0,0.0,0.0,0.0,0.0,0.0,0.0,0.0,0.0,0.0,0.0,0.0,0.0,0.0,0.0,0.0,0.0,0.0,0.0,0.0,0.0,0.0,0.0,0.0,0.0,0.0,0.0,0.0,3.0331,3.0194,3.0177,2.9876,2.9704,2.9653,2.9475,2.9163,2.875,2.8231,2.7978,2.802,2.802,2.802,2.802,2.802,2.7997,2.8009,2.9022,2.9471,2.9402,2.9179,2.9221,2.9532,2.9967,3.0141,3.0247,3.0892,3.0808,3.0365,0.0,0.0,0.0,0.0,0.0,0.0,0.0,0.0,0.0,0.0,0.0,0.0,0.0,3.604,3.6021,3.5699,3.5834,3.5815,3.5526,3.5493,3.5493,3.5493,3.5493,3.5493,3.5493,3.5493,3.5493,3.5493,3.5493,3.5493,3.5493,3.532,3.5243,3.5243,3.5416,3.5493,3.5493,3.5493,3.5493,3.5474,3.5301,3.5282,3.5336,3.4961,0.0,0.0,0.0,0.0,0.0,0.0,0.0,0.0,3.4845,3.4383,3.3574,0.0,0.0,0.0,0.0,0.0,0.0,0.0,0.0,0.0,0.0,0.0,0.0,0.0,0.0,0.0,0.0,0.0,0.0,0.0,0.0,0.0,0.0,0.0,0.0,0.0,0.0,0.0,0.0,0.0,0.0,0.0,0.0,3.0503,3.046,3.0302,3.0148,3.0021,2.9861,2.9588,2.9205,2.8957,2.8769,2.8599,2.8599,2.8695,2.8865,2.8695,2.8562,2.8484,2.8699,2.8653,2.8507,2.8863,2.8934,2.8864,2.9467,2.9587,2.9482,3.023,3.037,3.0264,0.0,0.0,0.0,0.0,0.0,0.0,0.0,0.0,0.0,3.507,0.0,0.0,0.0,0.0,3.5009,3.5081,3.5339,3.5493,3.5493,3.5493,3.5493,3.5493,3.5493,3.5493,3.5493,3.5493,3.5493,3.5493,3.5493,3.5435,3.5359,3.5185,3.504,3.4963,3.5152,3.5231,3.5224,3.5224,0.0,3.5224,0.0,0.0,3.5021,0.0,0.0,0.0,0.0,0.0,0.0,0.0,0.0,0.0,0.0,0.0,0.0,0.0,0.0,0.0,2.8458,0.0,0.0,0.0,0.0,0.0,0.0,0.0,0.0,0.0,0.0,0.0,0.0,0.0,0.0,0.0,0.0,0.0,0.0,0.0,0.0,0.0,0.0,0.0,0.0,0.0,0.0,0.0,0.0,0.0,3.0642,3.0567,3.0417,3.0206,3.0071,2.9851,2.9513,2.9499,2.9407,2.9242,2.9242,2.9333,2.9485,2.9316,2.92,2.909,2.8847,2.8492,2.8099,2.8467,2.8521,2.8473,2.9084,2.9195,2.908,2.9824,3.0171,3.0353,0.0,0.0,0.0,0.0,0.0,0.0,0.0,0.0,3.4688,3.4688,0.0,0.0,0.0,0.0,0.0,3.5057,3.532,3.5474,3.5474,3.5474,3.5474,3.5474,3.5474,3.5474,3.5474,3.5474,3.5474,3.5474,3.5474,3.5339,3.5089,3.5081,3.4926,3.4686,3.4686,3.467,3.4669,0.0,3.4688,3.4688,0.0,3.4491,3.4212,0.0,0.0,0.0,3.4091,3.4191,0.0,0.0,0.0,0.0,0.0,0.0,0.0,0.0,0.0,0.0,0.0,0.0,0.0,0.0,0.0,0.0,0.0,0.0,0.0,0.0,0.0,0.0,0.0,0.0,0.0,0.0,0.0,0.0,0.0,0.0,0.0,0.0,0.0,0.0,0.0,0.0,0.0,0.0,3.0781,3.0703,3.0703,3.0637,3.0479,3.0225,3.009,2.9925,2.9713,2.972,2.972,2.9701,2.9701,2.9701,2.971,2.9711,2.969,2.9701,2.9494,2.904,2.8411,2.8054,2.8132,2.8445,2.8825,2.8987,2.9056,2.9795,3.0262,3.0555,0.0,0.0,0.0,0.0,0.0,3.507,3.4836,3.4759,3.4605,0.0,0.0,0.0,3.4072,3.4228,3.447,3.4774,3.4883,3.4922,3.4922,3.4922,3.4922,3.4922,3.4922,3.4922,3.4922,3.4922,3.4922,3.4922,3.4922,3.4883,3.4812,3.4562,3.4396,3.432,3.4127,3.406,3.4074,3.4512,0.0,3.4685,3.4456,3.4433,0.0,0.0,0.0,0.0,0.0,3.3733,3.3505,0.0,3.3486,3.3101,0.0,0.0,0.0,0.0,0.0,0.0,2.7485,0.0,0.0,0.0,0.0,0.0,0.0,0.0,0.0,0.0,0.0,0.0,0.0,0.0,0.0,0.0,0.0,0.0,0.0,0.0,0.0,0.0,0.0,0.0,0.0,0.0,0.0,0.0,3.0801,3.084,3.084,3.0747,3.0586,3.0421,3.0379,3.0225,2.9925,2.9917,2.9836,2.9688,2.9688,2.9779,2.9912,2.9762,2.9787,2.9912,2.9688,2.9512,2.9315,2.8883,2.8581,2.8406,2.8515,2.8422,2.8288,2.9024,2.935,2.9601,0.0,0.0,0.0,3.5211,3.4889,3.4649,3.4507,3.4402,3.4246,0.0,0.0,0.0,3.3825,3.4036,3.4272,3.4471,3.4623,3.4699,3.4699,3.4699,3.4699,3.4699,3.4699,3.4699,3.4699,3.4794,3.4794,3.4699,3.4794,3.4737,3.4491,3.4284,3.4127,3.4036,3.3862,0.0,0.0,0.0,0.0,0.0,3.4109,0.0,0.0,3.3944,3.388,0.0,0.0,0.0,3.3378,3.305,3.2595,0.0,0.0,0.0,0.0,0.0,0.0,0.0,0.0,0.0,0.0,0.0,0.0,0.0,2.7538,2.7661,0.0,0.0,0.0,0.0,0.0,0.0,0.0,0.0,0.0,0.0,0.0,0.0,0.0,0.0,0.0,0.0,0.0,3.0583,3.0641,3.0703,3.0762,3.084,3.0898,3.0762,3.0669,3.0587,3.0549,3.0448,3.0244,3.0244,3.0186,3.0021,3.0021,3.009,3.0167,3.0052,3.0071,3.0148,2.9925,2.9837,2.9813,2.9439,2.9093,2.8805,2.8805,2.8617,2.8411,2.8847,2.9108,2.9436,0.0,0.0,3.534,3.5099,3.4811,3.4494,3.4209,3.3962,3.3807,0.0,3.3862,3.3944,3.3944,3.4228,3.4439,3.4439,3.4705,3.4833,3.4741,3.4723,3.4686,3.4586,3.4586,3.4604,3.4649,3.4897,3.4895,3.471,3.4895,3.4723,3.4209,3.4173,3.4036,3.3807,3.3807,0.0,0.0,0.0,0.0,3.3807,3.3807,3.3807,0.0,0.0,3.3807,0.0,3.3386,3.3433,3.3531,3.2696,3.162,0.0,0.0,0.0,0.0,0.0,2.7504,0.0,0.0,0.0,0.0,0.0,0.0,0.0,2.7131,2.7233,2.7351,0.0,0.0,0.0,0.0,0.0,0.0,0.0,0.0,0.0,0.0,0.0,0.0,0.0,0.0,0.0,3.0487,3.0506,3.0548,3.0671,3.0683,3.0742,3.0879,3.0781,3.0723,3.0703,3.0639,3.0606,3.0606,3.0606,3.0567,3.0499,3.0521,3.0487,3.0417,3.0398,3.0398,3.0398,3.0148,3.004,3.0021,2.9848,2.9633,2.9422,2.9439,2.9297,2.909,2.9053,2.9278,2.9692,3.6009,3.532,3.4841,3.4786,3.4326,3.3962,3.388,3.3825,3.3807,3.3807,3.4357,3.476,3.476,3.5449,3.589,3.589,3.5945,3.5697,3.4989,3.4952,3.4668,3.3999,3.3981,3.4072,3.4283,3.4338,3.4489,3.4697,3.4489,3.432,3.4209,3.3981,3.3844,3.3807,3.3807,3.3807,0.0,0.0,0.0,3.3807,3.3807,0.0,3.3807,3.3807,3.3807,3.3788,3.3715,3.327,3.2674,0.0,3.0955,2.9746,0.0,0.0,0.0,0.0,0.0,0.0,0.0,0.0,0.0,0.0,0.0,0.0,2.6809,2.6809,2.6928,0.0,0.0,0.0,0.0,0.0,0.0,0.0,0.0,0.0,0.0,0.0,0.0,0.0,0.0,0.0,3.0398,3.0467,3.0513,3.054,3.0638,3.0703,3.0742,3.082,3.0801,3.0703,3.0696,3.0645,3.0606,3.0606,3.0587,3.0587,3.0576,3.0564,3.0564,3.0506,3.0487,3.0467,3.0359,3.0321,3.0321,3.0283,3.0017,2.9641,2.9651,2.9596,2.954,2.937,2.937,2.9522,3.5661,3.5205,3.4864,3.4717,3.4301,3.3962,3.3825,3.3807,3.3807,3.3807,3.4494,3.5174,3.5604,3.6036,3.6303,3.6303,3.6303,3.6091,3.5695,3.5239,3.4815,3.442,3.4017,3.3844,3.3999,3.43,3.4376,3.4255,3.4376,3.43,3.3999,3.3844,3.3807,3.3807,3.3807,3.3807,0.0,0.0,3.3807,3.3807,3.3807,0.0,3.3807,3.3807,3.3807,3.3752,3.3313,3.2592,3.1788,3.1382,3.0454,0.0,0.0,2.822,2.7262,0.0,2.6843,2.6657,0.0,0.0,0.0,2.6371,0.0,0.0,0.0,2.6691,2.6775,0.0,0.0,0.0,0.0,0.0,0.0,0.0,0.0,0.0,0.0,0.0,0.0,0.0,0.0,0.0,3.0186,3.034,3.0467,3.0506,3.0599,3.0665,3.0703,3.0762,3.0801,3.0801,3.0801,3.0781,3.0742,3.0742,3.0723,3.0644,3.065,3.0625,3.0606,3.0567,3.056,3.0544,3.0506,3.0506,3.0506,3.0467,3.0302,3.0074,2.9918,2.9789,2.9677,2.9583,2.9547,2.9637,3.5526,3.5282,3.5005,3.4747,3.442,3.4109,3.3844,3.3807,3.3844,3.4017,3.4871,3.5716,3.6292,3.651,3.651,3.6261,3.6243,3.6224,3.6188,3.5345,3.4926,3.5008,3.4228,3.3825,3.3862,3.4356,3.4397,3.3972,3.4397,3.4356,3.3862,3.3825,3.3807,3.3807,3.3733,3.3733,0.0,0.0,0.0,3.3697,0.0,3.3733,3.3788,3.3715,3.3697,3.357,3.2697,3.1911,3.1224,3.0825,0.0,2.9282,2.8596,2.7827,0.0,0.0,0.0,0.0,0.0,0.0,0.0,0.0,0.0,2.6118,0.0,0.0,0.0,2.6691,0.0,0.0,0.0,0.0,0.0,0.0,0.0,0.0,0.0,0.0,0.0,0.0,0.0,0.0,0.0,3.0244,3.0417,3.0487,3.0544,3.0606,3.066,3.0661,3.0742,3.0859,3.0859,3.0879,3.0898,3.0898,3.0859,3.0742,3.0742,3.0703,3.0664,3.0625,3.0622,3.0627,3.0608,3.0606,3.0602,3.0544,3.0525,3.0487,3.0186,2.9982,2.9829,2.979,2.9744,2.9816,3.5526,3.5282,3.5005,3.4747,3.442,3.4109,3.3844,3.3807,3.4054,3.476,3.6248,3.7071,3.6705,0.0,0.0,0.0,0.0,0.0,3.5708,0.0,3.4652,3.4962,3.4228,3.3925,3.4154,3.4212,3.4376,3.4601,3.4376,3.4212,3.4154,3.3925,3.3807,3.3788,3.3423,0.0,0.0,0.0,3.3276,0.0,3.3276,3.3486,0.0,3.3386,3.3276,3.3149,3.2266,3.1859,3.163,0.0,2.9935,2.8991,0.0,2.764,2.6775,0.0,0.0,0.0,0.0,0.0,0.0,0.0,2.6308,0.0,0.0,0.0,2.6691,2.6691,0.0,0.0,0.0,0.0,0.0,0.0,0.0,0.0,0.0,0.0,0.0,0.0,0.0,0.0,0.0,3.0244,3.0398,3.0398,3.0467,3.051,3.0518,3.0576,3.0644,3.0723,3.0723,3.0781,3.0898,3.0898,3.0898,3.0879,3.0879,3.0879,3.0859,3.0742,3.0683,3.0697,3.0639,3.0608,3.0602,3.0583,3.0583,3.0564,3.0417,3.034,3.0283,3.0052,2.9985,2.996,3.5526,3.5282,3.5066,3.4945,3.4545,3.4173,3.4054,3.4301,3.4963,3.6274,3.7076,3.7613,0.0,0.0,0.0,0.0,0.0,3.6899,0.0,0.0,3.5586,3.5771,3.4952,3.432,3.3981,3.4109,3.4191,3.417,3.4191,3.4109,3.3981,3.3844,3.3807,3.3788,3.3368,0.0,3.3452,0.0,0.0,0.0,0.0,0.0,0.0,3.2962,3.2619,3.2318,3.1956,3.1664,3.128,0.0,2.9368,0.0,0.0,0.0,0.0,0.0,0.0,0.0,0.0,0.0,0.0,0.0,0.0,0.0,2.6522,0.0,2.6691,0.0,0.0,0.0,0.0,0.0,0.0,0.0,2.8376,0.0,0.0,0.0,0.0,0.0,0.0,0.0,0.0,0.0,0.0,0.0,3.0417,3.0467,3.0506,3.0527,3.0561,3.0639,3.0645,3.0664,3.0723,3.0723,3.0723,3.0723,3.0723,3.0742,3.0781,3.0723,3.0742,3.0801,3.0781,3.0769,3.0774,3.0697,3.0661,3.0641,3.0544,3.0487,3.0448,3.0283,3.0225,3.0263,3.5526,0.0,0.0,3.5109,3.468,3.4375,3.4418,3.5129,3.6101,0.0,0.0,0.0,3.8438,3.8382,0.0,0.0,0.0,3.6576,0.0,0.0,3.5702,0.0,0.0,0.0,0.0,3.3999,3.3999,3.3807,3.3999,3.3999,3.3807,3.3807,3.3807,3.3788,3.3368,3.319,3.3188,0.0,0.0,3.283,3.2818,3.276,3.2629,3.2388,3.2019,3.1647,3.1647,3.1331,3.0718,2.9532,2.8919,0.0,2.7252,0.0,0.0,0.0,0.0,0.0,2.6034,0.0,0.0,0.0,0.0,0.0,0.0,0.0,0.0,0.0,0.0,0.0,0.0,0.0,0.0,0.0,0.0,0.0,0.0,0.0,0.0,0.0,0.0,0.0,0.0,0.0,0.0,3.0283,3.0283,3.034,3.0467,3.0467,3.0506,3.0564,3.0568,3.059,3.0609,3.0609,3.0609,3.0609,3.0609,3.0629,3.0668,3.066,3.0723,3.082,3.084,3.0859,3.084,3.0781,3.0742,3.0748,3.0671,3.0608,3.0544,3.0467,3.0417,3.0506,3.5526,3.5474,0.0,0.0,3.487,3.4764,3.4951,0.0,0.0,0.0,0.0,0.0,0.0,0.0,0.0,0.0,0.0,3.3928,3.4834,0.0,3.4171,0.0,0.0,3.4631,0.0,0.0,3.3807,3.3807,3.3807,3.3807,3.3807,3.3807,3.3807,3.3788,3.3368,3.319,3.3162,3.2728,3.2264,3.1846,3.1829,3.1597,3.1297,0.0,3.1584,3.1207,3.1207,0.0,0.0,2.9638,2.8749,0.0,0.0,0.0,0.0,0.0,0.0,0.0,0.0,0.0,0.0,2.6439,0.0,0.0,0.0,0.0,2.6691,0.0,0.0,0.0,0.0,0.0,0.0,2.8263,0.0,0.0,0.0,0.0,0.0,0.0,0.0,0.0,0.0,0.0,0.0,3.0002,3.0002,3.0129,3.0379,3.0398,3.0417,3.0506,3.0498,3.0529,3.0587,3.0587,3.0587,3.0587,3.0587,3.0587,3.059,3.0602,3.0605,3.0605,3.0684,3.0703,3.0723,3.084,3.0898,3.0878,3.0741,3.0697,3.0679,3.0544,3.0467,3.0525,0.0,0.0,0.0,0.0,0.0,0.0,0.0,3.7119,0.0,0.0,0.0,0.0,0.0,0.0,3.6883,0.0,0.0,3.4542,3.5102,3.5036,0.0,0.0,0.0,3.5081,0.0,0.0,0.0,3.3807,3.3807,3.3807,3.3807,3.3807,3.3807,3.3788,3.3368,3.3037,0.0,0.0,0.0,0.0,0.0,3.1714,3.1596,0.0,0.0,3.119,3.119,3.0718,0.0,2.9372,2.8544,2.7674,2.708,2.6691,2.6402,2.6073,2.5887,0.0,0.0,0.0,2.491,2.5974,0.0,0.0,0.0,0.0,0.0,0.0,0.0,0.0,0.0,0.0,2.8029,2.8062,2.8489,0.0,0.0,0.0,0.0,0.0,0.0,0.0,0.0,0.0,0.0,3.0001,3.0166,3.0302,3.0398,3.0398,3.0398,3.0417,3.0417,3.0448,3.0467,3.0467,3.0467,3.0467,3.0467,3.0487,3.0525,3.0519,3.0556,3.0595,3.0614,3.0624,3.0644,3.0684,3.0723,3.0762,3.0723,3.0701,3.0679,3.0602,3.0525,3.0648,3.5872,0.0,0.0,0.0,0.0,0.0,0.0,0.0,0.0,0.0,3.7745,0.0,3.7238,0.0,3.6773,0.0,3.5116,3.4634,3.5484,3.5009,0.0,3.3978,3.487,0.0,0.0,0.0,0.0,0.0,0.0,3.3807,3.3807,3.3807,3.3807,3.3788,3.3542,3.3085,3.2502,0.0,3.2156,0.0,0.0,3.1613,0.0,0.0,3.1296,3.1348,0.0,3.0314,2.9604,2.8835,2.8048,2.7334,2.6843,2.6573,2.6352,2.5857,2.5566,2.5349,2.5004,2.4664,0.0,2.5738,2.562,0.0,2.6455,0.0,0.0,0.0,0.0,0.0,0.0,0.0,0.0,2.8099,2.8599,2.8994,0.0,2.8994,0.0,0.0,0.0,0.0,0.0,0.0,2.9702,2.9869,2.9994,3.0148,0.0,0.0,3.0302,3.0398,3.0398,3.0398,3.0398,3.0398,3.0398,3.0398,3.0398,3.0417,3.0467,3.0467,3.0487,3.0525,3.0544,3.0567,3.0564,3.0583,3.0622,3.065,3.0659,3.069,3.068,3.0642,3.0994,3.1653,0.0,0.0,0.0,0.0,3.769,0.0,0.0,0.0,3.7888,0.0,3.7435,3.7154,3.7137,3.6644,3.6378,3.6378,3.4578,0.0,3.568,3.4108,0.0,0.0,3.3878,3.3301,3.2493,0.0,0.0,0.0,0.0,3.3807,3.3807,3.3807,3.3807,3.3807,3.3807,0.0,3.2502,3.2492,3.1998,3.119,3.119,3.1207,3.1232,3.1212,3.1462,3.1647,3.0527,2.9605,2.8882,2.8065,2.7317,2.6691,2.6691,2.6387,2.5916,2.5397,2.4872,2.4468,2.4453,2.4438,2.4676,2.5725,0.0,0.0,0.0,0.0,2.6169,0.0,0.0,0.0,0.0,0.0,0.0,2.8355,2.8732,2.8994,2.8994,0.0,0.0,0.0,0.0,0.0,0.0,2.8994,2.9208,2.9653,2.9517,2.969,0.0,0.0,3.011,3.0359,3.0359,3.0359,3.0359,3.0379,3.0379,3.0379,3.0379,3.0398,3.0398,3.0398,3.0398,3.0398,3.0467,3.0506,3.0506,3.0564,3.0583,3.0601,3.0602,3.0664,3.0762,3.0762,3.1802,3.3327,3.667,3.7546,3.8396,0.0,3.9067,3.9068,0.0,0.0,0.0,0.0,3.6913,3.6446,3.6051,3.5887,3.5819,3.5819,3.432,0.0,0.0,0.0,0.0,3.2044,3.311,3.3166,3.2,3.2789,0.0,3.3195,0.0,3.3807,3.3807,3.3807,3.3807,3.3807,3.3807,0.0,3.2502,3.2492,3.1998,3.119,3.119,3.1365,0.0,0.0,3.1442,3.1647,3.0527,2.9614,2.8869,2.8066,2.7317,2.6691,2.6691,2.664,2.6421,2.5933,2.5702,2.5484,2.5109,2.4989,2.5139,2.5815,2.5918,2.5944,0.0,0.0,0.0,0.0,0.0,0.0,0.0,0.0,0.0,0.0,0.0,0.0,0.0,0.0,0.0,2.8994,0.0,0.0,0.0,2.9182,2.9337,2.9467,2.9559,2.9704,2.9866,0.0,0.0,2.9886,2.9886,2.9886,2.9886,3.0021,3.011,3.011,3.0302,3.0398,3.0398,3.0398,3.0398,3.0398,3.0417,3.0417,3.0417,3.0448,3.0487,3.0537,3.053,3.0964,3.1601,3.1641,3.2358,3.3389,3.768,0.0,0.0,3.9591,0.0,0.0,3.8438,0.0,0.0,3.7266,3.674,0.0,3.6,3.5723,3.5476,3.515,3.4074,0.0,0.0,0.0,0.0,3.2037,3.2581,3.2457,3.154,3.2439,0.0,3.2893,0.0,0.0,3.3807,3.3807,3.3807,3.3807,3.3807,3.3423,0.0,3.2352,3.1805,3.119,3.119,0.0,0.0,3.1297,3.1157,3.0909,2.9967,2.9367,2.8817,2.7691,2.7046,2.6691,2.6691,2.6691,2.6623,2.6135,2.601,2.5892,2.5329,2.5194,2.5313,2.5876,2.5822,2.5829,2.6553,2.6535,2.6522,0.0,0.0,0.0,0.0,0.0,0.0,0.0,0.0,0.0,0.0,0.0,0.0,0.0,0.0,0.0,0.0,2.9145,2.9278,2.9389,2.9401,2.9476,0.0,0.0,0.0,2.9706,2.9706,2.9706,2.9706,2.9817,2.9878,2.9867,3.0021,3.009,3.011,3.0186,3.0225,3.0225,3.034,3.0398,3.0398,3.0398,3.0417,3.0467,3.0487,3.1051,3.1904,3.2388,3.3126,3.3984,0.0,0.0,0.0,0.0,0.0,0.0,0.0,3.7693,0.0,3.7143,0.0,3.6275,3.6293,3.5802,3.5183,3.4578,0.0,3.3465,3.3899,3.2207,3.1681,3.2809,3.2173,3.1606,3.1192,3.2047,0.0,0.0,0.0,3.3405,3.3807,3.3807,3.3807,3.3807,3.3807,0.0,0.0,3.2125,3.1506,3.119,3.119,3.119,3.119,3.1067,3.0667,3.0007,2.9132,2.8856,2.8629,2.7182,2.6691,2.6691,2.6691,2.6691,2.664,2.6219,2.6101,2.6,2.5514,2.5397,2.5514,2.5984,2.5749,2.5631,2.6505,2.6387,2.6219,2.664,2.6691,2.6708,0.0,0.0,0.0,0.0,0.0,0.0,0.0,0.0,0.0,0.0,0.0,0.0,0.0,2.8994,2.9108,2.9333,2.9127,2.9182,0.0,0.0,0.0,2.9596,2.9596,2.9596,2.9596,0.0,2.966,2.9652,2.9691,2.9691,2.971,2.9876,2.9966,2.9963,3.0206,3.0302,3.0302,3.0302,3.0321,3.0359,3.0583,3.1172,3.205,3.3064,3.399,3.4855,0.0,0.0,0.0,0.0,0.0,3.7259,3.6474,3.6542,3.6626,3.6552,3.608,3.5757,3.5732,3.5116,3.4628,3.4499,3.3263,0.0,0.0,0.0,0.0,3.1506,3.1681,3.1598,3.1189,3.2037,3.2509,0.0,0.0,3.3405,3.3807,3.3807,3.3807,3.3807,0.0,0.0,3.2557,3.167,0.0,3.119,3.119,3.119,3.114,3.0527,3.0213,2.9928,2.8503,2.7998,2.7895,2.6979,2.6691,2.6691,2.6691,2.6691,2.6674,2.659,2.6573,2.6556,2.6438,2.6438,2.6438,2.6539,2.6522,2.6488,2.6657,2.664,2.659,2.6674,2.6691,2.6809,2.7114,0.0,0.0,0.0,0.0,0.0,0.0,0.0,0.0,0.0,0.0,0.0,0.0,0.0,2.9012,2.9072,0.0,0.0,0.0,0.0,0.0,0.0,2.9127,0.0,0.0,0.0,2.9447,2.9437,2.9625,2.9699,2.9699,2.9739,2.9754,2.9771,2.9809,2.9829,2.9829,2.9829,2.9925,3.0167,3.1114,3.1985,3.2825,3.3769,3.4693,3.5475,0.0,0.0,0.0,0.0,0.0,0.0,0.0,3.4924,0.0,3.5217,3.5028,3.4886,3.4891,3.4303,3.3795,3.3364,3.2706,3.2139,3.1771,3.1382,3.119,3.119,3.1613,0.0,3.1211,3.1812,3.2264,3.2491,0.0,0.0,3.3807,3.3807,3.3807,3.3788,0.0,3.2984,0.0,0.0,0.0,3.119,3.119,3.119,3.114,3.0387,2.9863,2.9377,2.8203,2.7538,2.7182,2.6809,2.6691,2.6691,2.6691,2.6691,2.6691,2.6691,2.6691,2.6691,2.6691,2.6691,2.6691,2.6691,2.6691,2.6691,2.6691,2.6691,2.6691,2.6691,2.6691,2.6809,2.7233,2.7455,0.0,0.0,0.0,0.0,0.0,0.0,0.0,0.0,0.0,0.0,0.0,0.0,0.0,0.0,0.0,0.0,0.0,0.0,0.0,0.0,0.0,0.0,0.0,0.0,0.0,2.9182,2.9297,2.9333,2.9333,2.9485,2.9551,2.9548,2.966,2.9697,2.9697,2.9697,2.9829,3.011,3.1095,3.2076,3.3013,3.3947,3.4845,3.5612,0.0,3.743,0.0,0.0,3.5906,0.0,3.4168,3.3373,3.3202,3.392,3.4028,3.4028,3.4028,3.351,3.2925,3.2344,3.2156,3.1822,3.1224,3.119,3.119,3.119,3.1613,3.1597,3.1219,3.16,3.1981,0.0,0.0,0.0,0.0,3.3441,3.3523,0.0,0.0,0.0,0.0,0.0,3.1314,3.1016,3.1016,3.0999,3.0875,3.0001,2.9296,2.8629,2.7742,2.7097,2.6691,2.6691,2.6691,2.6691,2.6691,2.6691,2.6691,2.6691,2.6691,2.6691,2.6691,2.6691,2.6691,2.6691,2.6691,2.6691,2.6691,2.6691,2.6691,2.6691,2.6691,2.6809,2.7233,2.7216,0.0,0.0,0.0,0.0,0.0,0.0,0.0,0.0,0.0,0.0,0.0,0.0,0.0,0.0,0.0,0.0,0.0,0.0,0.0,0.0,0.0,2.892,2.8994,0.0,2.8994,2.8994,2.8994,2.8994,2.8994,2.92,2.9315,2.9315,2.9485,2.954,2.9559,2.9596,2.9868,3.03,3.1219,3.2225,3.3292,3.4216,3.4979,3.5586,0.0,0.0,0.0,0.0,0.0,0.0,3.3252,3.2173,3.1907,3.3271,3.3465,3.3465,3.3465,3.2849,3.2395,3.2315,3.1681,3.128,3.119,3.119,3.119,3.119,3.1613,3.1623,3.1202,3.1606,3.1822,0.0,0.0,0.0,0.0,3.2301,3.2629,0.0,0.0,0.0,0.0,3.0594,3.0421,3.0387,3.0387,3.0297,3.0074,2.8837,2.8176,2.7759,2.6573,2.6404,2.6691,2.6691,2.6691,2.6691,2.6691,2.6691,2.6691,2.6691,2.6691,2.6691,2.6691,2.6691,2.6691,2.6691,2.6691,2.6691,2.6691,2.6691,2.6691,2.6691,2.6691,2.6809,2.7233,2.701,2.7009,0.0,0.0,0.0,0.0,0.0,0.0,0.0,0.0,0.0,0.0,2.8201,0.0,0.0,0.0,0.0,0.0,0.0,0.0,2.8975,0.0,2.8617,2.8994,2.8994,2.8994,2.8994,2.8994,2.8994,2.8994,2.9035,2.9053,2.9053,2.9072,2.9072,2.909,2.9333,3.0005,3.1014,3.2082,3.3134,3.4164,3.507,3.5435,3.5507,0.0,0.0,0.0,0.0,0.0,0.0,0.0,3.1523,3.1399,3.1998,3.2088,3.2088,3.2088,3.1822,3.1647,3.1647,3.1365,3.119,3.119,3.119,3.119,3.119,3.1348,3.1348,3.119,3.1348,3.154,0.0,0.0,0.0,0.0,0.0,0.0,0.0,0.0,3.0999,3.0499,2.9972,2.9952,3.0231,2.9461,2.9343,2.9438,2.7718,2.6986,2.6802,2.6212,2.6118,2.6303,2.6623,2.6691,2.6691,2.6691,2.6691,2.6691,2.6691,2.6691,2.6691,2.6691,2.6691,2.6691,2.6691,2.6691,2.6691,2.6691,2.6691,2.6691,2.6691,2.6691,2.6759,2.6911,2.6809,2.6809,0.0,0.0,0.0,0.0,0.0,0.0,0.0,0.0,0.0,0.0,0.0,0.0,0.0,0.0,0.0,0.0,0.0,0.0,2.8323,0.0,2.8187,2.8338,2.8338,2.8429,2.8659,2.8659,2.8769,2.8994,2.8994,2.8994,2.8994,2.8994,2.8994,2.9053,2.9655,3.0217,3.0882,3.2297,3.3208,3.3832,3.4865,3.5267,3.5264,3.236,0.0,3.2826,0.0,3.2139,3.2264,3.1331,3.119,3.119,3.119,3.119,3.119,3.119,3.119,3.119,3.119,3.119,3.119,3.119,3.119,3.119,3.119,3.119,0.0,3.119,3.119,3.1331,3.163,3.163,0.0,0.0,0.0,0.0,0.0,3.0999,3.0573,3.0271,2.9673,2.9662,2.9959,2.8848,2.8547,2.8493,2.6726,2.614,2.6166,2.5859,2.5957,2.627,2.6573,2.6691,2.6691,2.6691,2.6691,2.6691,2.6691,2.6691,2.6691,2.6691,2.6691,2.6691,2.6691,2.6691,2.6691,2.6691,2.6691,2.6691,2.6691,2.6691,2.6691,2.6691,2.6691,2.6725,2.6843,0.0,0.0,0.0,0.0,0.0,0.0,2.6691,2.6809,2.7097,0.0,0.0,0.0,0.0,0.0,0.0,0.0,0.0,0.0,0.0,0.0,2.7905,2.7905,2.8012,2.8244,2.8246,2.8453,2.8847,2.8938,2.8994,2.8994,2.8994,2.8994,2.9072,2.9881,3.0507,3.1103,3.247,3.3319,3.3882,3.4687,3.4965,3.5002,3.1896,3.1805,3.1681,3.1297,3.1207,3.1207,3.119,3.119,3.119,3.119,3.119,3.119,3.119,3.119,3.119,3.119,3.119,3.119,3.119,3.119,3.119,0.0,0.0,3.119,3.119,3.119,3.119,3.1207,0.0,0.0,3.0124,0.0,3.051,3.1173,3.0578,3.0299,3.027,2.9662,2.9408,2.9339,2.8692,2.7981,2.7209,2.5963,2.5737,2.592,2.5407,2.586,2.6691,2.6691,2.6691,2.6691,2.6691,2.6691,2.6691,2.6691,2.6691,2.6691,2.6691,2.6691,2.6691,2.6691,2.6691,2.6691,2.6691,2.6691,2.6691,2.6691,2.6691,2.6691,2.6691,2.6691,2.6826,2.7233,0.0,0.0,0.0,0.0,0.0,0.0,2.6691,2.6691,2.6708,0.0,0.0,0.0,0.0,0.0,0.0,0.0,0.0,2.7895,2.752,0.0,2.7911,2.7911,2.7911,2.7911,2.7906,2.8095,2.8411,2.8805,2.8994,2.8994,2.8994,2.8994,2.9072,2.9881,3.0809,3.1864,3.2684,3.3672,3.4678,3.4701,3.4698,3.4713,3.1438,3.1382,3.1348,3.1207,3.119,3.119,3.119,3.119,3.119,3.119,3.119,3.119,3.119,3.119,3.119,0.0,3.119,3.119,0.0,3.119,3.119,3.119,3.119,3.119,3.119,3.119,3.119,3.119,0.0,0.0,0.0,3.0858,3.0982,3.1173,3.0561,3.0065,2.9651,2.9032,2.8522,2.8019,2.6949,2.6306,2.5936,2.4676,2.426,2.4444,2.5006,2.5417,2.5782,2.6455,2.6691,2.6691,2.6691,2.6691,2.6691,2.6691,2.6691,2.6691,2.6691,2.6691,2.6691,2.6691,2.6691,2.6691,2.6691,2.6691,2.6691,2.6691,2.6691,2.6691,2.6691,2.6691,2.6725,2.686,2.6792,0.0,0.0,0.0,0.0,0.0,2.6691,2.6691,0.0,2.6809,0.0,0.0,0.0,0.0,0.0,0.0,0.0,0.0,2.6962,0.0,2.708,2.708,2.7216,2.7487,2.748,2.7804,2.8393,2.8526,2.8732,2.8994,2.8994,2.9315,2.9881,3.0692,3.155,3.2437,3.324,3.3776,3.4104,3.4288,3.4367,3.4401,3.119,3.119,3.119,3.119,3.119,3.119,3.119,3.119,3.119,3.119,3.119,3.119,3.119,3.119,0.0,3.119,3.119,3.119,3.119,3.119,3.119,3.119,3.119,3.119,3.119,3.119,0.0,3.119,3.119,3.119,3.119,3.119,3.119,3.1173,3.0561,3.0095,2.9717,2.9099,2.8323,2.7419,2.635,2.5621,2.5035,2.4008,2.3713,2.3973,2.4671,2.5026,2.5347,2.6152,2.6438,2.6455,2.664,2.6691,2.6691,2.6691,2.6691,2.6691,2.6691,2.6691,2.6691,2.6691,2.6691,2.6691,2.6691,2.6691,2.6691,2.6691,2.6691,2.6691,2.6691,2.6691,2.6691,2.6691,2.6691,2.6691,2.6691,0.0,0.0,0.0,0.0,0.0,0.0,2.6691,2.6691,0.0,0.0,0.0,0.0,0.0,0.0,2.6708,2.6691,0.0,2.6691,2.6691,2.6826,2.708,2.7233,2.7546,2.7987,2.8143,2.8356,2.8599,2.8883,2.9297,2.9839,3.109,3.1909,3.2474,3.3423,3.3807,3.3815,3.3986,3.4043,3.4093,3.119,3.119,3.119,0.0,3.119,0.0,3.119,3.119,3.119,3.119,3.119,3.119,3.119,3.119,3.119,3.119,0.0,0.0,0.0,3.119,3.119,3.119,3.119,3.119,3.119,3.119,3.119,3.119,3.119,3.119,3.119,3.119,3.119,3.1173,3.0561,3.0281,3.0195,2.9564,2.8566,2.7305,2.6701,2.5679,2.4453,2.3831,2.3904,2.4349,2.4364,2.4721,2.5244,2.5763,2.5933,2.6017,2.6438,2.659,2.6623,2.6674,2.6691,2.6691,2.6691,2.6691,2.6691,2.6691,2.6691,2.6691,2.6691,2.6691,2.6691,2.6691,2.6691,2.6691,2.6691,2.6691,2.6691,2.6691,2.6691,2.6691,2.6691,0.0,0.0,0.0,0.0,0.0,0.0,2.6691,2.6691,0.0,0.0,0.0,0.0,0.0,2.6691,2.6691,2.6691,2.6691,2.6691,2.6691,2.6691,2.6691,2.708,2.725,2.7317,2.7674,2.79,2.7991,2.8688,2.9077,2.9345,3.1247,3.2047,3.2246,3.335,3.3807,3.3807,3.3807,3.3807,3.3807,0.0,0.0,3.119,3.119,3.119,3.119,3.119,3.119,3.119,3.119,3.119,3.119,3.119,3.119,3.119,3.119,3.119,3.119,3.119,3.119,3.119,3.119,3.119,3.119,3.119,3.119,3.119,3.119,3.119,3.119,3.119,3.119,3.119,3.1173,3.0561,3.0057,2.957,2.8983,2.767,2.6029,2.5879,2.5019,2.3816,2.3683,2.3683,2.3831,2.4245,2.4468,2.4673,2.5221,2.5379,2.5397,2.5514,2.5547,2.5715,2.6455,2.6691,2.6691,2.6691,2.6691,2.6691,2.6691,2.6691,2.6691,2.6691,2.6691,2.6691,2.6691,2.6691,2.6691,2.6691,2.6691,2.6691,2.6691,2.6691,2.6691,2.6691,2.6691,0.0,0.0,2.6691,2.6691,2.6691,2.6691,2.6691,0.0,0.0,0.0,0.0,2.6691,2.6691,2.6691,2.6691,2.6691,2.6691,2.6691,2.6691,2.6691,2.6809,2.6979,2.73,2.7388,2.7931,2.8749,2.8921,2.9859,3.1305,3.179,3.2545,3.3386,3.3697,3.3807,3.3807,3.3807,3.3807,3.3807,3.119,3.119,3.119,3.119,3.119,3.119,3.119,3.119,3.119,3.119,3.119,3.119,3.119,3.119,3.119,3.119,3.119,3.119,3.119,3.119,3.119,3.119,3.119,3.119,3.119,3.119,3.119,3.119,3.119,3.119,3.119,3.119,3.119,3.119,3.0858,3.0212,2.9371,2.9053,2.764,2.5581,2.5576,2.4795,2.3595,2.3595,2.3595,2.3625,2.3919,2.4023,2.4126,2.4661,2.4848,2.4878,2.5115,2.5201,2.5319,2.5843,2.6201,2.6387,2.6387,2.6539,2.6691,2.6691,2.6691,2.6691,2.6691,2.6691,2.6691,2.6691,2.6691,2.6691,2.6691,2.6691,2.6691,2.6691,2.6691,2.6691,2.6691,2.6691,0.0,2.6691,2.6691,2.6691,2.6691,2.6691,2.6691,2.6691,2.6691,0.0,2.6691,2.6691,2.6691,2.6691,2.6691,2.6691,2.6691,2.6691,2.6691,2.6691,2.6691,2.6809,2.7046,2.7368,2.7878,2.8476,2.9193,3.0119,3.1184,3.1672,3.2268,3.293,3.335,3.3542,3.356,3.3733,3.3807,3.3807,3.119,3.119,3.119,3.119,3.119,3.119,3.119,3.119,3.119,3.119,3.119,3.119,3.119,3.119,3.119,3.119,3.119,3.119,3.119,3.119,3.119,3.119,3.119,3.119,3.119,3.119,3.119,3.119,3.119,3.119,3.119,3.119,3.119,3.119,3.1016,3.0346,2.9399,2.9193,2.7765,2.5581,2.5576,2.4795,2.3595,2.3595,2.3595,2.3595,2.3595,2.3595,2.3683,2.4126,2.426,2.4349,2.4795,2.5004,2.5078,2.4989,2.5433,2.6012,2.5983,2.632,2.6691,2.6691,2.6691,2.6691,2.6691,2.6691,2.6691,2.6691,2.6691,2.6691,2.6691,2.6691,2.6691,2.6691,2.6691,2.6691,2.6691,0.0,2.6691,2.6691,2.6691,2.6691,2.6691,2.6691,2.6691,2.6691,2.6691,2.6691,2.6691,2.6691,2.6691,2.6691,2.6691,2.6691,2.6691,2.6691,2.6691,2.6691,2.6691,2.6775,2.6911,2.7504,2.7913,2.8219,2.9517,3.0213,3.0437,3.1412,3.183,3.1986,3.2788,3.3102,3.3131,3.357,3.3707,3.3707,3.119,3.119,3.119,3.119,3.119,3.119,3.119,3.119,3.119,3.119,3.119,3.119,3.119,3.119,3.119,3.119,3.119,3.119,3.119,3.119,3.119,3.119,3.119,3.119,3.119,3.119,3.119,3.119,3.119,3.119,3.119,3.119,3.119,3.1157,3.0124,2.958,2.9346,2.834,2.7015,2.5581,2.5576,2.4795,2.3595,2.3595,2.3595,2.3595,2.3595,2.3595,2.361,2.3698,2.3713,2.3728,2.3816,2.4141,2.4438,2.3993,2.4844,2.6013,2.5992,2.632,2.6691,2.6691,2.6691,2.6691,2.6691,2.6691,2.6691,2.6691,2.6691,2.6691,2.6691,2.6691,2.6691,2.6691,2.6691,2.6691,2.6691,0.0,2.6691,2.6691,2.6691,2.6691,2.6691,2.6691,2.6691,2.6691,2.6691,2.6691,2.6691,2.6691,2.6691,2.6691,2.6691,2.6691,2.6691,2.6691,2.6691,2.6691,2.6691,2.7046,2.764,2.7759,2.8506,2.9748,3.0012,3.0667,3.1562,3.1751,3.2021,3.2406,3.2547,3.2599,3.2674,3.3118,3.3302,3.3332,3.119,3.119,3.119,3.119,3.119,3.119,3.119,3.119,3.119,3.119,3.119,3.119,3.119,3.119,3.119,3.119,3.119,3.119,3.119,3.119,3.119,3.119,3.119,3.119,3.119,3.119,3.119,3.119,3.119,3.119,3.119,3.119,3.1033,3.0701,3.0124,2.9535,2.8867,2.8327,2.714,2.5581,2.5576,2.4795,2.3595,2.3595,2.3595,2.3595,2.3595,2.3595,2.3595,2.3595,2.3595,2.3595,2.3595,2.3786,2.394,2.3655,2.4541,2.5675,2.6234,2.6539,2.6691,2.6691,2.6691,2.6691,2.6691,2.6691,2.6691,2.6691,2.6691,2.6691,2.6691,2.6691,2.6691,2.6691,2.6691,0.0,0.0,2.6691,2.6691,2.6691,2.6691,2.6691,2.6691,2.6691,2.659,2.632,2.6556,2.6573,2.632,2.6556,2.6691,2.6691,2.6691,2.6691,2.6691,2.6691,2.6691,2.6691,2.7097,2.747,2.7827,2.8657,2.9421,3.0124,3.0527,3.0999,3.1489,3.1489,3.1613,3.1822,3.2032,3.229,3.2561,3.3041,3.3327,3.355,3.119,3.119,3.119,3.119,3.119,3.119,3.119,3.119,3.119,3.119,3.119,3.119,3.119,3.119,3.119,3.119,3.119,3.119,3.119,3.119,3.119,3.119,3.119,3.119,3.119,3.119,3.119,3.119,3.119,3.114,3.0999,3.0999,3.0684,3.0068,2.9955,2.9361,2.8505,2.8364,2.7324,2.5798,2.5667,2.4884,2.3816,2.3683,2.3595,2.3595,2.3595,2.3595,2.3595,2.3595,2.3595,2.3595,2.3595,2.3698,2.3773,2.3644,2.4354,2.5414,2.6421,2.6691,2.6691,2.6691,2.6691,2.6691,2.6691,2.6691,2.6691,2.6691,2.6691,2.6691,2.6691,2.6691,2.6691,2.6691,0.0,0.0,0.0,2.6691,2.6657,2.6539,2.664,2.6623,2.6387,2.6438,2.632,2.5866,2.6264,2.6397,2.6034,2.6438,2.6691,2.6691,2.6691,2.6691,2.6691,2.6691,2.6792,2.6962,2.7521,2.7998,2.8371,2.9551,3.0213,3.0387,3.0965,3.119,3.119,3.119,3.119,3.1224,3.1523,3.1856,3.2261,3.2733,3.3081,3.3343,3.119,3.119,3.119,3.119,3.119,3.119,3.119,3.119,3.119,3.119,3.119,3.119,3.119,3.119,3.119,3.119,3.119,3.119,3.119,3.119,3.119,3.119,3.119,3.119,3.119,3.119,3.119,3.119,3.119,3.0892,3.0387,3.0387,3.0057,2.9436,2.8904,2.8595,2.844,2.7906,2.725,2.6465,2.5864,2.5155,2.4453,2.3831,2.3595,2.3595,2.3595,2.3595,2.3595,2.3595,2.3595,2.3595,2.3595,2.3934,2.4258,2.3736,2.4363,2.5414,2.6421,2.6691,2.6691,2.6691,2.6691,2.6691,2.6691,2.6691,2.6691,2.6691,2.6691,2.6691,2.6691,2.6691,2.6691,2.6691,0.0,0.0,2.6691,2.6691,2.6539,2.6118,2.6438,2.632,2.5397,2.5765,2.5849,2.528,2.575,2.6023,2.6,2.6438,2.6691,2.6691,2.6691,2.6691,2.6691,2.6691,2.7046,2.7742,2.7776,2.8557,2.9928,3.004,3.0454,3.114,3.1173,3.119,3.119,3.119,3.119,3.119,3.1224,3.128,3.1359,3.1757,3.1917,3.2022,3.119,3.119,3.119,3.119,3.119,3.119,3.119,3.119,3.119,3.119,3.119,3.119,3.119,3.119,3.119,3.119,3.119,3.119,3.119,3.119,3.119,3.119,3.119,3.119,3.119,3.119,3.119,3.119,3.0842,3.0527,3.0297,2.9907,2.9404,2.8825,2.859,2.8283,2.7921,2.7685,2.7184,2.6598,2.6314,2.5591,2.4572,2.4334,2.3934,2.3595,2.3595,2.3595,2.3595,2.3595,2.3595,2.3595,2.3595,2.3728,2.3919,2.4038,2.4642,2.5342,2.6064,2.6488,2.6691,2.6691,2.6691,2.6691,2.6691,2.6691,2.6691,2.6691,2.6691,2.6691,2.6691,2.6691,2.6691,2.6691,0.0,2.659,2.6303,2.627,2.6101,2.5547,2.5668,2.5605,2.5262,2.5378,2.529,2.4729,2.5201,2.5368,2.5028,2.5799,2.6404,2.6691,2.6691,2.6691,2.6691,2.7131,2.7521,2.781,2.8757,2.9517,3.0124,3.0561,3.0926,3.119,3.119,3.119,3.119,3.119,3.119,3.119,3.119,3.1348,3.1579,3.1726,3.1977,3.23,3.119,3.119,3.119,3.119,3.119,3.119,3.119,3.119,3.119,3.119,3.119,3.119,3.119,3.119,3.119,3.119,3.119,3.119,3.119,3.119,3.119,3.119,3.119,3.1123,3.0909,3.0909,3.0825,3.0611,3.023,2.9928,2.9723,2.931,2.8789,2.8238,2.8238,2.8001,2.7625,2.7625,2.7309,2.6905,2.6686,2.6069,2.5198,2.4996,2.4646,2.423,2.423,2.423,2.423,2.423,2.423,2.423,2.423,2.423,2.4245,2.4438,2.4854,2.5306,2.545,2.5866,2.6286,2.664,2.6691,2.6691,2.6691,2.6691,2.6691,2.6691,2.6691,2.6657,2.6522,2.6488,2.6421,2.627,2.6236,2.6118,2.5782,2.5771,2.5562,2.5005,2.5105,2.5088,2.4724,2.4842,2.475,2.4215,2.4661,2.4875,2.4664,2.5526,2.6169,2.6539,2.6539,2.664,2.6843,2.7487,2.8032,2.854,2.9585,3.023,3.0454,3.0982,3.119,3.119,3.119,3.119,3.119,3.119,3.119,3.119,3.119,3.1365,3.1613,3.1613,3.1822,3.2171,3.119,3.119,3.119,3.119,3.119,3.119,3.119,3.119,3.119,3.119,3.119,3.119,3.119,3.119,3.119,3.119,3.119,3.119,3.119,3.119,3.119,3.119,3.119,3.0909,3.0297,3.0297,3.0001,2.9409,2.9409,2.9076,2.8505,2.8505,2.8157,2.7625,2.7625,2.7625,2.7625,2.7625,2.7625,2.753,2.6905,2.6592,2.653,2.5864,2.5605,2.5605,2.5605,2.5605,2.5605,2.5605,2.5605,2.5605,2.5605,2.5605,2.5484,2.4811,2.5004,2.5274,2.4612,2.4813,2.5447,2.6438,2.6691,2.6691,2.6691,2.6691,2.6691,2.6691,2.6691,2.6539,2.6101,2.6,2.5816,2.5296,2.5196,2.5196,2.5179,2.5187,2.4989,2.4453,2.4869,2.478,2.3698,2.4096,2.4157,2.3625,2.4111,2.4646,2.5182,2.5701,2.6068,2.6202,2.6219,2.6522,2.7199,2.7589,2.8591,3.009,3.0107,3.051,3.119,3.119,3.119,3.119,3.119,3.119,3.119,3.119,3.119,3.119,3.119,3.119,3.119,3.119,3.119,3.1309,3.119,3.119,3.119,3.119,3.119,3.119,3.119,3.119,3.119,3.119,3.119,3.119,3.119,3.119,3.119,3.119,3.119,3.119,3.119,3.119,3.1016,3.0578,3.0982,3.0909,3.0297,3.0308,2.999,2.9407,2.8999,2.868,2.8505,2.8047,2.7765,2.7625,2.7625,2.7625,2.7625,2.7625,2.7625,2.756,2.739,2.703,2.6598,2.64,2.6009,2.5579,2.5579,2.5579,2.5579,2.5579,2.5579,2.5579,2.5579,2.5579,2.5564,2.5349,2.5697,2.6049,2.5876,2.6174,2.6548,2.6265,2.6219,2.6219,2.6219,2.6219,2.6118,2.5732,2.5648,2.5615,2.5464,2.5443,2.5368,2.5233,2.5201,2.5082,2.467,2.4641,2.4438,2.3904,2.3993,2.3934,2.361,2.3728,2.3786,2.361,2.3728,2.4076,2.46,2.5249,2.5782,2.6174,2.6654,2.7239,2.7964,2.8509,2.8992,2.9482,3.0421,3.0999,3.119,3.119,3.119,3.119,3.119,3.119,3.119,3.119,3.119,3.119,3.119,3.119,3.119,3.119,3.1533,3.2049,3.119,3.119,3.119,3.119,3.119,3.119,3.119,3.119,3.119,3.119,3.119,3.119,3.119,3.119,3.119,3.119,3.119,3.119,3.119,3.119,3.0909,3.0314,3.0625,3.0441,2.9599,2.961,2.9296,2.8677,2.8299,2.8142,2.8142,2.7765,2.7625,2.7625,2.7625,2.7625,2.7625,2.7625,2.7625,2.7625,2.7625,2.7375,2.7015,2.7015,2.6716,2.6373,2.6373,2.6373,2.6373,2.6373,2.6373,2.6373,2.6373,2.6373,2.6344,2.6082,2.6255,2.6413,2.6168,2.6306,2.6488,2.6233,2.6131,2.6017,2.5749,2.5683,2.5572,2.5271,2.5185,2.5153,2.4933,2.4883,2.4795,2.4587,2.4572,2.4453,2.4126,2.4096,2.3934,2.3625,2.3595,2.3595,2.3595,2.3595,2.3595,2.3595,2.4038,2.4348,2.4489,2.5331,2.5978,2.6367,2.6722,2.7294,2.8017,2.8605,2.9186,2.9655,3.0701,3.119,3.119,3.119,3.119,3.119,3.119,3.119,3.119,3.119,3.119,3.119,3.119,3.119,3.1224,3.1523,3.1928,3.2421,3.119,3.119,3.119,3.119,3.119,3.119,3.119,3.119,3.119,3.119,3.119,3.119,3.119,3.119,3.119,3.119,3.119,3.1173,3.114,3.114,3.0842,3.0157,3.013,2.9612,2.8428,2.8451,2.8173,2.7625,2.7625,2.7625,2.7625,2.7625,2.7625,2.7625,2.7625,2.7625,2.7625,2.7625,2.7545,2.7515,2.756,2.7545,2.7515,2.756,2.7625,2.7625,2.7625,2.7625,2.7625,2.7625,2.7625,2.7625,2.7625,2.7625,2.75,2.6891,2.6686,2.6562,2.5958,2.577,2.5879,2.6329,2.6334,2.606,2.5459,2.5265,2.5213,2.5139,2.5109,2.49,2.4438,2.4334,2.4157,2.3683,2.3595,2.3595,2.3595,2.3595,2.3595,2.3595,2.3595,2.3595,2.3595,2.3668,2.3698,2.3698,2.4765,2.5216,2.4712,2.5808,2.6459,2.6612,2.6672,2.6965,2.756,2.8173,2.9045,3.0141,3.0825,3.114,3.114,3.1173,3.119,3.119,3.119,3.119,3.119,3.119,3.119,3.119,3.119,3.119,3.1297,3.2015,3.2347,3.2588,3.119,3.119,3.119,3.119,3.119,3.119,3.119,3.119,3.119,3.119,3.119,3.119,3.119,3.119,3.119,3.119,3.119,3.0999,3.0544,3.051,3.0001,2.8942,2.8888,2.8568,2.7806,2.8286,2.8173,2.7625,2.7625,2.7625,2.7625,2.7625,2.7625,2.7625,2.7625,2.7625,2.7625,2.7625,2.728,2.6796,2.739,2.7265,2.6811,2.739,2.7625,2.7625,2.7625,2.7625,2.7625,2.7625,2.7625,2.7625,2.7625,2.7625,2.756,2.7419,2.739,2.7375,2.7184,2.717,2.706,2.6672,2.6527,2.6474,2.6209,2.5748,2.5229,2.4811,2.4319,2.3904,2.3801,2.3786,2.3728,2.361,2.3595,2.3595,2.3595,2.3595,2.3595,2.3595,2.3595,2.3595,2.3595,2.4096,2.4364,2.4364,2.5109,2.5515,2.5404,2.6105,2.6574,2.6577,2.714,2.7434,2.7625,2.8173,2.8623,2.8909,2.9967,3.051,3.0527,3.0982,3.119,3.119,3.119,3.119,3.119,3.119,3.119,3.119,3.119,3.119,3.1297,3.2015,3.2671,3.3367,3.119,3.119,3.119,3.119,3.119,3.119,3.119,3.119,3.119,3.119,3.119,3.119,3.119,3.119,3.1067,3.0825,3.0527,3.0213,2.99,2.9884,2.9464,2.8529,2.8491,2.8238,2.7625,2.7906,2.7906,2.7625,2.7625,2.7625,2.7625,2.7625,2.7625,2.7625,2.7625,2.7625,2.756,2.7199,2.706,2.7054,2.7054,2.7055,2.706,2.7434,2.7625,2.7625,2.7625,2.7625,2.7625,2.7625,2.7625,2.7625,2.7625,2.7625,2.7625,2.7625,2.7625,2.7625,2.7625,2.7625,2.753,2.717,2.706,2.6907,2.6161,2.5723,2.5424,2.5144,2.4795,2.4557,2.4557,2.4557,2.4557,2.4557,2.4557,2.4557,2.4557,2.4557,2.4557,2.4557,2.4557,2.4557,2.4557,2.4884,2.5089,2.5057,2.5693,2.6078,2.6067,2.6701,2.706,2.706,2.7419,2.7625,2.7625,2.7906,2.8051,2.8094,2.9291,2.9874,2.9861,3.0213,3.0353,3.0353,3.0353,3.0353,3.0353,3.0353,3.0527,3.0752,3.0752,3.1157,3.1805,3.2525,3.3532,3.4578,3.119,3.119,3.119,3.119,3.119,3.119,3.119,3.119,3.119,3.119,3.1123,3.105,3.105,3.0965,3.0683,3.0162,2.9667,2.9354,2.9231,2.925,2.8996,2.8379,2.8364,2.8127,2.7625,2.7625,2.7625,2.7625,2.7625,2.7625,2.7625,2.7625,2.7625,2.7625,2.7625,2.753,2.739,2.6781,2.6696,2.7024,2.6623,2.6803,2.7265,2.7515,2.7625,2.7625,2.7625,2.7625,2.7625,2.7625,2.7625,2.7625,2.7625,2.7625,2.7625,2.7625,2.7625,2.7625,2.7625,2.7625,2.7625,2.7625,2.7625,2.7294,2.6205,2.5864,2.5756,2.5758,2.5693,2.5603,2.5603,2.5603,2.5603,2.5603,2.5603,2.5603,2.5603,2.5603,2.5603,2.5603,2.5603,2.5603,2.5603,2.5708,2.5757,2.5748,2.6373,2.6781,2.6781,2.7294,2.7625,2.7625,2.7625,2.7625,2.7625,2.7625,2.7625,2.7625,2.8632,2.9124,2.9231,2.9354,2.9387,2.9387,2.9387,2.9461,2.9568,2.9568,2.9914,3.0443,3.0599,3.1331,3.24,3.3265,3.4432,3.5622,3.119,3.119,3.119,3.119,3.119,3.119,3.119,3.119,3.119,3.119,3.0735,3.0421,3.0421,2.9967,2.9599,2.9529,2.9461,2.9193,2.8673,2.861,2.8364,2.7765,2.7735,2.767,2.7625,2.7625,2.7625,2.7625,2.7625,2.7625,2.7625,2.7625,2.7625,2.7625,2.7625,2.7265,2.6657,2.6547,2.5816,2.4864,2.6023,2.6177,2.5864,2.714,2.7625,2.7625,2.7625,2.7625,2.7625,2.7625,2.7625,2.7625,2.7625,2.7625,2.7625,2.7625,2.7625,2.7625,2.7625,2.7625,2.7625,2.7625,2.7625,2.7545,2.739,2.6905,2.6474,2.6476,2.6017,2.5599,2.5599,2.5599,2.5599,2.5599,2.5599,2.5599,2.5599,2.5599,2.5599,2.5599,2.5599,2.5599,2.5599,2.614,2.6456,2.6453,2.7075,2.7434,2.7434,2.7545,2.7625,2.7625,2.7625,2.7625,2.7625,2.7625,2.7625,2.7625,2.7765,2.8106,2.8658,2.9177,2.9381,2.9381,2.9381,2.9715,3.0174,3.0174,3.0541,3.115,3.1767,3.2139,3.2463,3.3828,3.4863,3.5622,3.119,3.119,3.119,3.119,3.119,3.119,3.119,3.119,3.119,3.119,3.0982,3.0683,3.0335,2.9476,2.8889,2.8889,2.8617,2.8283,2.8017,2.8017,2.7891,2.7625,2.7625,2.7625,2.7625,2.7625,2.7625,2.7625,2.7625,2.7405,2.7015,2.7015,2.6781,2.6358,2.6358,2.6205,2.5872,2.545,2.5131,2.4964,2.5597,2.5926,2.6126,2.7184,2.7625,2.7625,2.7625,2.7625,2.7625,2.7625,2.7625,2.7625,2.7625,2.7625,2.7625,2.7625,2.7625,2.7625,2.7625,2.7625,2.7625,2.7625,2.7625,2.7625,2.7625,2.739,2.717,2.717,2.692,2.6701,2.6701,2.6701,2.6701,2.6701,2.6701,2.6701,2.6701,2.6701,2.6701,2.6701,2.6701,2.6701,2.6701,2.6965,2.717,2.717,2.7419,2.7625,2.7625,2.7625,2.7625,2.7625,2.7625,2.7625,2.7625,2.7625,2.7625,2.7625,2.7625,2.775,2.8017,2.8268,2.8394,2.8394,2.8394,2.8536,2.8843,2.9605,3.0271,3.0926,3.1996,3.2876,3.3668,3.4711,3.5313,3.5622]},{"header":{"parameterUnit":"m.s-1","parameterCategory":1,"la1":30.6,"la2":28.766,"lo1":-90.7593,"lo2":-88.6598,"dy":0.0162,"dx":0.0183,"nx":116,"ny":114,"refTime":"2023-10-02T06:00:00:Z","depth":0,"parameterNumber":3,"parameterNumberName":"V-component_of_WINDS"},"data":[0.0,0.0,0.0,0.0,0.0,0.0,0.0,0.0,0.0,0.0,0.0,0.0,0.0,0.0,0.0,0.0,0.0,0.0,0.0,0.0,0.0,0.0,0.0,0.0,0.0,0.0,0.0,0.0,0.0,0.0,0.0,0.0,0.0,0.0,0.0,0.0,0.0,0.0,0.0,0.0,0.0,0.0,0.0,0.0,0.0,0.0,0.0,0.0,0.0,0.0,0.0,0.0,0.0,0.0,0.0,0.0,0.0,0.0,0.0,0.0,0.0,0.0,0.0,0.0,0.0,0.0,0.0,0.0,0.0,0.0,0.0,0.0,0.0,0.0,0.0,0.0,0.0,0.0,0.0,0.0,0.0,0.0,0.0,0.0,0.0,0.0,0.0,0.0,0.0,0.0,0.0,0.0,0.0,0.0,0.0,0.0,0.0,0.0,0.0,0.0,0.0,0.0,0.0,0.0,0.0,0.0,0.0,0.0,0.0,0.0,0.0,0.0,0.0,0.0,0.0,0.0,0.0,0.0,0.0,0.0,0.0,0.0,0.0,0.0,0.0,0.0,0.0,0.0,0.0,0.0,0.0,0.0,0.0,0.0,0.0,0.0,0.0,0.0,0.0,0.0,0.0,0.0,0.0,0.0,0.0,0.0,0.0,0.0,0.0,0.0,0.0,0.0,0.0,0.0,0.0,0.0,0.0,0.0,0.0,0.0,0.0,0.0,0.0,0.0,0.0,0.0,0.0,0.0,0.0,0.0,0.0,0.0,0.0,0.0,0.0,0.0,0.0,0.0,0.0,0.0,0.0,0.0,0.0,0.0,0.0,0.0,0.0,0.0,0.0,0.0,0.0,0.0,0.0,0.0,0.0,0.0,0.0,0.0,0.0,0.0,0.0,0.0,0.0,0.0,0.0,0.0,0.0,0.0,0.0,0.0,0.0,0.0,0.0,0.0,0.0,0.0,0.0,0.0,0.0,0.0,0.0,0.0,0.0,0.0,0.0,0.0,0.0,0.0,0.0,0.0,0.0,0.0,0.0,0.0,0.0,0.0,0.0,0.0,0.0,0.0,0.0,0.0,0.0,0.0,0.0,0.0,0.0,0.0,0.0,0.0,0.0,0.0,0.0,0.0,0.0,0.0,0.0,0.0,0.0,0.0,0.0,0.0,0.0,0.0,0.0,0.0,0.0,0.0,0.0,0.0,0.0,0.0,0.0,0.0,0.0,0.0,0.0,0.0,0.0,0.0,0.0,0.0,0.0,0.0,0.0,0.0,0.0,0.0,0.0,0.0,0.0,0.0,0.0,0.0,0.0,0.0,0.0,0.0,0.0,0.0,0.0,0.0,0.0,0.0,0.0,0.0,0.0,0.0,0.0,0.0,0.0,0.0,0.0,0.0,0.0,0.0,0.0,0.0,0.0,0.0,0.0,0.0,0.0,0.0,0.0,0.0,0.0,0.0,0.0,0.0,0.0,0.0,0.0,0.0,0.0,0.0,0.0,0.0,0.0,0.0,0.0,0.0,0.0,0.0,0.0,0.0,0.0,0.0,0.0,0.0,0.0,0.0,0.0,0.0,0.0,0.0,0.0,0.0,0.0,0.0,0.0,0.0,0.0,0.0,0.0,0.0,0.0,0.0,0.0,0.0,0.0,0.0,0.0,0.0,0.0,0.0,0.0,0.0,0.0,0.0,0.0,0.0,0.0,0.0,0.0,0.0,0.0,0.0,0.0,0.0,0.0,0.0,0.0,0.0,0.0,0.0,0.0,0.0,0.0,0.0,0.0,0.0,0.0,0.0,0.0,0.0,0.0,0.0,0.0,0.0,0.0,0.0,0.0,0.0,0.0,0.0,0.0,0.0,0.0,0.0,0.0,0.0,0.0,0.0,0.0,0.0,0.0,0.0,0.0,0.0,0.0,0.0,0.0,0.0,0.0,0.0,0.0,0.0,0.0,0.0,0.0,0.0,0.0,0.0,0.0,0.0,0.0,0.0,0.0,0.0,0.0,0.0,0.0,0.0,0.0,0.0,0.0,0.0,0.0,0.0,0.0,0.0,0.0,0.0,0.0,0.0,0.0,0.0,0.0,0.0,0.0,0.0,0.0,0.0,0.0,0.0,0.0,0.0,0.0,0.0,0.0,0.0,0.0,0.0,0.0,0.0,0.0,0.0,0.0,0.0,0.0,0.0,0.0,0.0,0.0,0.0,0.0,0.0,0.0,0.0,0.0,0.0,0.0,0.0,0.0,0.0,0.0,0.0,0.0,0.0,0.0,0.0,0.0,0.0,0.0,0.0,0.0,0.0,0.0,0.0,0.0,0.0,0.0,0.0,0.0,0.0,0.0,0.0,0.0,0.0,0.0,0.0,0.0,0.0,0.0,0.0,0.0,0.0,0.0,0.0,0.0,0.0,0.0,0.0,0.0,0.0,0.0,0.0,0.0,0.0,0.0,0.0,0.0,0.0,0.0,0.0,0.0,0.0,0.0,0.0,0.0,0.0,0.0,0.0,0.0,0.0,0.0,0.0,0.0,0.0,0.0,0.0,0.0,0.0,0.0,0.0,0.0,0.0,0.0,0.0,0.0,0.0,0.0,0.0,0.0,0.0,0.0,0.0,0.0,0.0,0.0,0.0,0.0,0.0,0.0,0.0,0.0,0.0,0.0,0.0,0.0,0.0,0.0,0.0,0.0,0.0,0.0,0.0,0.0,0.0,0.0,0.0,0.0,0.0,0.0,0.0,0.0,0.0,0.0,0.0,0.0,0.0,0.0,0.0,0.0,0.0,0.0,0.0,0.0,0.0,0.0,0.0,0.0,0.0,0.0,0.0,0.0,0.0,0.0,0.0,0.0,0.0,0.0,0.0,0.0,0.0,0.0,0.0,0.0,0.0,0.0,0.0,0.0,0.0,0.0,0.0,0.0,0.0,0.0,0.0,0.0,0.0,0.0,0.0,0.0,0.0,0.0,0.0,0.0,0.0,0.0,0.0,0.0,0.0,0.0,0.0,0.0,0.0,0.0,0.0,0.0,0.0,0.0,0.0,0.0,0.0,0.0,0.0,0.0,0.0,0.0,0.0,0.0,0.0,0.0,0.0,0.0,0.0,0.0,0.0,0.0,0.0,0.0,0.0,0.0,0.0,0.0,0.0,0.0,0.0,0.0,0.0,0.0,0.0,0.0,0.0,0.0,0.0,0.0,0.0,0.0,0.0,0.0,0.0,0.0,0.0,0.0,0.0,0.0,0.0,0.0,0.0,0.0,0.0,0.0,0.0,0.0,0.0,0.0,0.0,0.0,0.0,0.0,0.0,0.0,0.0,0.0,0.0,0.0,0.0,0.0,0.0,0.0,0.0,0.0,0.0,0.0,0.0,0.0,0.0,0.0,0.0,0.0,0.0,0.0,0.0,0.0,0.0,0.0,0.0,0.0,0.0,0.0,0.0,0.0,0.0,0.0,0.0,0.0,0.0,0.0,0.0,0.0,0.0,0.0,0.0,0.0,0.0,0.0,0.0,0.0,0.0,0.0,0.0,0.0,0.0,0.0,0.0,0.0,0.0,0.0,0.0,0.0,0.0,0.0,0.0,0.0,0.0,0.0,0.0,0.0,0.0,0.0,0.0,0.0,0.0,0.0,0.0,0.0,0.0,0.0,0.0,0.0,0.0,0.0,0.0,0.0,0.0,0.0,0.0,0.0,0.0,0.0,0.0,0.0,0.0,0.0,0.0,0.0,0.0,0.0,0.0,0.0,0.0,0.0,0.0,0.0,0.0,0.0,0.0,0.0,0.0,0.0,0.0,0.0,0.0,0.0,0.0,0.0,0.0,0.0,0.0,0.0,0.0,0.0,0.0,0.0,0.0,0.0,0.0,0.0,0.0,0.0,0.0,0.0,0.0,0.0,0.0,0.0,0.0,0.0,0.0,0.0,0.0,0.0,0.0,0.0,0.0,0.0,0.0,0.0,0.0,0.0,0.0,0.0,0.0,0.0,0.0,0.0,0.0,0.0,0.0,0.0,0.0,0.0,0.0,0.0,0.0,0.0,0.0,0.0,0.0,0.0,0.0,0.0,0.0,0.0,0.0,0.0,0.0,0.0,0.0,0.0,0.0,0.0,0.0,0.0,0.0,0.0,0.0,0.0,0.0,0.0,0.0,0.0,0.0,0.0,0.0,0.0,0.0,0.0,0.0,0.0,0.0,0.0,0.0,0.0,0.0,0.0,0.0,0.0,0.0,0.0,0.0,0.0,0.0,0.0,0.0,0.0,0.0,0.0,0.0,0.0,0.0,0.0,0.0,0.0,0.0,0.0,0.0,0.0,0.0,0.0,0.0,0.0,0.0,0.0,0.0,0.0,0.0,0.0,0.0,0.0,0.0,0.0,0.0,0.0,0.0,0.0,0.0,0.0,0.0,0.0,0.0,0.0,0.0,0.0,0.0,0.0,0.0,0.0,0.0,0.0,0.0,0.0,0.0,0.0,0.0,0.0,0.0,0.0,0.0,0.0,0.0,0.0,0.0,0.0,0.0,0.0,0.0,0.0,0.0,0.0,0.0,0.0,0.0,0.0,0.0,0.0,0.0,0.0,0.0,0.0,0.0,0.0,0.0,0.0,0.0,0.0,0.0,0.0,0.0,0.0,0.0,0.0,0.0,0.0,0.0,0.0,0.0,0.0,0.0,0.0,0.0,0.0,0.0,0.0,0.0,0.0,0.0,0.0,0.0,0.0,0.0,0.0,0.0,0.0,0.0,0.0,0.0,0.0,0.0,0.0,0.0,0.0,0.0,0.0,0.0,0.0,0.0,0.0,0.0,0.0,0.0,0.0,0.0,0.0,0.0,0.0,0.0,0.0,0.0,0.0,0.0,0.0,0.0,0.0,0.0,0.0,0.0,0.0,0.0,0.0,0.0,0.0,0.0,0.0,0.0,0.0,0.0,0.0,0.0,0.0,0.0,0.0,0.0,0.0,0.0,0.0,0.0,0.0,0.0,0.0,0.0,0.0,0.0,0.0,0.0,0.0,0.0,0.0,0.0,0.0,0.0,0.0,0.0,0.0,0.0,0.0,0.0,0.0,0.0,0.0,0.0,0.0,0.0,0.0,0.0,0.0,0.0,0.0,0.0,0.0,0.0,0.0,0.0,0.0,0.0,0.0,0.0,0.0,0.0,0.0,0.0,0.0,0.0,0.0,0.0,0.0,0.0,0.0,0.0,0.0,0.0,0.0,0.0,0.0,0.0,0.0,0.0,0.0,0.0,0.0,0.0,0.0,0.0,0.0,0.0,0.0,0.0,0.0,0.0,0.0,0.0,0.0,0.0,0.0,0.0,0.0,0.0,0.0,0.0,0.0,0.0,0.0,0.0,0.0,0.0,0.0,0.0,0.0,0.0,0.0,0.0,0.0,0.0,0.0,0.0,0.0,0.0,0.0,0.0,0.0,0.0,0.0,0.0,0.0,0.0,0.0,0.0,0.0,0.0,0.0,0.0,0.0,0.0,0.0,0.0,0.0,0.0,0.0,0.0,0.0,0.0,0.0,0.0,0.0,0.0,0.0,0.0,0.0,0.0,0.0,0.0,0.0,0.0,0.0,0.0,0.0,0.0,0.0,0.0,0.0,0.0,0.0,0.0,0.0,0.0,0.0,0.0,0.0,0.0,0.0,0.0,0.0,0.0,0.0,0.0,0.0,0.0,0.0,0.0,0.0,0.0,0.0,0.0,0.0,0.0,0.0,0.0,0.0,0.0,0.0,0.0,0.0,0.0,0.0,0.0,0.0,0.0,0.0,0.0,0.0,0.0,0.0,0.0,0.0,0.0,0.0,0.0,0.0,0.0,0.0,0.0,0.0,0.0,0.0,0.0,0.0,0.0,0.0,0.0,0.0,0.0,0.0,0.0,0.0,0.0,0.0,0.0,0.0,0.0,0.0,0.0,0.0,0.0,0.0,0.0,0.0,0.0,0.0,0.0,0.0,0.0,0.0,0.0,0.0,0.0,0.0,0.0,0.0,0.0,0.0,0.0,0.0,0.0,0.0,0.0,0.0,0.0,0.0,0.0,0.0,0.0,0.0,0.0,0.0,0.0,0.0,0.0,0.0,0.0,0.0,0.0,0.0,0.0,0.0,0.0,0.0,0.0,-2.2134,0.0,0.0,0.0,0.0,0.0,0.0,0.0,0.0,0.0,0.0,0.0,0.0,0.0,0.0,0.0,0.0,0.0,0.0,0.0,0.0,0.0,0.0,0.0,0.0,0.0,0.0,0.0,0.0,0.0,0.0,0.0,0.0,0.0,0.0,0.0,0.0,0.0,0.0,-0.892,-0.891,-0.8897,-0.8876,-0.8866,-0.8856,-0.8954,0.0,0.0,0.0,0.0,0.0,0.0,0.0,0.0,0.0,0.0,0.0,0.0,0.0,0.0,0.0,0.0,0.0,0.0,0.0,0.0,0.0,0.0,0.0,0.0,0.0,0.0,0.0,0.0,0.0,0.0,0.0,0.0,0.0,0.0,0.0,0.0,0.0,0.0,0.0,0.0,0.0,0.0,0.0,0.0,0.0,0.0,0.0,0.0,0.0,0.0,0.0,0.0,0.0,0.0,0.0,0.0,0.0,0.0,0.0,0.0,0.0,0.0,0.0,0.0,0.0,0.0,0.0,0.0,0.0,0.0,0.0,-2.3124,0.0,0.0,0.0,0.0,0.0,0.0,0.0,0.0,0.0,0.0,0.0,0.0,0.0,0.0,0.0,0.0,0.0,0.0,0.0,0.0,0.0,0.0,0.0,0.0,0.0,0.0,0.0,0.0,0.0,0.0,0.0,0.0,0.0,0.0,0.0,0.0,-0.2463,-0.7334,-0.731,-0.7301,-0.7304,-0.7301,-0.7859,-0.8866,-0.8954,0.0,0.0,0.0,0.0,0.0,0.0,0.0,0.0,0.0,0.0,0.0,0.0,0.0,0.0,0.0,0.0,0.0,0.0,0.0,0.0,0.0,0.0,0.0,0.0,0.0,0.0,0.0,0.0,0.0,0.0,0.0,0.0,0.0,0.0,0.0,0.0,0.0,0.0,0.0,0.0,0.0,0.0,0.0,0.0,0.0,0.0,0.0,0.0,0.0,0.0,0.0,0.0,0.0,0.0,0.0,0.0,0.0,0.0,0.0,0.0,0.0,0.0,0.0,-1.8045,-1.8824,-1.8913,-1.9698,-2.1244,-2.3105,-2.3063,-2.3111,-2.3053,0.0,0.0,0.0,0.0,0.0,0.0,0.0,0.0,0.0,0.0,0.0,0.0,0.0,0.0,0.0,0.0,0.0,0.0,0.0,0.0,0.0,0.0,0.0,0.0,0.0,0.0,0.0,0.0,0.0,0.0,0.0,0.0,0.0,0.0,0.0,-0.0336,-0.1118,-0.1117,-0.1118,-0.1121,-0.1118,-0.3914,-0.889,-0.8866,-0.8846,-0.894,0.0,0.0,0.0,0.0,0.0,0.0,0.0,0.0,0.0,0.0,0.0,0.0,0.0,0.0,0.0,0.0,0.0,0.0,0.0,0.0,0.0,0.0,0.0,0.0,0.0,0.0,0.0,0.0,0.0,0.0,0.0,0.0,0.0,0.0,0.0,0.0,0.0,0.0,0.0,0.0,0.0,-1.2639,-1.5159,0.0,0.0,0.0,0.0,0.0,0.0,0.0,0.0,0.0,0.0,0.0,0.0,0.0,-1.5765,-1.5817,-1.6095,-1.7246,-1.897,-1.7191,-1.6309,-1.6421,-2.0732,-2.2809,-2.3138,-2.3127,0.0,-2.3096,-2.3067,0.0,0.0,0.0,0.0,0.0,0.0,0.0,0.0,0.0,0.0,0.0,0.0,0.0,0.0,0.0,0.0,0.0,0.0,0.0,0.0,0.0,0.0,0.0,0.0,0.0,0.0,0.0,0.0,0.0,0.0,0.0,0.0,0.0,0.0,0.0,0.0,0.0,0.0,0.0,0.0,-0.1342,-0.4023,-0.7402,-0.8863,-0.894,-0.894,0.0,0.0,0.0,0.0,0.0,0.0,0.0,0.0,0.0,0.0,0.0,0.0,0.0,0.0,0.0,0.0,0.0,0.0,0.0,0.0,0.0,0.0,0.0,0.0,0.0,0.0,0.0,0.0,0.0,0.0,0.0,0.0,0.0,0.0,0.0,0.0,0.0,0.0,0.0,-1.481,-1.4475,-1.5708,-1.581,-1.5783,0.0,0.0,0.0,0.0,0.0,0.0,0.0,0.0,0.0,-1.5832,-1.5832,-1.5846,-1.5778,-1.8567,-2.0466,-2.1479,-2.0456,-1.9915,-2.0013,-2.2128,-2.3102,-2.3102,-2.3075,-2.3057,-2.3135,-2.3135,-2.3134,-2.314,0.0,0.0,0.0,0.0,-2.7348,-2.6273,0.0,0.0,0.0,0.0,0.0,0.0,0.0,0.0,0.0,0.0,0.0,0.0,0.0,0.0,0.0,0.0,0.0,0.0,0.0,0.0,0.0,0.0,0.0,0.0,0.0,0.0,0.0,0.0,0.0,0.0,0.0,0.0,0.0,-0.0223,-0.6274,-0.887,-0.894,-0.894,-0.894,-0.894,0.0,0.0,0.0,0.0,0.0,0.0,0.0,0.0,0.0,0.0,0.0,0.0,0.0,0.0,0.0,0.0,0.0,0.0,0.0,0.0,0.0,0.0,0.0,0.0,0.0,0.0,0.0,0.0,0.0,0.0,0.0,0.0,0.0,0.0,0.0,0.0,0.0,-1.5783,-1.5763,-1.5843,-1.5783,-1.5832,0.0,0.0,0.0,0.0,0.0,0.0,-1.5832,-1.5832,-1.5832,-1.5832,-1.5785,-1.5833,-1.5785,-1.9382,-2.1841,-2.3063,-2.3137,-2.3133,-2.3123,-2.3125,-2.3135,-2.3135,-2.3135,-2.3135,-2.3135,-2.3135,-2.3135,-2.3105,-2.3097,-2.5137,-2.8088,-2.8076,-2.5942,-2.3587,0.0,0.0,0.0,0.0,0.0,0.0,0.0,0.0,0.0,0.0,0.0,0.0,0.0,0.0,0.0,0.0,0.0,0.0,0.0,0.0,0.0,0.0,0.0,0.0,0.0,0.0,0.0,0.0,0.0,0.0,0.0,0.0,0.0,-0.0223,-0.6277,-0.887,-0.894,-0.894,-0.894,-0.894,-0.894,0.0,0.0,0.0,0.0,0.0,0.0,0.0,0.0,0.0,0.0,0.0,0.0,0.0,0.0,0.0,0.0,0.0,0.0,0.0,0.0,0.0,0.0,0.0,0.0,0.0,0.0,0.0,0.0,0.0,0.0,0.0,0.0,0.0,0.0,0.0,0.0,0.0,0.0,-1.5838,-1.5832,0.0,0.0,0.0,0.0,-1.5832,-1.5832,-1.5832,-1.5832,-1.5832,-1.5832,-1.5832,-1.5765,-1.5776,-1.5769,-1.6055,-1.8459,-2.3106,-2.3086,-2.3067,-2.3067,-2.3144,-2.3135,-2.3135,-2.3135,-2.3135,-2.3135,-2.3135,-2.3135,-2.3105,-2.3097,-2.3253,-2.3473,-2.3463,-2.3328,-2.3158,0.0,0.0,0.0,0.0,0.0,0.0,0.0,0.0,0.0,0.0,0.0,0.0,0.0,0.0,0.0,0.0,0.0,0.0,0.0,0.0,0.0,0.0,0.0,0.0,0.0,0.0,0.0,0.0,0.0,0.0,0.0,0.0,0.0,-0.022,-0.6289,-0.8903,-0.8901,-0.8862,-0.8882,-0.8903,-0.8903,-0.8848,0.0,0.0,0.0,0.0,0.0,0.0,0.0,0.0,0.0,0.0,0.0,0.0,0.0,0.0,0.0,0.0,0.0,0.0,0.0,0.0,0.0,0.0,0.0,0.0,0.0,0.0,0.0,0.0,0.0,0.0,0.0,0.0,0.0,0.0,0.0,0.0,0.0,-1.5832,-1.5832,0.0,-1.5832,-1.5832,-1.5832,-1.5832,-1.5832,-1.5832,-1.5832,-1.5832,-1.5778,-1.5765,-1.5792,-1.7342,-2.0494,-2.0532,-2.1355,-2.3094,-2.3125,-2.3135,-2.3135,-2.3135,-2.3135,-2.3135,-2.3135,-2.3135,-2.3135,-2.3135,-2.3135,-2.3125,-2.3085,-2.3122,-2.3122,-2.3122,-2.3122,-2.3083,0.0,0.0,0.0,0.0,0.0,0.0,0.0,0.0,0.0,0.0,0.0,0.0,0.0,0.0,0.0,0.0,0.0,0.0,0.0,0.0,0.0,0.0,0.0,0.0,0.0,0.0,0.0,0.0,0.0,0.0,0.0,0.0,0.0,-0.0216,-0.4106,-0.6883,-0.8635,-0.8598,-0.8726,-0.8855,-0.8635,-0.8574,-0.8591,0.0,0.0,0.0,0.0,0.0,0.0,0.0,0.0,0.0,0.0,0.0,0.0,0.0,0.0,0.0,0.0,0.0,0.0,0.0,0.0,0.0,0.0,0.0,0.0,0.0,0.0,0.0,0.0,0.0,0.0,0.0,0.0,0.0,0.0,0.0,-1.5832,-1.5832,-1.5832,-1.5832,-1.5832,-1.5832,-1.5832,-1.5832,-1.5832,-1.5805,-1.5839,-1.5839,-1.5846,-1.5756,-1.7375,-1.9862,-2.3109,-2.314,-2.3104,-2.3104,-2.3125,-2.3135,-2.3135,-2.3135,-2.3135,-2.3135,-2.3135,-2.3135,-2.3135,-2.3135,-2.3066,-2.3065,-2.3096,-2.3135,-2.3135,-2.3135,-2.3066,-2.3285,0.0,0.0,0.0,0.0,0.0,0.0,0.0,0.0,0.0,0.0,0.0,0.0,0.0,0.0,0.0,0.0,0.0,0.0,0.0,0.0,0.0,0.0,0.0,0.0,0.0,0.0,0.0,0.0,0.0,0.0,0.0,0.0,0.0,-0.0,-0.0212,-0.3171,-0.7963,-0.8046,-0.8357,-0.8793,-0.8256,-0.804,-0.8036,0.0,0.0,0.0,0.0,0.0,0.0,0.0,0.0,0.0,0.0,0.0,0.0,0.0,0.0,0.0,0.0,0.0,0.0,0.0,0.0,0.0,0.0,0.0,0.0,0.0,0.0,0.0,0.0,0.0,0.0,0.0,0.0,0.0,-1.5832,-1.5832,-1.5832,-1.5832,-1.5832,-1.5832,-1.5832,-1.5832,-1.5832,-1.5832,-1.5825,-1.5846,-1.5771,-1.5958,-1.6061,-1.6043,-2.0648,-2.313,-2.3121,-2.3066,-2.3125,-2.3125,-2.3115,-2.3105,-2.3105,-2.3105,-2.3105,-2.3105,-2.3105,-2.3105,-2.3105,-2.3105,-2.3083,-2.3073,-2.3085,-2.3125,-2.3105,-2.3115,-2.3179,-2.3957,0.0,0.0,0.0,0.0,0.0,0.0,0.0,0.0,0.0,0.0,0.0,0.0,0.0,0.0,0.0,0.0,0.0,0.0,0.0,0.0,0.0,0.0,0.0,0.0,0.0,0.0,0.0,0.0,0.0,0.0,0.0,0.0,0.0,-0.0209,-0.4065,-0.6632,-0.7998,-0.7968,-0.8059,-0.8275,-0.8074,-0.8047,-0.7955,0.0,0.0,0.0,0.0,0.0,0.0,0.0,0.0,0.0,0.0,0.0,0.0,0.0,0.0,0.0,0.0,0.0,0.0,0.0,0.0,0.0,0.0,0.0,0.0,0.0,0.0,0.0,0.0,0.0,0.0,0.0,0.0,-1.5832,-1.5832,-1.5832,-1.5832,-1.5832,-1.5832,-1.5832,-1.5832,-1.5832,-1.5832,-1.5832,-1.5806,-1.5812,-1.5765,-1.916,-2.1063,-2.1087,-2.2382,-2.3142,-2.3057,-2.3093,-2.3107,-2.3097,-2.3123,-2.3096,-2.3096,-2.3096,-2.3096,-2.3096,-2.3096,-2.3096,-2.3096,-2.3096,-2.3119,-2.3089,-2.3083,-2.31,-2.3126,-2.3103,-2.5166,-2.815,0.0,0.0,0.0,0.0,0.0,0.0,0.0,0.0,0.0,0.0,0.0,0.0,0.0,0.0,0.0,0.0,0.0,0.0,0.0,0.0,0.0,0.0,0.0,0.0,0.0,0.0,0.0,0.0,0.0,0.0,0.0,0.0,0.0,-0.0102,-0.3273,-0.5903,-0.7982,-0.7962,-0.8048,-0.8045,-0.8032,-0.8016,-0.8038,-0.8038,-0.8038,-0.8038,-0.8038,-0.8038,-0.8038,-0.8038,0.0,0.0,0.0,0.0,0.0,0.0,0.0,0.0,0.0,0.0,0.0,0.0,0.0,0.0,0.0,0.0,0.0,0.0,0.0,0.0,0.0,0.0,0.0,0.0,-1.5812,-1.5785,-1.5798,-1.5765,-1.5812,-1.5812,-1.5839,-1.5785,-1.5785,-1.5785,-1.5785,-1.5785,-1.579,-1.6728,-1.8784,-2.1545,-2.3066,-2.3084,-2.3115,-2.3057,-2.3093,-2.3098,-2.4022,-2.5917,-2.5887,-2.587,-2.587,-2.587,-2.587,0.0,-2.587,-2.587,-2.587,-2.587,-2.5946,0.0,0.0,0.0,0.0,0.0,-2.7534,-2.9764,0.0,0.0,0.0,0.0,0.0,0.0,0.0,0.0,0.0,0.0,0.0,0.0,0.0,0.0,0.0,0.0,0.0,0.0,0.0,0.0,0.0,0.0,0.0,0.0,0.0,0.0,0.0,0.0,0.0,0.0,0.0,0.0,0.0,0.0,0.0,-0.2612,-0.7153,-0.7766,-0.7959,-0.8038,-0.8038,-0.8038,-0.8038,-0.8038,-0.8038,-0.8038,-0.8038,-0.8038,-0.8038,-0.8038,0.0,0.0,0.0,0.0,0.0,0.0,0.0,0.0,0.0,0.0,0.0,0.0,0.0,0.0,0.0,0.0,0.0,0.0,0.0,0.0,0.0,0.0,0.0,0.0,-1.6264,-1.66,-1.6605,-1.6621,-1.6636,-1.6665,-1.66,-1.6577,-1.6577,-1.6577,-1.6577,-1.6577,-1.6646,-1.856,-2.2914,0.0,0.0,0.0,0.0,-2.3307,-2.3873,-2.3878,-2.5875,-2.9816,-2.9779,-2.9837,-2.9837,-2.9837,-2.9837,-2.9837,-2.9837,-2.9837,-2.9837,-2.9837,-2.9792,-2.9843,-2.9785,-2.7323,-2.4299,-2.8342,-2.9806,-2.9836,0.0,0.0,0.0,0.0,0.0,0.0,0.0,0.0,0.0,0.0,0.0,0.0,0.0,0.0,0.0,0.0,0.0,0.0,0.0,0.0,0.0,0.0,0.0,0.0,0.0,0.0,0.0,0.0,0.0,0.0,0.0,0.0,0.0,0.0,0.0,-0.0602,-0.1803,-0.6134,-0.7959,-0.8038,-0.8038,-0.8038,-0.8038,-0.8038,-0.8038,-0.8038,-0.8038,-0.8038,-0.8038,-0.8038,-0.8038,-0.8038,-0.8038,-0.8031,0.0,0.0,0.0,0.0,0.0,0.0,0.0,0.0,0.0,0.0,0.0,0.0,0.0,0.0,0.0,0.0,0.0,0.0,0.0,-1.5765,-1.9152,-2.1706,-2.1661,-2.1708,-2.1681,-2.1706,-2.1679,-2.1652,-2.1652,-2.1652,-2.1652,-2.1652,-2.1654,-2.2147,-2.3032,-2.3124,-2.3107,-2.3067,-2.3076,-2.4815,-2.8492,-2.8466,-2.8915,-2.9807,0.0,0.0,-2.977,-2.977,-2.977,-2.977,-2.977,-2.977,-2.977,-2.977,-2.9811,-2.9827,-2.9824,-2.9273,-2.8587,-2.9514,-2.9814,-2.9814,0.0,0.0,0.0,0.0,0.0,0.0,0.0,0.0,0.0,0.0,0.0,0.0,0.0,0.0,0.0,0.0,0.0,0.0,0.0,0.0,0.0,0.0,0.0,0.0,0.0,0.0,0.0,0.0,0.0,0.0,0.0,0.0,0.0,0.0,0.0,0.0,-0.0401,-0.5737,-0.7972,-0.7955,-0.8045,-0.8038,-0.8038,-0.8038,-0.8038,-0.8038,-0.8038,-0.8038,-0.8038,-0.8038,-0.8038,-0.8038,-0.8038,-0.8038,-0.8035,0.0,0.0,0.0,0.0,0.0,0.0,0.0,0.0,0.0,0.0,0.0,0.0,0.0,0.0,-1.5805,0.0,0.0,-1.6629,-1.909,-2.1509,-2.3104,-2.3079,-2.3133,-2.3142,-2.3114,-2.3127,-2.306,-2.306,-2.306,-2.306,-2.306,-2.3135,-2.3144,-2.3144,-2.3138,-2.4096,-2.6362,-2.6453,-2.7522,-2.9748,-2.977,-2.9768,-2.9768,-2.9821,-2.9808,-2.9821,-2.9833,-2.9792,-2.9792,-2.9792,-2.9792,-2.9792,-2.9792,-2.9792,-2.9792,-2.9792,-2.9827,-2.9808,-2.9789,-2.9792,-2.9792,0.0,0.0,0.0,0.0,0.0,0.0,0.0,0.0,0.0,0.0,0.0,0.0,0.0,0.0,0.0,0.0,0.0,0.0,0.0,0.0,0.0,0.0,0.0,0.0,0.0,0.0,0.0,0.0,0.0,0.0,0.0,0.0,0.0,0.0,0.0,0.0,-0.0302,-0.463,-0.7062,-0.7975,-0.7955,-0.8045,-0.8045,-0.8041,-0.8038,-0.8038,-0.8038,-0.8038,-0.8038,-0.8038,-0.8038,-0.8038,-0.8038,-0.8038,-0.8038,-0.8024,-0.7957,0.0,0.0,0.0,0.0,0.0,0.0,0.0,0.0,0.0,-1.5832,-1.5832,-1.5805,-1.5833,-1.5785,-1.6536,-1.8501,-2.2429,-2.3092,-2.3084,-2.3076,-2.3135,-2.3096,-2.3124,-2.3125,-2.3135,-2.3135,-2.3076,-2.3124,-2.3124,-2.3067,-2.3476,-2.4398,-2.4418,-2.6062,-2.9731,-2.9788,-2.9766,-2.9766,-2.9769,-3.0134,-3.0903,-3.0903,-3.0511,-2.977,-2.9795,-2.9821,-2.9821,-2.9821,-2.9796,-2.9807,-2.9807,-2.9781,-2.9792,-2.9792,-2.9806,-2.982,-2.9831,-2.9792,-2.9792,0.0,0.0,0.0,0.0,0.0,0.0,0.0,0.0,0.0,0.0,0.0,0.0,0.0,0.0,0.0,0.0,0.0,0.0,0.0,0.0,0.0,0.0,0.0,0.0,0.0,0.0,0.0,0.0,0.0,0.0,0.0,0.0,0.0,0.0,0.0,0.0,-0.0,-0.0603,-0.3621,-0.7985,-0.7975,-0.7969,-0.7965,-0.8048,-0.8038,-0.8038,-0.8038,-0.8038,-0.8038,-0.8038,-0.8038,-0.8038,-0.8038,-0.8038,-0.8028,-0.7977,-0.7953,-0.9033,-1.3636,-1.5395,-1.5832,-1.5832,-1.5832,-1.5832,0.0,0.0,-1.5832,-1.5832,-1.5799,-1.5778,-1.5765,-1.9381,-2.2429,-2.2971,-2.3065,-2.3086,-2.3144,-2.3135,-2.3124,-2.3097,-2.3142,-2.3135,-2.3135,-2.312,-2.3103,-2.3103,-2.314,-2.4855,-2.8834,-2.9039,-2.9241,-2.9757,-2.977,-2.9804,-2.9804,-2.9816,-3.15,-3.4839,-3.4839,-3.3068,-2.9771,-2.9836,-2.9791,-2.9791,-2.9791,-2.9809,-2.9815,-2.9815,-2.977,-2.9792,-2.9792,-2.9834,-2.9804,-2.9782,-2.9792,-2.9792,0.0,0.0,0.0,0.0,0.0,0.0,0.0,0.0,0.0,0.0,0.0,0.0,0.0,0.0,0.0,0.0,0.0,0.0,0.0,0.0,0.0,0.0,0.0,0.0,0.0,0.0,0.0,0.0,0.0,0.0,0.0,0.0,0.0,0.0,0.0,0.0,0.0,0.0,-0.1307,-0.362,-0.6751,-0.7972,-0.7972,-0.8048,-0.8038,-0.8038,-0.8038,-0.8038,0.0,-0.8038,-0.8038,-0.8038,-0.8038,-0.8038,-0.8028,-0.797,-1.0173,-1.3013,-1.5223,-1.577,0.0,0.0,-1.5832,-1.5832,-1.5832,-1.5832,-1.5798,-1.5792,-1.5812,-1.6636,-1.9488,-2.1698,-2.3092,0.0,-2.3125,-2.3135,-2.3135,-2.3142,-2.3127,-2.3063,-2.5444,-2.6008,-2.3392,-2.3106,-2.4148,-2.6797,-2.7021,-2.7824,-2.9663,-2.9799,-2.9821,-2.9821,-2.9809,-3.0844,-3.3073,-3.3115,-3.3925,-3.5527,-3.5527,-3.4632,-3.3082,-3.3109,-3.3099,-3.3099,-3.3099,-3.3142,-3.2975,-3.0695,-2.9791,-2.9791,-2.9809,-2.9771,-2.9768,-2.9825,-2.982,-2.982,0.0,0.0,0.0,0.0,0.0,0.0,0.0,0.0,0.0,0.0,0.0,0.0,0.0,0.0,0.0,0.0,0.0,0.0,0.0,0.0,0.0,0.0,0.0,0.0,0.0,0.0,0.0,0.0,0.0,0.0,0.0,0.0,0.0,0.0,0.0,0.0,0.0,0.0,0.0,-0.0302,-0.4223,-0.6651,-0.7975,-0.7955,-0.8045,-0.8038,-0.8038,-0.8038,-0.8038,-0.8038,-0.8038,-0.8038,-0.8038,-0.8028,-0.8004,-0.8045,-1.1653,-1.5757,-1.5783,0.0,0.0,-1.5832,-1.5832,-1.5832,-1.5832,-1.5792,-1.5819,-1.5785,-1.6829,-1.8891,-2.2419,-2.3082,-2.3065,-2.3076,-2.3135,-2.3135,-2.3135,-2.31,-2.3558,-2.483,-2.781,-2.8549,-2.5223,-2.4957,-2.6341,-2.9552,-2.9806,-2.9824,-2.9824,-2.9806,-3.0268,-3.1343,-3.1334,-3.2709,-3.5507,-3.5526,-3.5484,-3.5473,-3.4782,-3.4416,-3.4405,-3.4389,-3.442,-3.442,-3.442,-3.4427,-3.4176,-3.1377,-2.9699,-2.8972,-2.9899,-3.0269,-3.0254,-3.0284,-3.0716,-3.1208,0.0,0.0,0.0,0.0,0.0,0.0,0.0,0.0,0.0,0.0,0.0,0.0,0.0,0.0,0.0,0.0,0.0,0.0,0.0,0.0,0.0,0.0,0.0,0.0,0.0,0.0,0.0,0.0,0.0,0.0,0.0,0.0,0.0,0.0,0.0,0.0,0.0,0.0,0.0,-0.0,-0.0201,-0.3318,-0.7989,-0.7975,-0.7959,-0.8038,-0.8038,-0.8038,-0.8038,-0.8038,-0.8038,-0.8038,-0.8038,-0.8001,-0.8045,-0.7986,-1.1712,-1.5838,-1.5832,0.0,-1.5832,-1.5832,-1.5832,-1.5832,-1.5832,-1.5792,-1.5765,-1.5758,-1.9588,-2.2923,-2.3041,-2.3124,-2.3057,-2.3135,-2.3135,-2.3135,-2.3135,-2.31,-2.4724,-2.9094,-2.9687,-2.972,0.0,-2.9596,-2.9659,-2.9801,-2.9808,-2.9776,-2.9776,-2.9764,-3.1504,-3.5182,-3.5354,-3.5392,-3.5513,-3.5477,-3.5471,-3.5471,-3.2849,-3.1605,-3.1638,-3.1591,-3.1605,-3.1605,-3.1605,-3.1604,-3.1575,-3.1468,-2.9504,-2.6934,-3.0201,-3.1485,-3.1439,-3.1468,-3.3114,-3.4811,0.0,0.0,0.0,0.0,0.0,0.0,0.0,0.0,0.0,0.0,0.0,0.0,0.0,0.0,0.0,0.0,0.0,0.0,0.0,0.0,0.0,0.0,0.0,0.0,0.0,0.0,0.0,0.0,0.0,0.0,0.0,0.0,0.0,0.0,0.0,0.0,0.0,0.0,0.0,0.0,0.0,-0.1105,-0.3108,-0.6645,-0.7959,-0.8038,0.0,-0.8038,-0.8038,-0.8038,-0.8038,-0.8031,-0.7994,-0.797,-0.8641,-1.22,-1.4459,-1.5832,-1.5832,0.0,-1.5832,-1.5832,-1.5832,-1.5798,-1.5779,-1.5798,-1.6729,-1.9985,-2.1906,-2.3082,-2.3105,-2.3106,-2.3135,-2.3135,-2.3135,-2.3057,-2.309,-2.3102,-2.473,-2.9262,-2.9811,0.0,0.0,0.0,0.0,-2.9821,-2.983,-3.0903,-3.3415,-3.3593,-3.4171,-3.5466,-3.5488,-3.5508,-3.549,-3.553,-3.5545,-3.5521,-3.2801,-3.149,-3.1501,-3.147,-3.1516,-3.1516,-3.1516,-3.1486,-3.1529,-3.1489,-3.0863,-2.995,-3.107,-3.1515,-3.1499,-3.1499,-3.2047,-3.2638,0.0,0.0,0.0,0.0,0.0,0.0,0.0,0.0,0.0,0.0,0.0,0.0,0.0,0.0,0.0,0.0,0.0,0.0,0.0,0.0,0.0,0.0,0.0,0.0,0.0,0.0,0.0,0.0,0.0,0.0,0.0,0.0,0.0,0.0,0.0,0.0,0.0,0.0,0.0,0.0,0.0,0.0,-0.0601,-0.5934,-0.7962,0.0,-0.8038,-0.8038,-0.8038,-0.8038,-0.8038,-0.8031,-0.7997,-0.928,-1.1473,-1.484,-1.579,-1.5832,-1.5832,-1.5832,-1.5832,-1.5832,-1.5785,-1.5799,-1.5785,-1.7121,-1.9289,-2.2419,-2.3063,-2.3144,-2.3076,-2.3135,-2.3096,-2.3065,-2.3122,-2.309,-2.3092,-2.4469,-2.654,-2.9438,-2.9783,-2.9806,0.0,0.0,0.0,-2.9838,-3.1103,-3.2899,-3.5377,-3.5501,-3.5484,-3.547,-3.6596,-3.6648,-3.5556,-3.5605,-3.5586,-3.5605,-3.3821,-3.246,-3.1497,-3.1496,-3.1498,-3.1513,-3.1507,-3.1482,-3.1497,-3.1516,-3.1471,-3.1497,-3.1531,-3.153,-3.1482,-3.1482,-3.1482,-3.1513,0.0,0.0,0.0,0.0,0.0,0.0,0.0,0.0,0.0,0.0,0.0,0.0,0.0,0.0,0.0,0.0,0.0,0.0,0.0,0.0,0.0,0.0,0.0,0.0,0.0,0.0,0.0,0.0,0.0,0.0,0.0,0.0,0.0,0.0,0.0,0.0,0.0,0.0,0.0,0.0,0.0,0.0,-0.0601,-0.5942,-0.7969,-0.8041,-0.8038,-0.8038,-0.8038,-0.8038,-0.8035,-0.8031,-0.8031,-1.156,-1.5829,-1.5803,-1.5832,-1.5832,-1.5832,-1.5832,-1.5832,-1.5832,-1.5792,-1.5858,-1.6158,-1.9795,-2.313,-2.3111,-2.3115,-2.3135,0.0,0.0,-2.3114,-2.3103,-2.3263,-2.3436,-2.3423,-2.7082,-2.9776,0.0,0.0,0.0,0.0,0.0,0.0,-3.0086,0.0,-3.5507,-3.5516,-3.5479,-3.5461,-3.5303,-3.8296,-3.8498,-3.5646,-3.5597,-3.5613,-3.5607,-3.5613,-3.4239,-3.1715,-3.1712,-3.1627,-3.1512,-3.1513,-3.1495,-3.1495,-3.1524,-3.1482,-3.1482,-3.1482,-3.1482,-3.1482,-3.1482,-3.1482,-3.1482,0.0,0.0,0.0,0.0,0.0,0.0,0.0,0.0,0.0,0.0,0.0,0.0,0.0,0.0,0.0,0.0,0.0,0.0,0.0,0.0,0.0,0.0,0.0,0.0,0.0,0.0,0.0,0.0,0.0,0.0,0.0,0.0,0.0,0.0,0.0,0.0,0.0,0.0,0.0,0.0,0.0,0.0,-0.0603,-0.5947,-0.7979,-0.7962,-0.8045,-0.8038,-0.8038,-0.8038,-0.7984,-0.801,-0.801,-1.1574,-1.581,-1.575,-1.5832,-1.5832,-1.5832,-1.5832,-1.5832,-1.5832,-1.5792,-1.6772,-2.0431,-2.2161,-2.3082,-2.3086,-2.3096,-2.3135,0.0,0.0,0.0,-2.3103,-2.5881,0.0,-2.8079,-2.9088,0.0,-2.9811,0.0,-2.9804,-2.9825,-3.2409,0.0,0.0,-3.4951,-3.5474,-3.5521,-3.5477,-3.4608,-3.26,-3.5255,-3.6355,-3.5632,-3.5576,-3.5614,-3.5593,-3.5607,-3.525,-3.4546,-3.4552,-3.3455,-3.1498,-3.1496,-3.149,-3.1521,-3.1489,-3.1482,-3.1482,-3.1482,-3.1482,-3.1482,-3.1482,-3.1482,-3.1482,0.0,0.0,0.0,0.0,0.0,0.0,0.0,0.0,0.0,0.0,0.0,0.0,0.0,0.0,0.0,0.0,0.0,0.0,0.0,0.0,0.0,0.0,0.0,0.0,0.0,0.0,0.0,0.0,0.0,0.0,0.0,0.0,0.0,0.0,0.0,0.0,0.0,0.0,0.0,0.0,0.0,0.0,-0.0602,-0.5944,-0.7975,-0.7955,-0.8045,-0.8038,-0.8038,0.0,0.0,-0.8438,-1.0728,-1.3443,-1.5774,-1.5763,0.0,-1.5832,-1.5832,-1.5832,-1.5832,-1.5832,-1.5792,-1.7079,-2.1952,-2.3133,-2.3063,-2.3096,-2.3135,0.0,-2.3135,0.0,0.0,0.0,0.0,0.0,-2.9811,-2.9791,-2.9783,0.0,-2.9808,0.0,-3.2136,-3.4241,-3.548,0.0,-3.5509,-3.5483,-3.5475,-3.5513,-3.4865,-3.3326,-3.4824,-3.5592,-3.5593,-3.5583,-3.5622,-3.5577,-3.5585,-3.5592,-3.5609,-3.5629,-3.4791,-3.3303,0.0,-3.2598,-3.1504,-3.1496,-3.1509,-3.1469,-3.1531,-3.1494,-3.1524,-3.1507,-3.1482,-3.1482,0.0,0.0,0.0,0.0,0.0,0.0,0.0,0.0,0.0,0.0,0.0603,0.0,0.0,0.0,0.0,0.0,0.0,0.0,0.0,0.0,0.0,0.0,0.0,0.0,0.0,0.0,0.0,0.0,0.0,0.0,0.0,0.0,0.0,0.0,0.0,0.0,0.0,0.0,0.0,0.0,0.0,-0.0403,-0.1605,0.0,-0.7972,-0.8045,-0.8041,-0.8038,-0.8038,-0.8038,-0.8035,-0.8829,-1.3372,-1.5234,-1.5822,-1.5797,-1.5832,-1.5832,-1.5832,-1.5832,-1.5832,-1.5832,-1.5792,-1.6879,-2.1186,-2.2597,-2.3073,-2.3135,0.0,-2.3135,-2.3135,-2.3096,-2.313,-2.3081,0.0,-2.9805,-2.9814,-2.9792,-2.9767,-2.9781,-2.9794,-3.1309,-3.5153,-3.5477,-3.5523,-3.5523,-3.5885,-3.5923,-3.5509,-3.5568,-3.5584,-3.558,-3.5577,-3.5609,-3.5577,-3.5622,-3.5622,-3.5622,-3.5622,-3.5622,-3.5594,-3.5626,-3.5604,-3.5573,-3.5595,0.0,-3.2053,-3.2065,-3.2024,-3.1982,-3.1628,-3.1518,-3.1515,-3.1489,-3.1482,-3.1482,0.0,0.0,0.0,0.0,0.0,0.0,0.0,0.0,0.0,0.0,0.3825,0.6575,0.0,0.0,0.0,0.0,0.0,0.0,0.0,0.0,0.0,0.0,0.0,0.0,0.0,0.0,0.0,0.0,0.0,0.0,0.0,0.0,0.0,0.0,0.0,0.0,0.0,0.0,0.0,0.0,0.0,-0.2628,-0.6701,-0.7695,0.0,0.0,-0.8048,-0.8038,-0.8038,-0.8038,-0.8007,-0.816,-0.9096,-1.2308,-1.5807,-1.577,-1.5832,-1.5832,-1.5832,-1.5832,-1.5832,-1.5832,-1.5792,-1.6058,-1.6872,-2.0218,0.0,0.0,-2.3095,-2.3135,-2.3135,-2.3073,-2.3098,-2.3124,0.0,0.0,0.0,0.0,-2.9795,0.0,0.0,0.0,0.0,0.0,0.0,0.0,0.0,-3.8187,-3.5732,-3.557,-3.5613,-3.558,-3.5621,-3.5599,-3.5622,-3.5622,-3.5622,-3.5622,-3.5622,-3.5622,-3.5577,-3.5599,-3.5588,-3.5593,-3.563,0.0,-3.491,-3.4878,-3.4881,-3.4679,-3.2367,-3.1496,-3.1477,-3.1509,-3.1482,-3.1482,0.0,0.0,0.0,0.0,0.0,0.0,0.0,0.0,0.1005,0.3815,0.6353,0.7989,0.7965,0.7975,0.6954,0.0,0.0,0.0,0.0,0.0,0.0,0.0,0.0,0.0,0.0,0.0,0.0,0.0,0.0,0.0,0.0,0.0,0.0,0.0,0.0,0.0,0.0,0.0,0.0,0.0,0.0,-0.1515,-0.4142,0.0,0.0,0.0,0.0,-0.8038,-0.8038,-0.8038,-0.8001,-0.8048,-0.8021,-1.1638,-1.5776,-1.5754,-1.5777,-1.5832,-1.5832,-1.5832,-1.5832,-1.5832,-1.5765,-1.5772,-1.5778,0.0,0.0,0.0,-2.3124,-2.3135,-2.3135,0.0,0.0,0.0,0.0,0.0,0.0,0.0,0.0,0.0,0.0,0.0,0.0,0.0,0.0,0.0,0.0,-3.7149,-3.5693,-3.5595,-3.5592,-3.5577,-3.5622,-3.5622,-3.5622,-3.5622,-3.5622,-3.5622,-3.5622,-3.5622,-3.5622,-3.5622,-3.5622,-3.5611,-3.5577,0.0,-3.3467,-3.3491,-3.3899,-3.4352,-3.2292,-3.15,-3.152,-3.1492,-3.1482,-3.1482,0.0,0.0,0.0,0.0,0.0,0.0,0.0,0.0,0.1908,0.7269,0.7975,0.7959,0.8041,0.7955,0.7965,0.0,0.0,0.0,0.0,0.0,0.0,0.0,0.0,0.0,0.0,0.0,0.0,0.0,0.0,0.0,0.0,0.0,0.0,0.0,0.0,0.0,0.0,0.0,0.0,0.0,0.0,0.0,0.0,0.0,0.0,0.0,0.0,-0.8038,-0.8038,-0.8038,-0.8007,-0.8174,-0.93,-1.1707,-1.4322,-1.5473,-1.5803,-1.5832,-1.5832,-1.5832,-1.5832,-1.5832,-1.5832,-1.5792,-1.5846,-1.5763,0.0,-2.2041,-2.3113,-2.3115,-2.3057,0.0,-2.4262,0.0,0.0,0.0,0.0,0.0,0.0,0.0,0.0,0.0,0.0,0.0,0.0,0.0,0.0,0.0,-3.558,-3.5589,-3.5622,-3.5622,-3.5622,-3.5622,-3.5622,-3.5622,-3.5622,-3.5622,-3.5616,-3.5621,-3.5621,-3.5621,-3.5621,-3.5593,-3.559,0.0,0.0,-3.1491,-3.2181,-3.3029,-3.1898,-3.1479,-3.1506,-3.1504,-3.1482,-3.1482,0.0,0.0,0.0,0.0,0.0,0.0,0.0,0.0,0.1904,0.726,0.7955,0.8041,0.8038,0.8041,0.8041,0.0,0.0,0.0,0.0,0.0,0.0,0.0,0.0,0.0,0.0,0.0,0.0,0.0,0.0,0.0,0.0,0.0,0.0,0.0,0.0,0.0,0.0,0.0,0.0,0.0,0.0,0.0,0.0,0.0,0.0,0.0,0.0,0.0,-0.8038,0.0,0.0,-0.8855,-1.3601,-1.2129,-0.9652,-1.4398,0.0,0.0,-1.5832,-1.5832,-1.5832,-1.5832,-1.5832,-1.5825,-1.5812,0.0,-1.7157,-2.2117,-2.3095,-2.3123,-2.3086,-2.314,-2.3267,-2.3691,-2.714,-2.9782,0.0,0.0,0.0,0.0,0.0,0.0,0.0,0.0,0.0,0.0,0.0,0.0,-3.5616,-3.5611,-3.5622,-3.5622,-3.5622,-3.5622,-3.5622,-3.5622,-3.5622,-3.5577,-3.5579,-3.5573,-3.5573,-3.5573,-3.5573,-3.5607,-3.5613,0.0,0.0,-3.1482,-3.1607,-3.1694,-3.1546,-3.1526,-3.1522,-3.1524,-3.1482,-3.1482,0.0,0.0,0.0,0.0,0.0,0.0,0.0,0.2712,0.5532,0.7769,0.7952,0.8038,0.8038,0.8038,0.8038,0.8038,0.0,0.0,0.0,0.0,0.0,0.0,0.0,0.0,0.0,0.0,0.0,0.0,0.0,0.0,0.0,0.0,0.0,0.0,0.0,0.0,0.0,0.0,0.0,0.0,0.0,0.0,0.0,0.0,0.0,0.0,0.0,0.0,0.0,0.0,0.0,0.0,-1.0457,-0.9641,0.0,0.0,-1.5843,-1.5832,-1.5832,-1.5832,-1.5832,-1.5832,-1.5832,-1.5832,-1.5832,0.0,-1.633,-1.8331,-2.105,-2.3063,-2.3096,-2.3114,-2.308,-2.3082,-2.6854,-2.9756,0.0,0.0,0.0,0.0,0.0,0.0,0.0,0.0,0.0,0.0,0.0,0.0,-3.5622,-3.5622,-3.5622,-3.5622,-3.5622,-3.5622,-3.5622,-3.5622,-3.5622,-3.5577,-3.5582,-3.4723,-3.3128,-3.3111,-3.4003,-3.5448,-3.2195,0.0,0.0,-3.003,-3.0083,-3.0342,-3.0368,-3.0358,-3.0357,-3.0357,-3.0357,-3.0357,0.0,0.0,0.0,0.0,0.0,0.0,0.0,0.4528,0.7982,0.7965,0.8048,0.8038,0.8038,0.8038,0.8038,0.8038,0.8038,0.0,0.0,0.0,0.0,0.0,0.0,0.0,0.0,0.0,0.0,0.0,0.0,0.0,0.0,0.0,0.0,0.0,0.0,0.0,0.0,0.0,0.0,0.0,0.0,0.0,0.0,0.0,0.0,0.0,0.0,0.0,0.0,0.0,0.0,0.0,-0.798,-0.8038,-0.8999,0.0,-1.5846,-1.5783,-1.5783,-1.5757,-1.5832,-1.5832,-1.5832,-1.5832,0.0,0.0,-1.5778,-1.578,-1.972,-2.3079,-2.3115,-2.3096,-2.3114,-2.3103,-2.5721,-2.829,-2.9616,0.0,0.0,0.0,0.0,0.0,0.0,0.0,0.0,0.0,0.0,0.0,0.0,-3.5622,-3.5622,-3.5622,-3.5622,-3.5622,-3.5622,-3.5622,-3.5622,-3.5577,-3.5621,-3.4186,-3.1499,-3.1487,-3.2536,-3.4158,-2.9554,0.0,0.0,-2.894,-2.9178,-2.9579,-2.9579,-2.9579,-2.9579,-2.9579,-2.9579,-2.9579,0.0,0.0,0.0,0.0,0.0,0.0,0.0,0.4522,0.7979,0.8045,0.8038,0.8038,0.8038,0.8038,0.8038,0.8038,0.8038,0.0,0.0,0.0,0.0,0.0,0.0,0.0,0.0,0.0,0.0,0.0,0.0,0.0,0.0,0.0,0.0,0.0,0.0,0.0,0.0,0.0,0.0,0.0,0.0,0.0,0.0,0.0,0.0,0.0,0.0,0.0,0.0,0.0,0.0,0.0,0.0,-0.7997,-0.9056,-1.4302,-1.5803,-1.5794,-1.5794,-1.5817,-1.5832,-1.5832,-1.5832,-1.5832,0.0,0.0,-1.5778,-1.5792,-1.9686,-2.3076,-2.3079,-2.3115,-2.3114,-2.3103,-2.3125,-2.4741,-2.9176,0.0,0.0,0.0,0.0,0.0,0.0,0.0,0.0,0.0,0.0,0.0,0.0,-3.5622,-3.5622,-3.5622,-3.5622,-3.5622,-3.5622,-3.5622,-3.5622,-3.5577,-3.5597,-3.4156,-3.1502,-3.1512,-3.1527,0.0,0.0,0.0,0.0,-2.8571,-2.9178,-2.9579,-2.9579,-2.9579,-2.9579,-2.9579,-2.9579,-2.9579,0.0,0.0,0.0,0.0,0.0,0.0,0.0,0.4518,0.7969,0.8041,0.8038,0.8038,0.8038,0.8038,0.8038,0.8038,0.8038,0.0,0.0,0.0,0.0,0.0,0.0,0.0,0.0,0.0,0.0,0.0,0.0,0.0,0.0,0.0,0.0,0.0,0.0,0.0,0.0,0.0,0.0,0.0,0.0,0.0,0.0,0.0,0.0,0.0,0.0,0.0,0.0,0.0,0.0,0.0,0.0,0.0,0.0,-0.9945,-1.0462,-1.1279,-1.4855,-1.584,-1.5843,-1.5843,-1.579,-1.5832,-1.5832,-1.5832,-1.5778,-1.5792,-1.7079,-1.9136,-2.2481,-2.3104,-2.3104,-2.3073,-2.3125,-2.4146,0.0,0.0,0.0,0.0,0.0,0.0,0.0,0.0,0.0,0.0,0.0,0.0,0.0,-3.5622,-3.5622,-3.5622,-3.5622,-3.5622,-3.5622,-3.5622,-3.5622,-3.5577,-3.5597,-3.4172,-3.1518,-3.1485,-3.1479,0.0,0.0,0.0,0.0,-2.7914,-2.8077,-2.8203,-2.8203,-2.8203,-2.8203,-2.8203,-2.8203,-2.8203,0.0,0.0,0.0,0.0,0.0,0.0,0.0,0.5832,0.7965,0.8041,0.8038,0.8038,0.8038,0.8038,0.8038,0.8038,0.8038,0.0,0.0,0.0,0.0,0.0,0.0,0.0,0.3114,0.1004,0.0,0.0,0.0,0.0,0.0,0.0,0.0,0.0,0.0,0.0,0.0,0.0,0.0,0.0,0.0,0.0,0.0,0.0,0.0,0.0,0.0,0.0,0.0,0.0,0.0,0.0,0.0,0.0,0.0,0.0,-0.7966,-0.8668,-1.1961,-1.2863,-1.3325,-1.5315,-1.5792,0.0,0.0,-1.5812,-1.5758,-1.5828,-1.581,-1.6723,-1.9791,-2.0342,-2.0721,-2.195,-2.2177,-2.3207,0.0,0.0,0.0,0.0,0.0,0.0,0.0,0.0,0.0,0.0,0.0,0.0,0.0,-3.5616,-3.5622,-3.5622,-3.5622,-3.5622,-3.5622,-3.5622,-3.5622,-3.5577,-3.5597,-3.4175,-3.1479,-3.1485,-3.1494,0.0,0.0,0.0,0.0,-2.7593,-2.7625,-2.7625,-2.7625,-2.7625,-2.7625,-2.7625,-2.7625,-2.7625,0.0,0.0,0.0,0.0,0.0,0.0,0.0,0.7979,0.7962,0.8041,0.8038,0.8038,0.8038,0.8038,0.8038,0.8038,0.8038,0.0,0.0,0.0,0.0,0.0,0.0,0.0,0.7972,0.3106,0.0602,0.0603,0.0201,0.0,0.0,0.0,0.0,0.0,0.0,0.0,0.0,0.0,0.0,0.0,0.0,0.0,0.0,0.0,0.0,0.0,0.0,0.0,0.0,0.0,0.0,0.0,0.0,0.0,0.0,0.0,0.0,0.0,0.0,-0.7944,-0.9125,-1.3964,-1.5192,0.0,0.0,0.0,0.0,-1.5652,-1.5693,-1.5658,-1.5658,-1.5669,-1.6644,-1.9609,-2.0398,0.0,0.0,0.0,0.0,0.0,0.0,0.0,0.0,0.0,0.0,0.0,0.0,0.0,0.0,-3.5602,-3.5594,-3.5622,-3.5594,-3.5594,-3.5622,-3.5622,-3.5594,-3.5583,-3.5597,-3.4145,-3.1492,-3.1321,-3.1207,0.0,0.0,0.0,0.0,-2.7578,-2.7625,-2.7625,-2.7625,-2.7625,-2.7625,-2.7625,-2.7625,-2.7625,0.0,0.0,0.0,0.0,0.0,0.0,0.0,0.0,0.0,0.0,0.8038,0.8038,0.8038,0.8038,0.8038,0.0,0.0,0.0,0.0,0.0,0.0,0.0,0.0,0.0,0.7972,0.6745,0.6139,0.615,0.2006,0.0,0.0,0.0,0.0,0.0,0.0,0.0,0.0,0.0,0.0,0.0,0.0,0.0,0.0,0.0,0.0,0.0,-0.7972,-0.7955,0.0,0.0,0.0,0.0,0.0,0.0,0.0,0.0,-0.7349,-0.7332,-0.7352,0.0,-0.7571,-0.8818,-0.9158,-0.9121,0.0,0.0,0.0,0.0,0.0,0.0,-1.448,-1.4536,-1.4774,-1.5471,-1.8397,0.0,0.0,0.0,0.0,0.0,0.0,0.0,0.0,0.0,0.0,0.0,0.0,0.0,0.0,-3.5602,-3.5605,-3.5577,-3.5589,-3.5589,-3.5577,-3.5622,-3.5593,-3.5585,-3.5613,-3.4145,-3.142,-2.9454,-2.8532,0.0,0.0,0.0,-2.7614,-2.7604,-2.7625,-2.7625,-2.7625,-2.7625,-2.7625,-2.7625,-2.7625,-2.7625,0.0,0.0,0.0,0.0,0.0,0.0,0.0,0.0,0.0,0.0,0.0,0.8038,0.8038,0.8038,0.0,0.0,0.0,0.0,0.0,0.0,0.0,0.0,0.0,0.8045,0.7959,0.7959,0.7965,0.7982,0.5122,0.371,0.3714,0.3624,0.2315,0.0,0.0,0.0,0.0,0.0,0.0,0.0,0.0,0.0,0.0,0.0,0.0,0.0,-0.7163,-0.7969,0.0,-0.7955,-0.8004,-0.8021,0.0,0.0,0.0,0.0,-0.7103,-0.7082,-0.7082,-0.7111,-0.7144,-0.7144,-0.7121,-0.7098,-0.7098,0.0,0.0,0.0,0.0,0.0,0.0,0.0,-1.4143,-1.4105,-1.7778,0.0,0.0,0.0,0.0,0.0,0.0,0.0,0.0,0.0,0.0,0.0,0.0,0.0,0.0,-3.1919,-3.1948,-3.1925,-3.301,-3.4223,-3.5577,-3.5609,-3.5579,-3.5607,-3.4333,-3.2292,-2.9644,-2.8248,-2.7615,0.0,0.0,0.0,-2.7625,-2.7625,-2.7625,-2.7625,-2.7625,-2.7625,-2.7625,-2.7625,-2.7625,-2.7625,0.0,0.0,0.0,0.0,0.0,0.0,0.0,0.0,0.0,0.0,0.0,0.0,0.0,0.0,0.0,0.0,0.0,0.0,0.0,0.0,0.0,0.0,0.8038,0.8038,0.8038,0.8038,0.8048,0.7969,0.7969,0.7972,0.7982,0.8006,0.5146,0.0,0.0,0.0,0.0,0.0,0.0,0.0,0.0,0.0,0.0,0.0,0.0,0.0,0.0,0.0,0.0,-0.7746,-0.8045,-0.8007,-0.7863,0.0,0.0,0.0,0.0,0.0,-0.7139,-0.7139,-0.7139,-0.7139,-0.7139,-0.7139,-0.7139,0.0,0.0,0.0,0.0,0.0,0.0,0.0,0.0,0.0,0.0,0.0,0.0,0.0,0.0,0.0,0.0,0.0,0.0,0.0,0.0,0.0,0.0,0.0,0.0,-2.7588,-2.7588,-2.7622,-2.9594,-3.1837,-3.433,-3.4402,-3.4363,-3.4364,-3.2024,-2.9743,-2.7595,-2.7631,-2.7609,-2.7625,0.0,0.0,-2.7575,-2.7429,-2.7444,-2.7575,-2.7473,-2.7408,-2.7458,-2.7575,-2.7524,-2.7458,0.0,0.0,0.0,0.0,0.0,0.0,0.0,0.0,0.0,0.0,0.0,0.0,0.0,0.0,0.0,0.0,0.0,0.0,0.0,0.0,0.0,0.8038,0.8038,0.8038,0.8038,0.8038,0.8041,0.8045,0.8045,0.8045,0.8048,0.7969,0.5133,0.0,0.0,0.0,0.0,0.0,0.0,0.0,0.0,0.0,0.0,0.0,0.0,0.0,0.0,0.0,0.0,-0.644,-0.7983,-0.7897,-0.7356,0.0,0.0,0.0,0.0,0.0,-0.7139,-0.7139,-0.7139,-0.7139,-0.7139,-0.7139,-0.7139,-0.7105,0.0,0.0,0.0,0.0,0.0,0.0,0.0,0.0,0.0,0.0,0.0,0.0,0.0,0.0,0.0,0.0,0.0,0.0,0.0,0.0,0.0,0.0,-2.7604,-2.7615,-2.7618,-2.759,-2.7963,-2.8354,-2.881,-2.8841,-2.8817,-2.8789,-2.8393,-2.7971,-2.7595,-2.7622,-2.7619,-2.7625,0.0,-2.7625,-2.756,-2.6695,-2.6813,-2.7524,-2.693,-2.6669,-2.6721,-2.7357,-2.7188,-2.6774,0.0,0.0,0.0,0.0,0.0,0.0,0.0,0.0,0.0,0.0,0.0,0.0,0.0,0.0,0.0,0.0,0.0,0.0,0.0,0.0,0.8038,0.8038,0.8038,0.8038,0.8038,0.8038,0.8038,0.8038,0.8038,0.8045,0.7959,0.7985,0.514,0.0,0.0,0.0,0.0,0.0,0.0,0.0,0.0,0.0,0.0,0.0,0.0,0.0,0.0,0.0,0.0,0.0,-0.3631,-0.4052,-0.6415,0.0,0.0,0.0,0.0,0.0,-0.7078,-0.7078,-0.7078,-0.7078,-0.7074,-0.7071,-0.7078,-0.7064,0.0,0.0,0.0,0.0,0.0,0.0,0.0,0.0,0.0,0.0,0.0,0.0,0.0,0.0,0.0,0.0,0.0,0.0,0.0,0.0,0.0,0.0,-2.7595,-2.7593,-2.7585,-2.7603,-2.7585,-2.7585,-2.7603,-2.7603,-2.761,-2.7619,-2.76,-2.761,-2.7631,-2.7602,-2.758,-2.7595,0.0,-2.7612,-2.753,-2.6526,-2.6026,-2.6001,-2.6385,-2.6283,-2.596,-2.6269,-2.6215,-2.6,0.0,0.0,0.0,0.0,0.0,0.0,0.0,0.0,0.0,0.0,0.0,0.0,0.0,0.0,0.0,0.0,0.0,0.0,0.0,0.8038,0.8038,0.8038,0.8038,0.797,0.8038,0.8038,0.8038,0.8038,0.8038,0.7335,0.6132,0.7384,0.5146,0.0,0.0,0.0,0.0,0.0,0.0,0.0,0.0,0.0,0.0,0.0,0.0,0.0,0.0,0.0,0.0,0.0,0.0,0.0,0.0,0.0,0.0,-0.546,-0.546,-0.5638,-0.6789,-0.7143,-0.7136,-0.7105,-0.6298,-0.5416,-0.5424,-0.5403,0.0,0.0,0.0,0.0,0.0,0.0,0.0,0.0,0.0,0.0,0.0,0.0,0.0,0.0,0.0,0.0,0.0,0.0,0.0,0.0,0.0,0.0,-2.754,-2.7594,-2.7587,-2.7587,-2.7601,-2.7607,-2.7607,-2.7619,-2.7625,-2.7625,-2.7614,-2.7607,-2.7622,-2.7609,-2.721,-2.6562,-2.6546,-2.6578,-2.651,-2.5716,-2.4913,-2.4366,-2.5313,-2.5493,-2.519,-2.494,-2.4995,-2.5217,0.0,0.0,0.0,0.0,0.0,0.0,0.0,0.0,0.0,0.0,0.0,0.0,0.0,0.0,0.0,0.0,0.0,0.0,0.0,0.8019,0.8019,0.8019,0.8019,0.7959,0.8035,0.8038,0.8038,0.8038,0.8038,0.5406,0.0699,0.5634,0.5138,0.0,0.0,0.0,0.0,0.0,0.0,0.0,0.0,0.0,0.0,0.0,0.0,0.0,0.0,0.0,0.0,0.0,0.0,0.0,0.0,0.0,-0.0534,-0.0534,-0.0534,-0.1508,-0.5874,-0.7087,-0.7056,-0.7098,-0.3768,-0.0519,-0.0519,-0.0511,0.0,-0.5566,0.0,0.0,0.0,0.0,0.0,0.0,0.0,0.0,0.0,0.0,0.0,0.0,0.0,0.0,0.0,0.0,0.0,0.0,0.0,0.0,-2.7437,-2.759,-2.7631,-2.7631,-2.7623,-2.7607,-2.7607,-2.7601,-2.7625,-2.7575,-2.7587,-2.7607,-2.7607,-2.7583,-2.6094,-2.34,-2.3407,-2.3406,-2.3424,-2.3345,-2.3241,-2.3221,-2.3306,-2.3887,-2.4515,-2.3589,-2.3772,-2.4425,0.0,0.0,0.0,0.0,0.0,0.0,0.0,0.0,0.0,0.0,0.0,0.0,0.0,0.0,0.0,0.0,0.0,0.0,0.0,0.7406,0.7406,0.7406,0.7406,0.7455,0.7465,0.777,0.7966,0.7966,0.7973,0.6988,0.4938,0.3591,0.1943,0.0,0.0,0.0,0.0,0.0,0.0,0.0,0.0,0.0,0.0,0.0,0.0,0.0,0.0,0.0,0.0,0.0,0.0,0.0,0.0,0.0,0.0,0.0,0.0,-0.035,-0.2227,-0.2726,-0.2721,-0.2699,-0.1339,0.0,0.0,0.0,-0.0418,-0.206,-0.2383,0.0,0.0,0.0,0.0,0.0,0.0,0.0,0.0,0.0,0.0,0.0,0.0,0.0,0.0,0.0,0.0,0.0,0.0,0.0,0.0,-2.4788,-2.4832,-2.4832,-2.4806,-2.5727,-2.7596,-2.7627,-2.7608,-2.7608,-2.7574,-2.6644,-2.4792,-2.4804,-2.5172,-2.5766,-2.3887,-2.3122,-2.3089,-2.3111,-2.3086,-2.3102,-2.3111,-2.3949,-2.4943,-2.3592,-2.331,-2.3551,0.0,0.0,0.0,0.0,0.0,0.0,0.0,0.0,0.0,0.0,0.0,0.0,0.0,0.0,0.0,0.0,0.0,0.0,0.7076,0.7076,0.7076,0.7076,0.7076,0.7076,0.7076,0.755,0.7695,0.7698,0.7705,0.7712,0.7617,0.2466,0.0,0.0,0.0,0.0,0.0,0.0,0.0,0.0,0.0,0.0,0.0,0.0,0.0,0.0,0.0,0.0,0.0,0.0,0.0,0.0,0.0,0.0,0.0,0.0,0.0,0.0,0.0,0.0,0.0,0.0,0.0,0.0,0.0,0.0,0.0,0.0,0.0,0.0,0.0,0.0,0.0,0.0,0.0,0.0,0.0,0.0,0.0,0.0,0.0,0.0,0.0,0.0,0.0,0.0,0.0,0.0,0.0,-2.3083,-2.3077,-2.3101,-2.3098,-2.4099,-2.6176,-2.619,-2.619,-2.619,-2.616,-2.5122,-2.3102,-2.3121,-2.4203,-2.6054,-2.4007,-2.3085,-2.3078,-2.3078,-2.3078,-2.3078,-2.3078,-2.3731,-2.455,-2.3501,-2.3078,-2.31,0.0,0.0,0.0,0.0,0.0,0.0,0.0,0.0,0.0,0.0,0.0,0.0,0.0,0.0,0.0,0.0,0.0,0.0,0.7139,0.7139,0.7139,0.7139,0.7139,0.7139,0.7139,0.7139,0.7105,0.7111,0.7111,0.7117,0.7032,0.227,0.0,0.0,0.0,0.0,0.0,0.0,0.0,0.0,0.0,0.0,0.0,0.0,0.0,0.0,0.0,0.0,0.0,0.0,0.0,0.0,0.0,0.0,0.0,0.0,0.0,0.0,0.0,0.0,0.0,0.0,0.0,0.0,0.0,0.0,0.0,0.0,0.0,0.0,0.0,0.0,0.0,0.0,0.0,0.0,0.0,0.0,0.0,0.0,0.0,0.0,0.0,0.0,0.0,0.0,0.0,0.0,0.0,-2.3083,-2.3084,-2.309,-2.3081,-2.3077,-2.3122,-2.3115,-2.3115,-2.3122,-2.3122,-2.3122,-2.3122,-2.3122,-2.3094,-2.3113,-2.3114,-2.3094,-2.3078,-2.3078,-2.3078,-2.3078,-2.3078,-2.3078,-2.3078,-2.3078,-2.3078,-2.3078,0.0,0.0,0.0,0.0,0.0,0.0,0.0,0.0,0.0,0.0,0.0,0.0,0.0,0.0,0.0,0.0,0.0,0.0,0.7139,0.7139,0.7139,0.7139,0.7139,0.7139,0.7139,0.7139,0.7094,0.7091,0.7091,0.7101,0.7028,0.5644,0.3179,0.0,0.0,0.0,0.0,0.0,0.0,0.0,0.0,0.0,0.0,0.0,0.0,0.0,0.0,0.0,0.0,0.0,0.0,0.0,0.0,0.0,0.0,0.0,0.0,0.0,0.0,0.0,0.0,0.0,0.0,0.0,0.0,0.0,0.0,0.0,0.0,0.0,0.0,0.0,0.0,0.0,0.0,0.0,0.0,0.0,0.0,0.0,0.0,0.0,0.0,0.0,0.0,0.0,0.0,0.0,0.0,-2.178,-2.3107,-2.309,-2.3117,-2.3128,-2.3094,-2.3111,-2.3111,-2.3094,-2.3094,-2.3094,-2.3094,-2.3094,-2.3097,-2.3125,-2.3085,-2.3097,-2.3078,-2.3078,-2.3078,-2.3078,-2.3078,-2.3078,-2.3078,-2.3078,-2.3078,-2.3078,0.0,0.0,0.0,0.0,0.0,0.0,0.0,0.0,0.0,0.0,0.7095,0.0,0.0,0.0,0.0,0.0,0.0,0.0,0.0,0.7139,0.7139,0.7139,0.7139,0.7139,0.7139,0.7139,0.7139,0.7139,0.7139,0.7058,0.7071,0.7081,0.5544,0.2853,0.2862,0.1792,0.0,0.0,0.0,0.0,0.0,0.0,0.0,0.0,0.0,0.0,0.0,0.0,0.0,0.0,0.0,0.0,0.0,0.0,0.0,0.0,0.0,0.0,0.0,0.0,0.0,0.0,0.0,0.0,0.0,0.0,0.0,0.0,0.0,0.0,0.0,0.0,0.0,0.0,0.0,0.0,0.0,0.0,0.0,0.0,0.0,0.0,0.0,0.0,0.0,0.0,0.0,0.0,0.0,-2.127,-2.2484,-2.109,-2.239,-2.312,-2.3131,-2.3131,-2.3069,-2.3078,-2.3078,-2.3078,-2.3078,-2.3078,-2.3078,-2.3078,-2.3078,-2.3078,-2.3078,-2.3078,-2.3078,-2.3078,-2.3078,-2.3078,-2.3078,-2.3078,-2.3078,-2.3078,0.0,0.0,0.0,0.0,0.0,0.0,0.0,0.0,0.0,0.0,0.7139,0.7139,0.0,0.0,0.0,0.0,0.0,0.0,0.0,0.7139,0.7139,0.7139,0.7139,0.7139,0.7139,0.7139,0.7139,0.7139,0.7139,0.7139,0.7139,0.7071,0.7088,0.7098,0.6662,0.4041,0.0,0.0,0.0,0.0,0.0,0.0,0.0,0.0,0.0,0.0,0.0,0.0,0.0,0.0,0.0,0.0,0.0,0.0,0.0,0.0,0.0,0.0,0.0,0.0,0.0,0.0,0.0,0.0,0.0,0.0,0.0,0.0,0.0,0.0,0.0,0.0,0.0,0.0,0.0,0.0,0.0,0.0,0.0,0.0,0.0,0.0,0.0,0.0,0.0,0.0,0.0,0.0,0.0,-2.0964,-2.1237,-1.8117,-2.1005,-2.2611,-2.2638,-2.2934,-2.3109,-2.3115,-2.3115,-2.3115,-2.3115,-2.309,-2.3078,-2.3078,-2.3103,-2.3103,-2.3078,-2.3078,-2.3078,-2.3078,-2.3078,-2.3078,-2.3078,-2.3078,-2.3078,-2.3078,0.0,0.0,0.0,0.0,0.0,0.0,0.0,0.0,0.0,0.0,0.0,0.0,0.0,0.0,0.0,0.0,0.0,0.0,0.0,0.7119,0.7139,0.7139,0.7139,0.7139,0.7139,0.7139,0.7139,0.7139,0.7139,0.7139,0.7139,0.7058,0.7061,0.6969,0.3203,0.098,0.0,0.0,0.0,0.0,0.0,0.0,0.0,0.0,0.0,0.0,0.0,0.0,0.0,0.0,0.0,0.0,0.0,0.0,0.0,0.0,0.0,0.0,0.0,0.0,0.0,0.0,0.0,0.0,0.0,0.0,0.0,0.0,0.0,0.0,0.0,0.0,0.0,0.0,0.0,0.0,0.0,0.0,0.0,0.0,0.0,0.0,0.0,0.0,0.0,0.0,0.0,0.0,-1.7976,-1.8677,-1.8783,-1.8032,-1.8736,-1.9091,-1.9073,-2.1731,-2.3091,0.0,-2.3121,-2.3121,-2.3109,-2.3117,-2.3078,-2.309,-2.3071,-2.3107,-2.3078,-2.3078,-2.3078,-2.3078,-2.3078,-2.3078,-2.3078,-2.3078,-2.3078,-2.3078,0.0,0.0,0.0,0.0,0.0,0.0,0.0,0.0,0.0,0.0,0.0,0.0,0.0,0.0,0.0,0.0,0.0,0.0,0.0,0.0,0.7112,0.7131,0.7059,0.7107,0.7107,0.7107,0.7107,0.7107,0.7107,0.709,0.7139,0.7139,0.7058,0.6976,0.4543,0.3385,0.3212,0.0981,0.0,0.0,0.0,0.0,0.026,0.2515,0.3361,0.3325,0.3068,0.0,0.0,0.0,0.0,0.0,0.0,0.0,0.3046,0.3051,0.1563,0.0,0.0,0.0,0.0,0.2743,0.0,0.0,0.0,0.0,0.0,0.0,0.0,0.0,0.0,0.0,0.0,0.0,0.0,0.0,0.0,0.0,0.0,0.0,0.0,0.0,0.0,0.0,0.0,0.0,0.0,-1.6061,-1.7905,-1.8031,-1.8015,-1.7978,-1.7971,-1.8019,-1.7988,-1.9755,-2.0676,-2.0653,-2.2351,-2.221,-2.0717,-2.2354,-2.2221,-2.0772,-2.2387,-2.307,-2.3107,-2.3071,-2.3109,-2.312,-2.3071,-2.3133,-2.3121,-2.3096,-2.3107,-2.3083,0.0,0.0,0.0,0.0,0.0,0.0,0.0,0.0,0.0,0.0,0.0,0.0,0.0,0.0,0.0,0.0,0.0,0.0,0.0,0.0,0.0,0.698,0.694,0.6957,0.6957,0.6957,0.6957,0.6957,0.6957,0.7,0.6974,0.7065,0.7078,0.7095,0.7095,0.7102,0.6841,0.291,0.1221,0.1203,0.1117,0.1105,0.1504,0.5466,0.6989,0.6874,0.645,0.627,0.6314,0.6314,0.0,0.0,0.0,0.0,0.6291,0.6291,0.3828,0.109,0.1091,0.0,0.109,0.1084,0.0,0.0,0.0,0.0,0.0,0.0,0.0,0.0,0.0,0.0,0.0,0.0,0.0,0.0,0.0,0.0,0.0,0.0,0.0,0.0,0.0,0.0,0.0,0.0,0.0,-1.3411,-1.6543,-1.6722,-1.6693,-1.6744,-1.7258,-1.7543,-1.7544,-1.7559,-1.7716,-1.8018,-2.0877,-2.0726,-1.8068,-2.0903,-2.0666,-1.8191,-2.0963,-2.2214,-2.2303,-2.2886,-2.2751,-2.2217,-2.2214,-2.2244,-2.2209,-2.2226,-2.2625,-2.3121,0.0,0.0,0.0,0.0,0.0,0.0,0.0,0.0,0.0,0.0,0.0,0.0,0.0,0.0,0.0,0.0,0.0,0.0,0.7123,0.0,0.0,0.6389,0.637,0.6443,0.6443,0.6443,0.6443,0.6443,0.6443,0.6379,0.6415,0.6846,0.7104,0.7108,0.7108,0.7122,0.7059,0.645,0.6186,0.6092,0.5664,0.5477,0.5541,0.6139,0.6388,0.6425,0.6341,0.6334,0.6295,0.6295,0.6281,0.0,0.0,0.0,0.6268,0.6278,0.5879,0.5485,0.0,0.0,0.5461,0.0,0.0,0.0,0.0,0.0,0.0,0.0,0.0,0.0,0.0,0.0,0.0,0.0,0.0,0.0,0.0,0.0,0.0,0.0,0.0,0.0,0.0,0.0,0.0,0.0,-0.9091,-1.1073,-1.158,-1.1602,-1.1615,-1.16,-1.4311,-1.5752,-1.5753,-1.5725,-1.65,-1.8006,-1.8433,-1.8443,-1.8018,-1.8459,-1.8416,-1.8032,-1.8455,-1.8651,-1.8924,-2.1847,-2.133,-1.8669,-1.8701,-1.8647,-1.8711,-1.868,-2.0556,-2.312,0.0,0.0,0.0,0.0,0.0,0.0,0.0,0.0,0.0,0.0,0.0,0.0,0.0,0.0,0.0,0.7115,0.6787,0.6676,0.6668,0.6688,0.6569,0.6319,0.6331,0.6288,0.6288,0.6288,0.6288,0.6288,0.6288,0.6288,0.6291,0.6537,0.6627,0.6615,0.6615,0.6622,0.6632,0.6632,0.6668,0.6597,0.6427,0.6296,0.6304,0.6304,0.6337,0.6274,0.6274,0.6312,0.6338,0.6338,0.6338,0.6338,0.6338,0.0,0.0,0.0,0.6266,0.0,0.6282,0.6327,0.6309,0.0,0.0,0.0,0.0,0.0,0.0,0.0,0.0,0.0,0.0,0.0,0.0,0.0,0.0,0.0,0.0,0.0,0.0,0.0,0.0,0.0,0.0,0.0,0.0,0.0,-0.6819,-0.8533,-1.0514,-1.0568,-1.0601,-1.0617,-1.1946,-1.2735,-1.2734,-1.4475,-1.5779,-1.6533,-1.6533,-1.6533,-1.6542,-1.6529,-1.7096,-1.7984,-1.7978,-1.8004,-1.8124,-1.9609,-1.9383,-1.7991,-1.8011,-1.7999,-1.7989,-1.8036,-1.8952,-2.0549,0.0,0.0,0.0,0.0,0.0,0.0,0.0,0.0,0.0,0.0,0.0,0.0,0.0,0.0,0.0,0.0,0.6555,0.6289,0.6339,0.6318,0.6334,0.6334,0.6315,0.6338,0.6338,0.6338,0.6338,0.6338,0.6338,0.6338,0.6338,0.6338,0.6297,0.6335,0.6335,0.6335,0.6335,0.6335,0.6273,0.6334,0.6334,0.6267,0.6321,0.6321,0.6314,0.6304,0.6314,0.0,0.0,0.0,0.6328,0.6321,0.6321,0.6311,0.0,0.0,0.0,0.0,0.0,0.0,0.0,0.0,0.0,0.0,0.0,0.0,0.0,0.0,0.0,0.0,0.0,0.0,0.0,0.0,0.0,0.0,0.0,0.0,0.0,0.0,0.0,0.0,0.0,0.0,0.0,0.0,-0.4857,-0.6535,-0.9125,-0.9309,-0.9297,-0.9295,-1.0123,-1.0586,-1.0588,-1.2992,-1.4153,-1.4174,-1.4174,-1.4174,-1.4174,-1.4174,-1.4897,-1.6172,-1.6997,-1.7342,-1.7316,-1.7338,-1.7616,-1.8012,-1.7972,-1.8026,-1.8006,-1.8031,-1.8009,-1.836,0.0,0.0,0.0,0.0,0.0,0.0,0.0,0.0,0.0,0.0,0.0,0.0,0.6357,0.6357,0.6305,0.6331,0.6318,0.6261,0.6291,0.6278,0.6271,0.6271,0.6264,0.0,0.6338,0.6338,0.6338,0.6338,0.6338,0.6338,0.6338,0.6338,0.6271,0.6285,0.6285,0.6285,0.6285,0.6285,0.6278,0.6271,0.6271,0.6318,0.6273,0.6273,0.6322,0.6287,0.0,0.0,0.0,0.0,0.0,0.6273,0.6273,0.6318,0.6331,0.0,0.0,0.0,0.0,0.0,0.0,0.0,0.0,0.0,0.0,0.0,0.0,0.0,0.0,0.0,0.0,0.0,0.0,0.0,0.0,0.0,0.0,0.0,0.0,0.0,0.0,0.0,0.0,0.0,0.0,0.0,-0.3456,-0.546,-0.5661,-0.5672,-0.5639,-0.5697,-0.8871,-1.0615,-1.0607,-1.0766,-1.088,-1.0826,-1.0826,-1.0826,-1.0826,-1.0826,-1.0887,-1.1175,-1.4233,-1.5505,-1.5551,-1.5515,-1.6533,-1.8009,-1.8006,-1.8021,-1.7995,-1.8016,-1.7967,-1.8065,0.0,0.0,0.0,0.0,0.0,0.0,0.0,0.0,0.0,0.0,0.0,0.0,0.0,0.6274,0.627,0.6295,0.6318,0.6315,0.6264,0.6338,0.6338,0.6338,0.6338,0.6338,0.6338,0.6338,0.6338,0.6338,0.6338,0.6338,0.6338,0.6307,0.6294,0.6294,0.6325,0.6338,0.6338,0.6338,0.6338,0.6335,0.6304,0.63,0.6549,0.9204,0.0,0.0,0.0,0.0,0.0,0.0,0.0,0.0,0.9337,1.0185,1.0025,0.0,0.0,0.0,0.0,0.0,0.0,0.0,0.0,0.0,0.0,0.0,0.0,0.0,0.0,0.0,0.0,0.0,0.0,0.0,0.0,0.0,0.0,0.0,0.0,0.0,0.0,0.0,0.0,0.0,0.0,0.0,0.0,-0.2937,-0.5302,-0.5411,-0.5384,-0.5429,-0.662,-0.8345,-1.0558,-1.0611,-1.0613,-1.0622,-1.0622,-1.0586,-1.0577,-1.0586,-1.0608,-1.065,-1.1814,-1.3514,-1.5237,-1.3154,-1.3878,-1.6331,-1.6334,-1.6996,-1.7978,-1.7985,-1.7979,-1.8005,0.0,0.0,0.0,0.0,0.0,0.0,0.0,0.0,0.0,0.6263,0.0,0.0,0.0,0.0,0.7761,0.6423,0.6311,0.6338,0.6338,0.6338,0.6338,0.6338,0.6338,0.6338,0.6338,0.6338,0.6338,0.6338,0.6338,0.6328,0.6314,0.6283,0.7049,0.8313,0.8277,0.7569,0.629,0.629,0.0,0.629,0.0,0.0,0.8489,0.0,0.0,0.0,0.0,0.0,0.0,0.0,0.0,0.0,0.0,0.0,0.0,0.0,0.0,0.0,1.1934,0.0,0.0,0.0,0.0,0.0,0.0,0.0,0.0,0.0,0.0,0.0,0.0,0.0,0.0,0.0,0.0,0.0,0.0,0.0,0.0,0.0,0.0,0.0,0.0,0.0,0.0,0.0,0.0,0.0,-0.3491,-0.4773,-0.5432,-0.5394,-0.537,-0.6481,-0.8812,-1.0014,-1.0631,-1.0571,-1.0571,-1.0604,-1.0586,-0.9384,-0.9488,-1.0588,-1.0571,-1.1802,-1.3629,-1.1502,-1.1887,-1.3887,-1.4979,-1.61,-1.7129,-1.7132,-1.7507,-1.7969,0.0,0.0,0.0,0.0,0.0,0.0,0.0,0.0,0.6507,0.6507,0.0,0.0,0.0,0.0,0.0,0.6656,0.6307,0.6335,0.6335,0.6335,0.6335,0.6335,0.6335,0.6335,0.6335,0.6335,0.6335,0.6335,0.6335,0.6311,0.6266,0.6423,0.8546,1.2283,1.2283,1.0106,0.6504,0.0,0.6507,0.6507,0.0,0.884,1.1864,0.0,0.0,0.0,1.2324,1.2276,0.0,0.0,0.0,0.0,0.0,0.0,0.0,0.0,0.0,0.0,0.0,0.0,0.0,0.0,0.0,0.0,0.0,0.0,0.0,0.0,0.0,0.0,0.0,0.0,0.0,0.0,0.0,0.0,0.0,0.0,0.0,0.0,0.0,0.0,0.0,0.0,0.0,0.0,0.0,0.0,0.0,-0.3355,-0.5306,-0.5397,-0.5373,-0.5411,-0.5373,-0.8733,-1.0451,-1.0445,-1.0445,-1.0445,-1.0302,-0.6928,-0.7265,-1.0445,-1.0444,-1.0498,-1.0622,-1.0629,-1.0588,-1.0919,-1.4059,-1.5251,-1.5287,-1.5263,-1.6346,-1.7819,0.0,0.0,0.0,0.0,0.0,0.7294,1.0236,1.0627,1.0663,0.0,0.0,0.0,1.2317,1.2289,1.0703,0.6681,0.6308,0.6315,0.6315,0.6315,0.6315,0.6315,0.6315,0.6315,0.6315,0.6315,0.6315,0.6315,0.6315,0.6308,0.6373,0.9261,1.1259,1.2322,1.2337,1.1645,1.0662,1.0634,0.0,1.0604,1.0617,1.1271,0.0,0.0,0.0,0.0,0.0,1.2278,1.2278,0.0,1.2271,1.213,0.0,0.0,0.0,0.0,0.0,0.0,1.5157,0.0,0.0,0.0,0.0,0.0,0.0,0.0,0.0,0.0,0.0,0.0,0.0,0.0,0.0,0.0,0.0,0.0,0.0,0.0,0.0,0.0,0.0,0.0,0.0,0.0,0.0,0.0,0.0,0.0,0.0,-0.0939,-0.2676,-0.5296,-0.5425,-0.5397,-0.5411,-0.6359,-0.682,-0.6854,-0.6854,-0.6807,-0.6837,-0.5853,-0.5925,-0.6837,-0.6854,-0.8254,-1.0597,-1.0584,-1.0615,-1.0691,-1.1593,-1.1919,-1.1935,-1.1948,-1.2232,-1.3179,0.0,0.0,0.0,0.8535,0.878,0.9609,1.1966,1.2267,1.2296,0.0,0.0,0.0,1.2311,1.2304,1.1384,0.8995,0.8793,0.8812,0.8812,0.8812,0.8812,0.8812,0.8812,0.8812,0.8812,0.8836,0.8836,0.8812,0.8836,0.8822,0.884,1.1222,1.2337,1.2304,1.2325,0.0,0.0,0.0,0.0,0.0,1.233,0.0,0.0,1.2271,1.2331,0.0,0.0,0.0,1.2563,1.4114,1.3585,0.0,0.0,0.0,0.0,0.0,0.0,0.0,0.0,0.0,0.0,0.0,0.0,0.0,1.5422,1.3942,0.0,0.0,0.0,0.0,0.0,0.0,0.0,0.0,0.0,0.0,0.0,0.0,0.0,0.0,0.0,0.0,0.0,0.3485,0.1606,0.0134,0.0,0.0,0.0,0.0,-0.0937,-0.308,-0.4634,-0.5369,-0.5401,-0.5401,-0.5391,-0.5429,-0.5429,-0.5373,-0.5387,-0.5367,-0.537,-0.5384,-0.5411,-0.6546,-0.8408,-0.8441,-0.9313,-1.0627,-1.0627,-1.0628,-1.0622,-1.0571,-1.0595,-1.1006,0.0,0.0,0.7431,1.0983,1.1986,1.23,1.2282,1.2277,1.2305,0.0,1.2325,1.2271,1.2271,1.2289,1.228,1.228,1.229,1.2335,1.2303,1.2296,1.2283,1.2332,1.2332,1.2339,1.227,1.2272,1.2101,1.1614,1.2101,1.2296,1.2282,1.2269,1.2304,1.2305,1.2305,0.0,0.0,0.0,0.0,1.2305,1.2305,1.2305,0.0,0.0,1.2305,0.0,1.2317,1.2583,1.3462,1.6839,1.5765,0.0,0.0,0.0,0.0,0.0,1.5403,0.0,0.0,0.0,0.0,0.0,0.0,0.0,1.5428,1.5407,1.5396,0.0,0.0,0.0,0.0,0.0,0.0,0.0,0.0,0.0,0.0,0.0,0.0,0.0,0.0,0.0,0.5376,0.5379,0.409,0.087,0.0201,0.0,0.0,0.0,0.0,0.0,-0.3153,-0.4779,-0.4779,-0.4779,-0.4773,-0.4831,-0.5176,-0.5376,-0.5432,-0.5428,-0.5428,-0.5428,-0.5384,-0.5432,-0.5429,-0.5397,-0.7251,-1.0059,-1.0425,-1.0591,-1.0588,-1.0575,-1.0584,-1.0588,0.6107,0.6307,0.6536,0.7315,1.0168,1.2277,1.2331,1.2311,1.2305,1.2305,1.2335,1.2309,1.2309,1.2293,1.227,1.227,1.2289,1.2291,1.2305,1.2292,1.2277,1.2291,1.2284,1.2317,1.2309,1.2329,1.0709,0.7454,1.0709,1.2322,1.2282,1.2284,1.2318,1.2305,1.2305,1.2305,0.0,0.0,0.0,1.2305,1.2305,0.0,1.2305,1.2305,1.2305,1.2298,1.2271,1.4294,1.7009,0.0,1.7514,1.6151,0.0,0.0,0.0,0.0,0.0,0.0,0.0,0.0,0.0,0.0,0.0,0.0,1.54,1.54,1.539,0.0,0.0,0.0,0.0,0.0,0.0,0.0,0.0,0.0,0.0,0.0,0.0,0.0,0.0,0.0,0.5428,0.5372,0.5106,0.4428,0.1673,0.0,0.0,0.0,0.0,0.0,-0.067,-0.107,-0.1069,-0.1069,-0.1068,-0.1068,-0.4025,-0.5389,-0.5389,-0.5379,-0.5376,-0.5372,-0.5422,-0.5415,-0.5415,-0.5408,-0.5767,-0.6707,-0.9491,-1.0626,-1.0606,-1.0617,-1.0617,-1.0599,0.6288,0.6287,0.6935,0.8978,1.098,1.2277,1.2311,1.2305,1.2305,1.2305,1.23,1.2542,1.3135,1.3205,1.3213,1.3213,1.3213,1.3225,1.3169,1.2652,1.2329,1.2273,1.2297,1.2318,1.2291,1.0323,0.8332,0.6271,0.8332,1.0323,1.2291,1.2318,1.2305,1.2305,1.2305,1.2305,0.0,0.0,1.2305,1.2305,1.2305,0.0,1.2305,1.2305,1.2305,1.2285,1.229,1.4767,1.7985,1.8027,1.8029,0.0,0.0,1.3009,1.3297,0.0,1.542,1.5391,0.0,0.0,0.0,1.5379,0.0,0.0,0.0,1.541,1.5381,0.0,0.0,0.0,0.0,0.0,0.0,0.0,0.0,0.0,0.0,0.0,0.0,0.0,0.0,0.0,0.5391,0.5418,0.5372,0.5379,0.3689,0.1876,0.0067,0.0,0.0,0.0,0.0,0.0,0.0,0.0,0.0,-0.0,-0.1808,-0.2679,-0.2678,-0.2674,-0.3685,-0.5386,-0.5379,-0.5379,-0.5379,-0.5372,-0.5411,-0.5574,-0.7321,-0.7982,-0.8021,-0.7996,-0.9104,-1.0568,0.6264,0.63,0.76,1.1626,1.2273,1.233,1.2318,1.2305,1.2318,1.2297,1.252,1.2999,1.4022,1.4106,1.4106,1.4101,1.4094,1.4087,1.4073,1.3215,1.254,1.2311,1.2289,1.2311,1.2325,0.9125,0.7076,0.6296,0.7076,0.9125,1.2325,1.2311,1.2305,1.2305,1.2278,1.2278,0.0,0.0,0.0,1.2265,0.0,1.2278,1.2298,1.2271,1.2265,1.2384,1.3128,1.5392,1.8027,1.7976,0.0,1.7248,1.5851,1.5425,0.0,0.0,0.0,0.0,0.0,0.0,0.0,0.0,0.0,1.5385,0.0,0.0,0.0,1.541,0.0,0.0,0.0,0.0,0.0,0.0,0.0,0.0,0.0,0.0,0.0,0.0,0.0,0.0,0.0,0.5401,0.5432,0.5376,0.5386,0.4097,0.1205,0.0401,0.0,0.0,0.0,0.0,0.0,0.0,0.0,0.0,0.0,0.0,0.0,0.0,-0.1605,-0.4372,-0.437,-0.4779,-0.5396,-0.5386,-0.5382,-0.5376,-0.5391,-0.5422,-0.5394,-0.5387,-0.721,-0.9616,0.6264,0.63,0.76,1.1626,1.2273,1.233,1.2318,1.2305,1.2311,1.2309,1.3193,1.3952,1.409,0.0,0.0,0.0,0.0,0.0,1.4066,0.0,1.3388,1.2381,1.2289,1.2264,1.2263,1.1864,0.9857,0.6335,0.9857,1.1864,1.2263,1.2264,1.2305,1.2298,1.233,0.0,0.0,0.0,1.2276,0.0,1.2276,1.2271,0.0,1.2317,1.2276,1.2725,1.6175,1.766,1.7987,0.0,1.6937,1.5659,0.0,1.54,1.5381,0.0,0.0,0.0,0.0,0.0,0.0,0.0,1.7331,0.0,0.0,0.0,1.541,1.541,0.0,0.0,0.0,0.0,0.0,0.0,0.0,0.0,0.0,0.0,0.0,0.0,0.0,0.0,0.0,0.5401,0.5428,0.5428,0.5372,0.5243,0.4834,0.1736,0.0,0.0,0.0,0.0,0.0,0.0,0.0,0.0,0.0,0.0,0.0,0.0,-0.0201,-0.0603,-0.0602,-0.2409,-0.5396,-0.5393,-0.5393,-0.5389,-0.5432,-0.5418,-0.5408,-0.5367,-0.5625,-0.5959,0.6264,0.63,0.6816,0.8551,1.0726,1.2269,1.2311,1.2315,1.2553,1.3292,1.377,1.4063,0.0,0.0,0.0,0.0,0.0,1.6332,0.0,0.0,1.3571,1.2317,1.2292,1.2322,1.2284,1.233,1.144,0.9798,1.144,1.233,1.2284,1.2318,1.2305,1.2298,1.231,0.0,1.5422,0.0,0.0,0.0,0.0,0.0,0.0,1.315,1.3678,1.585,1.7441,1.8006,1.7969,0.0,1.5615,0.0,0.0,0.0,0.0,0.0,0.0,0.0,0.0,0.0,0.0,0.0,0.0,0.0,1.539,0.0,1.541,0.0,0.0,0.0,0.0,0.0,0.0,0.0,1.1826,0.0,0.0,0.0,0.0,0.0,0.0,0.0,0.0,0.0,0.0,0.0,0.5432,0.5372,0.5379,0.3951,0.3145,0.3153,0.107,0.0,0.0,0.0,0.0,0.0,0.0,0.0,0.0,0.0,0.0,0.0,0.0,-0.0873,-0.2287,-0.2281,-0.3493,-0.5403,-0.5386,-0.5376,-0.5369,-0.5408,-0.5397,-0.5404,0.6264,0.0,0.0,0.627,0.8727,1.1004,1.2104,1.2612,1.314,0.0,0.0,0.0,1.4085,1.6889,0.0,0.0,0.0,1.8037,0.0,0.0,1.3705,0.0,0.0,0.0,0.0,1.2291,1.2291,1.2305,1.2291,1.2291,1.2305,1.2305,1.2305,1.2298,1.231,1.4431,1.7833,0.0,0.0,1.252,1.5303,1.7054,1.7716,1.4931,1.5617,1.7996,1.7996,1.7998,1.8004,1.8009,1.5296,0.0,1.4643,0.0,0.0,0.0,0.0,0.0,1.5412,0.0,0.0,0.0,0.0,0.0,0.0,0.0,0.0,0.0,0.0,0.0,0.0,0.0,0.0,0.0,0.0,0.0,0.0,0.0,0.0,0.0,0.0,0.0,0.0,0.0,0.0,0.5408,0.5408,0.5418,0.5372,0.5372,0.5379,0.5389,0.2876,0.1469,0.147,0.147,0.147,0.147,0.147,0.1471,0.1473,0.0468,0.0,0.0,0.0,0.0,0.0,0.0,-0.1544,-0.3912,-0.3902,-0.4506,-0.5386,-0.5372,-0.5432,-0.5379,0.6264,0.6335,0.0,0.0,0.6384,0.7787,1.1694,0.0,0.0,0.0,0.0,0.0,0.0,0.0,0.0,0.0,0.0,1.823,1.2851,0.0,1.4067,0.0,0.0,1.2263,0.0,0.0,1.2305,1.2305,1.2305,1.2305,1.2305,1.2305,1.2305,1.2298,1.231,1.4431,1.8005,1.7862,1.5649,1.2304,1.2457,1.4734,1.7979,0.0,1.787,1.8018,1.8018,0.0,0.0,1.7985,1.6766,0.0,0.0,0.0,0.0,0.0,0.0,0.0,0.0,0.0,0.0,1.9034,0.0,0.0,0.0,0.0,1.541,0.0,0.0,0.0,0.0,0.0,0.0,1.1276,0.0,0.0,0.0,0.0,0.0,0.0,0.0,0.0,0.0,0.0,0.0,0.5425,0.5425,0.538,0.5425,0.5428,0.5432,0.5379,0.5309,0.5246,0.5256,0.5256,0.5256,0.5256,0.5256,0.5256,0.5119,0.1604,0.0,0.0,0.0,0.0,0.0,0.0,-0.0067,-0.0202,-0.0201,-0.2281,-0.541,-0.5386,-0.5372,-0.5382,0.0,0.0,0.0,0.0,0.0,0.0,0.0,1.3878,0.0,0.0,0.0,0.0,0.0,0.0,1.5277,0.0,0.0,1.9344,1.6275,1.4066,0.0,0.0,0.0,1.2337,0.0,0.0,0.0,1.2305,1.2305,1.2305,1.2305,1.2305,1.2305,1.2298,1.231,1.3014,0.0,0.0,0.0,0.0,0.0,1.6862,1.7967,0.0,0.0,1.8008,1.8008,1.8004,0.0,1.6703,1.5904,1.5419,1.5399,1.541,1.5786,1.7752,1.8295,0.0,0.0,0.0,1.5641,1.6627,0.0,0.0,0.0,0.0,0.0,0.0,0.0,0.0,0.0,0.0,1.1897,1.0772,1.0581,0.0,0.0,0.0,0.0,0.0,0.0,0.0,0.0,0.0,0.0,0.8816,0.6688,0.5411,0.5428,0.5428,0.5428,0.5432,0.5432,0.5369,0.5372,0.5372,0.5372,0.5372,0.5372,0.5376,0.5382,0.4154,0.3549,0.3553,0.3556,0.2209,0.0,0.0,0.0,0.0,0.0,-0.2214,-0.541,-0.5396,-0.5382,-0.5473,0.6325,0.0,0.0,0.0,0.0,0.0,0.0,0.0,0.0,0.0,1.5442,0.0,1.6385,0.0,1.754,0.0,2.0582,1.9895,1.808,1.5679,0.0,1.4074,1.4266,0.0,0.0,0.0,0.0,0.0,0.0,1.2305,1.2305,1.2305,1.2305,1.2298,1.2291,1.2288,1.2558,0.0,1.8008,0.0,0.0,1.7977,0.0,0.0,1.6816,1.8008,0.0,1.8035,1.77,1.5984,1.5388,1.5386,1.542,1.5419,1.5756,1.7688,1.9004,1.9805,1.98,1.8417,0.0,1.6955,1.6165,0.0,1.5428,0.0,0.0,0.0,0.0,0.0,0.0,0.0,0.0,1.0786,1.0622,1.0624,0.0,1.0624,0.0,0.0,0.0,0.0,0.0,0.0,1.0083,0.8848,0.665,0.5384,0.0,0.0,0.5411,0.5428,0.5428,0.5428,0.5428,0.5428,0.5428,0.5428,0.5428,0.5432,0.5372,0.5372,0.5376,0.5382,0.5386,0.4092,0.1936,0.1938,0.194,0.1808,0.0535,-0.1407,-0.3496,-0.3491,-0.4287,-0.551,0.0,0.0,0.0,0.0,1.063,0.0,0.0,0.0,1.4166,0.0,1.8057,2.0595,2.0585,2.0627,2.0582,2.0582,2.0572,0.0,1.8082,1.785,0.0,0.0,1.6707,1.6332,1.2636,0.0,0.0,0.0,0.0,1.2305,1.2305,1.2305,1.2305,1.2305,1.2305,0.0,1.2558,1.6378,1.8011,1.8008,1.8008,1.8018,1.758,1.3978,1.4838,1.7996,1.7982,1.7965,1.7612,1.5959,1.5377,1.541,1.541,1.5389,1.5419,1.5411,1.7497,1.9814,1.9801,1.9789,1.9805,1.9829,0.0,0.0,0.0,0.0,1.5414,0.0,0.0,0.0,0.0,0.0,0.0,1.1098,1.06,1.0624,1.0624,0.0,0.0,0.0,0.0,0.0,0.0,1.0624,0.9209,0.5898,0.5471,0.5503,0.0,0.0,0.5377,0.5422,0.5422,0.5422,0.5422,0.5425,0.5425,0.5425,0.5425,0.5428,0.5428,0.5428,0.5428,0.5428,0.5372,0.5379,0.5379,0.5389,0.5393,0.5052,0.1604,0.0134,0.0,0.0,-0.2154,-0.5204,0.6301,0.662,0.6857,0.0,1.0926,1.4123,0.0,0.0,0.0,0.0,1.9938,2.062,2.0605,2.0615,2.0576,2.0576,2.0622,0.0,0.0,0.0,0.0,1.6948,1.7605,1.7542,1.6569,1.6527,0.0,1.2328,0.0,1.2305,1.2305,1.2305,1.2305,1.2305,1.2305,0.0,1.2558,1.6378,1.8011,1.8008,1.8008,1.8018,0.0,0.0,1.7161,1.7996,1.7982,1.7184,1.6002,1.5557,1.5377,1.541,1.541,1.5381,1.5408,1.5429,1.75,1.9821,1.9794,1.9788,1.9818,1.9808,1.7564,1.5976,0.0,0.0,0.0,0.0,0.0,0.0,0.0,0.0,0.0,0.0,0.0,0.0,0.0,0.0,0.0,1.0624,0.0,0.0,0.0,1.0621,1.0245,0.9361,0.6892,0.6517,0.9131,0.0,0.0,0.5404,0.5404,0.5404,0.5404,0.5429,0.5377,0.5377,0.5411,0.5428,0.5428,0.5428,0.5428,0.5428,0.5432,0.5432,0.5432,0.5369,0.5376,0.5316,0.4359,0.2369,0.0,0.0,-0.0565,-0.1385,0.6644,0.0,0.0,0.978,0.0,0.0,1.4085,0.0,0.0,2.0024,2.0575,0.0,2.0575,2.0625,2.0585,2.0602,2.0575,0.0,0.0,0.0,0.0,1.7942,1.7967,1.7991,1.8027,1.7981,0.0,1.2298,0.0,0.0,1.2305,1.2305,1.2305,1.2305,1.2305,1.233,0.0,1.6395,1.7995,1.8008,1.8008,0.0,0.0,1.7979,1.7988,1.8026,1.8006,1.687,1.5403,1.5428,1.538,1.541,1.541,1.541,1.5371,1.5395,1.657,1.7878,1.79,1.7888,1.7889,1.7867,1.661,1.5828,1.7492,1.6581,1.539,0.0,0.0,0.0,0.0,0.0,0.0,0.0,0.0,0.0,0.0,0.0,0.0,0.0,0.0,0.0,0.0,1.0608,1.0584,1.0624,0.8779,0.8522,0.0,0.0,0.0,0.7683,0.7683,0.7683,0.7683,0.7642,0.6898,0.5401,0.5429,0.5373,0.5377,0.5391,0.5397,0.5397,0.5418,0.5428,0.5428,0.5428,0.5432,0.5372,0.5376,0.4157,0.2371,0.2691,0.1591,0.0,0.0,0.0,0.0,0.0,0.0,0.0,0.0,1.4943,0.0,1.9336,0.0,2.0004,2.0534,2.0566,2.0621,2.0572,0.0,1.9614,1.8119,1.8037,1.8016,1.7999,1.8018,1.7791,1.729,1.7764,0.0,0.0,0.0,1.2324,1.2305,1.2305,1.2305,1.2305,1.2305,0.0,0.0,1.6368,1.8007,1.8008,1.8008,1.8008,1.8008,1.8027,1.7974,1.7941,1.7765,1.666,1.5383,1.5379,1.541,1.541,1.541,1.541,1.5381,1.5367,1.5375,1.5392,1.5406,1.5411,1.5406,1.5382,1.5395,1.5401,1.538,1.5389,1.5367,1.5381,1.541,1.542,0.0,0.0,0.0,0.0,0.0,0.0,0.0,0.0,0.0,0.0,0.0,0.0,0.0,1.0624,1.0595,1.0604,1.0601,1.0621,0.0,0.0,0.0,1.0626,1.0626,1.0626,1.0626,0.0,0.9068,0.61,0.6108,0.6108,0.6112,0.6078,0.5825,0.5418,0.5394,0.5411,0.5411,0.5411,0.5415,0.5422,0.5393,0.5426,0.5507,0.6053,0.3948,0.0761,0.0,0.0,0.0,0.0,0.0,1.5338,1.8886,1.943,1.8461,1.561,1.5222,1.6579,2.0216,2.0582,2.0601,2.0627,1.9301,0.0,0.0,0.0,0.0,1.8007,1.8016,1.6537,1.34,1.6412,1.7651,0.0,0.0,1.2324,1.2305,1.2305,1.2305,1.2305,0.0,0.0,1.2579,1.6399,0.0,1.8008,1.8008,1.8008,1.7978,1.7982,1.7975,1.7805,1.6373,1.568,1.5383,1.542,1.541,1.541,1.541,1.541,1.54,1.5429,1.5419,1.5409,1.5418,1.5418,1.5418,1.54,1.539,1.537,1.5391,1.5381,1.5429,1.54,1.541,1.54,1.5419,0.0,0.0,0.0,0.0,0.0,0.0,0.0,0.0,0.0,0.0,0.0,0.0,0.0,1.0631,1.0581,0.0,0.0,0.0,0.0,0.0,0.0,1.0601,0.0,0.0,0.0,1.0283,0.9707,0.9697,0.9722,0.9722,0.9663,0.8112,0.5383,0.539,0.5394,0.5394,0.5394,0.5411,0.5387,0.5416,0.5424,0.5493,0.6106,0.5806,0.467,0.0,0.0,0.0,0.0,0.0,0.0,0.0,1.9259,0.0,1.7655,1.7464,1.8257,2.0348,2.0612,2.0206,1.936,1.8504,1.7999,1.7975,1.8027,1.8008,1.8008,1.7977,0.0,1.2373,1.6035,1.7976,1.801,0.0,0.0,1.2305,1.2305,1.2305,1.2298,0.0,1.341,0.0,0.0,0.0,1.8008,1.8008,1.8008,1.7978,1.7989,1.7416,1.6536,1.5714,1.5422,1.5379,1.54,1.541,1.541,1.541,1.541,1.541,1.541,1.541,1.541,1.541,1.541,1.541,1.541,1.541,1.541,1.541,1.541,1.541,1.541,1.541,1.54,1.5407,1.2802,0.0,0.0,0.0,0.0,0.0,0.0,0.0,0.0,0.0,0.0,0.0,0.0,0.0,0.0,0.0,0.0,0.0,0.0,0.0,0.0,0.0,0.0,0.0,0.0,0.0,1.0621,1.0591,1.0604,1.0604,1.0586,0.9673,0.8125,0.8086,0.8096,0.8096,0.8096,0.7024,0.5377,0.5413,0.5584,0.5895,0.6215,0.6301,0.5879,0.0,0.8212,0.0,0.0,1.2101,0.0,1.7692,1.8026,1.8499,1.9881,2.0044,2.0044,2.0044,2.0036,1.9491,1.8113,1.8008,1.8004,1.8027,1.8008,1.8008,1.8008,1.7977,1.6624,1.3575,1.645,1.8002,0.0,0.0,0.0,0.0,1.2337,1.2284,0.0,0.0,0.0,0.0,0.0,1.7988,1.7997,1.7997,1.7988,1.8006,1.8026,1.6914,1.5383,1.5378,1.5409,1.541,1.541,1.541,1.541,1.541,1.541,1.541,1.541,1.541,1.541,1.541,1.541,1.541,1.541,1.541,1.541,1.541,1.541,1.541,1.541,1.541,1.54,1.5407,1.3348,0.0,0.0,0.0,0.0,0.0,0.0,0.0,0.0,0.0,0.0,0.0,0.0,0.0,0.0,0.0,0.0,0.0,0.0,0.0,0.0,0.0,1.0598,1.0624,0.0,1.0624,1.0624,1.0624,1.0624,1.0624,1.0628,1.0597,1.0597,1.0586,1.0606,1.0613,1.0626,0.8989,0.644,0.5716,0.5755,0.6321,0.6264,0.6325,0.6035,0.0,0.0,0.0,0.0,0.0,0.0,1.7961,1.8018,1.8052,1.8253,1.8265,1.8265,1.8265,1.8209,1.8142,1.8005,1.8016,1.7969,1.8008,1.8008,1.8008,1.8008,1.7977,1.7801,1.7474,1.7791,1.8004,0.0,0.0,0.0,0.0,1.2318,1.2281,0.0,0.0,0.0,0.0,1.8022,1.8009,1.7989,1.7989,1.8025,1.7981,1.8019,1.693,1.5387,1.5419,1.5399,1.541,1.541,1.541,1.541,1.541,1.541,1.541,1.541,1.541,1.541,1.541,1.541,1.541,1.541,1.541,1.541,1.541,1.541,1.541,1.541,1.541,1.54,1.5407,1.5126,1.5048,0.0,0.0,0.0,0.0,0.0,0.0,0.0,0.0,0.0,0.0,1.2336,0.0,0.0,0.0,0.0,0.0,0.0,0.0,1.0618,0.0,1.0628,1.0624,1.0624,1.0624,1.0624,1.0624,1.0624,1.0624,1.0568,1.0575,1.0575,1.0581,1.0581,1.0588,1.0604,1.0405,0.9779,0.66,0.5768,0.6332,0.6263,0.6328,0.6261,0.0,0.0,0.0,0.0,0.0,0.0,0.0,1.8017,1.8037,1.8011,1.797,1.797,1.797,1.8004,1.7996,1.7996,1.8018,1.8008,1.8008,1.8008,1.8008,1.8008,1.8008,1.8008,1.8008,1.8008,1.8027,0.0,0.0,0.0,0.0,0.0,0.0,0.0,0.0,1.7988,1.8145,2.0216,2.107,2.0875,1.8859,1.7981,1.7863,1.682,1.711,1.7824,1.6063,1.5385,1.5417,1.5371,1.541,1.541,1.541,1.541,1.541,1.541,1.541,1.541,1.541,1.541,1.541,1.541,1.541,1.541,1.541,1.541,1.541,1.541,1.541,1.5371,1.5381,1.54,1.54,0.0,0.0,0.0,0.0,0.0,0.0,0.0,0.0,0.0,0.0,0.0,0.0,0.0,0.0,0.0,0.0,0.0,0.0,1.3434,0.0,1.0609,1.0595,1.0595,1.0629,1.0573,1.0573,1.0613,1.0624,1.0624,1.0624,1.0624,1.0624,1.0624,1.0575,1.0574,1.0626,1.0558,0.9797,0.9679,0.9701,0.8129,0.7496,0.7415,1.3987,0.0,1.8009,0.0,1.7999,1.7976,1.7998,1.8008,1.8008,1.8008,1.8008,1.8008,1.8008,1.8008,1.8008,1.8008,1.8008,1.8008,1.8008,1.8008,1.8008,1.8008,1.8008,0.0,1.8008,1.8008,1.7998,1.7987,1.7987,0.0,0.0,0.0,0.0,0.0,1.7988,1.8552,1.9658,2.2057,2.3071,2.2781,1.9367,1.8186,1.8415,1.7191,1.7966,1.9539,1.7442,1.6141,1.5397,1.5419,1.541,1.541,1.541,1.541,1.541,1.541,1.541,1.541,1.541,1.541,1.541,1.541,1.541,1.541,1.541,1.541,1.541,1.541,1.541,1.541,1.541,1.541,1.543,1.542,0.0,0.0,0.0,0.0,0.0,0.0,1.541,1.54,1.5409,0.0,0.0,0.0,0.0,0.0,0.0,0.0,0.0,0.0,0.0,0.0,1.1989,1.1989,1.2035,1.1989,1.1055,1.0567,1.0571,1.0604,1.0624,1.0624,1.0624,1.0624,1.0581,1.0581,1.0803,1.1167,1.1979,1.2045,1.1501,0.962,0.8799,0.8484,1.7954,1.7995,1.8016,1.7979,1.8018,1.8018,1.8008,1.8008,1.8008,1.8008,1.8008,1.8008,1.8008,1.8008,1.8008,1.8008,1.8008,1.8008,1.8008,1.8008,1.8008,0.0,0.0,1.8008,1.8008,1.8008,1.8008,1.8018,0.0,0.0,1.8011,0.0,1.7972,1.7998,1.8012,1.9865,2.3018,2.3071,2.3079,2.2819,1.9353,1.8696,1.9769,1.9743,1.9749,1.98,1.9761,1.7856,1.541,1.541,1.541,1.541,1.541,1.541,1.541,1.541,1.541,1.541,1.541,1.541,1.541,1.541,1.541,1.541,1.541,1.541,1.541,1.541,1.541,1.541,1.541,1.541,1.541,1.5407,0.0,0.0,0.0,0.0,0.0,0.0,1.541,1.541,1.542,0.0,0.0,0.0,0.0,0.0,0.0,0.0,0.0,1.5383,1.5333,0.0,1.5313,1.5313,1.5313,1.5313,1.2134,1.0574,1.0622,1.0627,1.0624,1.0624,1.0624,1.0624,1.0581,1.0581,1.129,1.2311,1.2301,1.1512,1.0355,1.0279,0.9868,0.9301,1.7968,1.8027,1.8008,1.8018,1.8008,1.8008,1.8008,1.8008,1.8008,1.8008,1.8008,1.8008,1.8008,1.8008,1.8008,0.0,1.8008,1.8008,0.0,1.8008,1.8008,1.8008,1.8008,1.8008,1.8008,1.8008,1.8008,1.8008,0.0,0.0,0.0,1.7996,1.7978,1.7998,1.8002,1.99,2.2958,2.0613,1.9603,1.9711,2.096,2.0831,1.9811,1.9805,1.9821,1.9531,1.751,1.6192,1.5415,1.5428,1.541,1.541,1.541,1.541,1.541,1.541,1.541,1.541,1.541,1.541,1.541,1.541,1.541,1.541,1.541,1.541,1.541,1.541,1.541,1.541,1.541,1.541,1.543,1.543,1.5391,0.0,0.0,0.0,0.0,0.0,1.541,1.541,0.0,1.54,0.0,0.0,0.0,0.0,0.0,0.0,0.0,0.0,1.541,0.0,1.5399,1.5399,1.5398,1.5393,1.4381,1.2744,1.0616,1.0594,1.06,1.0624,1.0624,1.0597,1.0581,1.0568,1.125,1.2289,1.2263,1.2044,1.1577,1.0893,1.0507,1.019,1.8008,1.8008,1.8008,1.8008,1.8008,1.8008,1.8008,1.8008,1.8008,1.8008,1.8008,1.8008,1.8008,1.8008,0.0,1.8008,1.8008,1.8008,1.8008,1.8008,1.8008,1.8008,1.8008,1.8008,1.8008,1.8008,0.0,1.8008,1.8008,1.8008,1.8008,1.8008,1.8008,1.7998,1.8002,1.9173,2.1099,2.0281,1.9924,2.0012,2.1338,2.1027,1.9825,1.979,1.9809,1.9587,1.7679,1.633,1.5381,1.5405,1.5418,1.5428,1.5381,1.541,1.541,1.541,1.541,1.541,1.541,1.541,1.541,1.541,1.541,1.541,1.541,1.541,1.541,1.541,1.541,1.541,1.541,1.541,1.541,1.541,1.541,1.541,1.541,0.0,0.0,0.0,0.0,0.0,0.0,1.541,1.541,0.0,0.0,0.0,0.0,0.0,0.0,1.542,1.541,0.0,1.541,1.541,1.541,1.5399,1.5407,1.4339,1.2387,1.1157,1.0602,1.0622,1.0584,1.0591,1.064,1.1086,1.1693,1.2303,1.233,1.2305,1.2224,1.162,1.1391,1.1242,1.8008,1.8008,1.8008,0.0,1.8008,0.0,1.8008,1.8008,1.8008,1.8008,1.8008,1.8008,1.8008,1.8008,1.8008,1.8008,0.0,0.0,0.0,1.8008,1.8008,1.8008,1.8008,1.8008,1.8008,1.8008,1.8008,1.8008,1.8008,1.8008,1.8008,1.8008,1.8008,1.7998,1.8002,1.8015,1.8233,2.1677,2.3132,2.2912,2.0674,1.9793,1.9801,1.982,1.9793,1.9805,1.9818,1.8043,1.5698,1.5711,1.5582,1.5402,1.5418,1.5429,1.5371,1.54,1.541,1.541,1.541,1.541,1.541,1.541,1.541,1.541,1.541,1.541,1.541,1.541,1.541,1.541,1.541,1.541,1.541,1.541,1.541,1.541,1.541,0.0,0.0,0.0,0.0,0.0,0.0,1.541,1.541,0.0,0.0,0.0,0.0,0.0,1.541,1.541,1.541,1.541,1.541,1.541,1.541,1.541,1.5399,1.5417,1.5298,1.2321,1.092,1.0955,1.094,1.1016,1.1191,1.223,1.2543,1.2298,1.2303,1.2305,1.2305,1.2305,1.2305,1.2305,0.0,0.0,1.8008,1.8008,1.8008,1.8008,1.8008,1.8008,1.8008,1.8008,1.8008,1.8008,1.8008,1.8008,1.8008,1.8008,1.8008,1.8008,1.8008,1.8008,1.8008,1.8008,1.8008,1.8008,1.8008,1.8008,1.8008,1.8008,1.8008,1.8008,1.8008,1.8008,1.8008,1.7998,1.8002,1.7971,1.8209,2.1642,2.3115,2.2928,2.0677,1.9812,1.9808,1.9784,1.9784,1.982,1.9809,1.9376,1.8762,1.8748,1.728,1.5411,1.5406,1.5426,1.5375,1.5428,1.541,1.541,1.541,1.541,1.541,1.541,1.541,1.541,1.541,1.541,1.541,1.541,1.541,1.541,1.541,1.541,1.541,1.541,1.541,1.541,1.541,1.541,0.0,0.0,1.541,1.541,1.541,1.541,1.541,0.0,0.0,0.0,0.0,1.541,1.541,1.541,1.541,1.541,1.541,1.541,1.541,1.541,1.54,1.542,1.5367,1.4639,1.4232,1.4256,1.4262,1.505,1.6296,1.6549,1.4917,1.2317,1.2265,1.2305,1.2305,1.2305,1.2305,1.2305,1.8008,1.8008,1.8008,1.8008,1.8008,1.8008,1.8008,1.8008,1.8008,1.8008,1.8008,1.8008,1.8008,1.8008,1.8008,1.8008,1.8008,1.8008,1.8008,1.8008,1.8008,1.8008,1.8008,1.8008,1.8008,1.8008,1.8008,1.8008,1.8008,1.8008,1.8008,1.8008,1.8008,1.8008,1.7996,1.8878,2.047,2.2293,2.309,2.2932,2.0711,1.9812,1.9798,1.9798,1.9798,1.9823,1.9805,1.9803,1.98,1.9792,1.8724,1.742,1.7423,1.7401,1.7401,1.7431,1.6452,1.5389,1.5389,1.54,1.541,1.541,1.541,1.541,1.541,1.541,1.541,1.541,1.541,1.541,1.541,1.541,1.541,1.541,1.541,1.541,1.541,1.541,0.0,1.541,1.541,1.541,1.541,1.541,1.541,1.541,1.541,0.0,1.541,1.541,1.541,1.541,1.541,1.541,1.541,1.541,1.541,1.541,1.541,1.54,1.538,1.5405,1.5374,1.5461,1.6265,1.7127,1.7823,1.6138,1.4198,1.2312,1.2303,1.2291,1.2298,1.2278,1.2305,1.2305,1.8008,1.8008,1.8008,1.8008,1.8008,1.8008,1.8008,1.8008,1.8008,1.8008,1.8008,1.8008,1.8008,1.8008,1.8008,1.8008,1.8008,1.8008,1.8008,1.8008,1.8008,1.8008,1.8008,1.8008,1.8008,1.8008,1.8008,1.8008,1.8008,1.8008,1.8008,1.8008,1.8008,1.8008,1.7997,1.9613,2.2356,2.2911,2.3092,2.2932,2.0711,1.9812,1.9798,1.9798,1.9798,1.9798,1.9798,1.9798,1.9784,1.98,1.9821,1.9805,1.9812,1.98,1.977,1.9788,1.8057,1.594,1.5535,1.5426,1.541,1.541,1.541,1.541,1.541,1.541,1.541,1.541,1.541,1.541,1.541,1.541,1.541,1.541,1.541,1.541,1.541,0.0,1.541,1.541,1.541,1.541,1.541,1.541,1.541,1.541,1.541,1.541,1.541,1.541,1.541,1.541,1.541,1.541,1.541,1.541,1.541,1.541,1.541,1.5381,1.5381,1.5403,1.5552,1.5884,1.7387,1.7975,1.775,1.4481,1.3185,1.3167,1.3164,1.2956,1.2718,1.2551,1.2519,1.2519,1.8008,1.8008,1.8008,1.8008,1.8008,1.8008,1.8008,1.8008,1.8008,1.8008,1.8008,1.8008,1.8008,1.8008,1.8008,1.8008,1.8008,1.8008,1.8008,1.8008,1.8008,1.8008,1.8008,1.8008,1.8008,1.8008,1.8008,1.8008,1.8008,1.8008,1.8008,1.8008,1.8008,1.7988,1.8011,1.8304,1.8966,2.1844,2.3073,2.2932,2.0711,1.9812,1.9798,1.9798,1.9798,1.9798,1.9798,1.9798,1.9811,1.9797,1.9809,1.9822,1.9808,1.9812,1.9789,1.9778,1.9498,1.8555,1.6084,1.5426,1.541,1.541,1.541,1.541,1.541,1.541,1.541,1.541,1.541,1.541,1.541,1.541,1.541,1.541,1.541,1.541,1.541,0.0,1.541,1.541,1.541,1.541,1.541,1.541,1.541,1.541,1.541,1.541,1.541,1.541,1.541,1.541,1.541,1.541,1.541,1.541,1.541,1.541,1.541,1.538,1.54,1.5387,1.621,1.7611,1.7855,1.7974,1.7948,1.7329,1.7116,1.714,1.7124,1.6165,1.4633,1.3803,1.3455,1.3382,1.8008,1.8008,1.8008,1.8008,1.8008,1.8008,1.8008,1.8008,1.8008,1.8008,1.8008,1.8008,1.8008,1.8008,1.8008,1.8008,1.8008,1.8008,1.8008,1.8008,1.8008,1.8008,1.8008,1.8008,1.8008,1.8008,1.8008,1.8008,1.8008,1.8008,1.8008,1.8008,1.8007,1.7994,1.8011,1.8997,2.0877,2.2431,2.3077,2.2932,2.0711,1.9812,1.9798,1.9798,1.9798,1.9798,1.9798,1.9798,1.9798,1.9798,1.9798,1.9798,1.9798,1.9783,1.9473,1.7906,1.7424,1.7155,1.5763,1.54,1.541,1.541,1.541,1.541,1.541,1.541,1.541,1.541,1.541,1.541,1.541,1.541,1.541,1.541,1.541,0.0,0.0,1.541,1.541,1.541,1.541,1.541,1.541,1.541,1.5429,1.5426,1.5409,1.5419,1.5426,1.5409,1.541,1.541,1.541,1.541,1.541,1.541,1.541,1.541,1.5409,1.5384,1.5425,1.6379,1.7244,1.8011,1.7982,1.7988,1.7997,1.7997,1.7977,1.8004,1.8031,1.7441,1.6501,1.4624,1.355,1.2879,1.8008,1.8008,1.8008,1.8008,1.8008,1.8008,1.8008,1.8008,1.8008,1.8008,1.8008,1.8008,1.8008,1.8008,1.8008,1.8008,1.8008,1.8008,1.8008,1.8008,1.8008,1.8008,1.8008,1.8008,1.8008,1.8008,1.8008,1.8008,1.8008,1.7978,1.7988,1.7988,1.7984,1.8067,1.8809,2.0655,2.3083,2.3071,2.3132,2.2924,2.0692,1.9794,1.9808,1.9784,1.9798,1.9798,1.9798,1.9798,1.9798,1.9798,1.9798,1.9798,1.9798,1.9797,1.9337,1.71,1.5967,1.5421,1.5408,1.541,1.541,1.541,1.541,1.541,1.541,1.541,1.541,1.541,1.541,1.541,1.541,1.541,1.541,1.541,0.0,0.0,0.0,1.541,1.5391,1.54,1.5381,1.5371,1.5389,1.5418,1.5426,1.5389,1.6016,1.6097,1.5412,1.5418,1.541,1.541,1.541,1.541,1.541,1.541,1.5391,1.541,1.5413,1.56,1.6052,1.7407,1.7975,1.7989,1.7968,1.8008,1.8008,1.8008,1.8008,1.8027,1.8017,1.8023,1.7699,1.5438,1.4042,1.3302,1.8008,1.8008,1.8008,1.8008,1.8008,1.8008,1.8008,1.8008,1.8008,1.8008,1.8008,1.8008,1.8008,1.8008,1.8008,1.8008,1.8008,1.8008,1.8008,1.8008,1.8008,1.8008,1.8008,1.8008,1.8008,1.8008,1.8008,1.8008,1.8008,1.8016,1.7989,1.7989,1.7971,1.8127,2.129,2.2847,2.3133,2.3106,2.3069,2.2904,2.0665,1.983,1.9801,1.982,1.9798,1.9798,1.9798,1.9798,1.9798,1.9798,1.9798,1.9798,1.9798,1.9818,1.9731,1.9567,1.7539,1.5421,1.5408,1.541,1.541,1.541,1.541,1.541,1.541,1.541,1.541,1.541,1.541,1.541,1.541,1.541,1.541,1.541,0.0,0.0,1.541,1.541,1.54,1.5385,1.5418,1.5426,1.5411,1.5405,1.5379,1.5416,1.7947,1.8306,1.5545,1.5418,1.541,1.541,1.541,1.541,1.541,1.541,1.538,1.5378,1.5396,1.6239,1.7805,1.7961,1.8029,1.7978,1.7998,1.8008,1.8008,1.8008,1.8008,1.8008,1.8027,1.7969,1.7832,1.6444,1.6087,1.614,1.8008,1.8008,1.8008,1.8008,1.8008,1.8008,1.8008,1.8008,1.8008,1.8008,1.8008,1.8008,1.8008,1.8008,1.8008,1.8008,1.8008,1.8008,1.8008,1.8008,1.8008,1.8008,1.8008,1.8008,1.8008,1.8008,1.8008,1.8008,1.7986,1.7982,1.8025,2.0172,2.1168,2.1232,2.2539,2.3109,2.3119,2.3128,2.3115,2.3019,2.2178,2.1002,1.9809,1.9793,1.9818,1.9798,1.9798,1.9798,1.9798,1.9798,1.9798,1.9798,1.9798,1.9822,1.9805,1.9815,1.8994,1.7745,1.5894,1.537,1.541,1.541,1.541,1.541,1.541,1.541,1.541,1.541,1.541,1.541,1.541,1.541,1.541,1.541,0.0,1.5429,1.5417,1.5397,1.5375,1.5426,1.6989,1.7434,1.5557,1.7037,1.8123,1.8132,1.9164,1.8515,1.5564,1.5425,1.5399,1.541,1.541,1.541,1.541,1.5428,1.5413,1.5415,1.6519,1.7387,1.8011,1.8002,1.8035,1.8008,1.8008,1.8008,1.8008,1.8008,1.8008,1.8008,1.8008,1.8008,1.7958,1.7496,1.7362,1.7174,1.8008,1.8008,1.8008,1.8008,1.8008,1.8008,1.8008,1.8008,1.8008,1.8008,1.8008,1.8008,1.8008,1.8008,1.8008,1.8008,1.8008,1.8008,1.8008,1.8008,1.8008,1.8008,1.8008,1.7969,1.8026,1.8026,1.7976,1.8031,1.7985,1.852,1.9673,2.1987,2.3105,2.3071,2.3071,2.3083,2.3078,2.3078,2.3119,2.3081,2.3096,2.2166,2.0772,2.0061,1.978,1.9797,1.9797,1.9797,1.9797,1.9797,1.9797,1.9797,1.9797,1.9797,1.9809,1.9789,1.977,1.9156,1.6213,1.5389,1.5407,1.5381,1.541,1.541,1.541,1.541,1.541,1.541,1.541,1.5391,1.539,1.537,1.5408,1.5397,1.5377,1.5385,1.5415,1.6182,1.6759,1.6787,1.8577,1.8991,1.6992,1.8635,1.9775,1.9784,1.9792,1.8915,1.6872,1.5873,1.5414,1.54,1.54,1.5381,1.542,1.5393,1.5699,1.623,1.7427,1.7985,1.8029,1.7978,1.8008,1.8008,1.8008,1.8008,1.8008,1.8008,1.8008,1.8008,1.8008,1.8018,1.7977,1.7977,1.8004,1.7741,1.8008,1.8008,1.8008,1.8008,1.8008,1.8008,1.8008,1.8008,1.8008,1.8008,1.8008,1.8008,1.8008,1.8008,1.8008,1.8008,1.8008,1.8008,1.8008,1.8008,1.8008,1.8008,1.8008,1.8026,1.8025,1.8025,1.8026,1.8022,1.8022,1.9797,2.3083,2.3083,2.3108,2.3078,2.3078,2.3078,2.3078,2.3078,2.3078,2.31,2.3081,2.3116,2.2859,2.0665,1.9825,1.9825,1.9825,1.9825,1.9825,1.9825,1.9825,1.9825,1.9825,1.9825,1.9821,1.9824,1.98,1.9132,1.6213,1.5429,1.5442,1.5418,1.541,1.541,1.541,1.541,1.541,1.541,1.541,1.54,1.5375,1.5392,1.5435,1.5426,1.544,1.544,1.543,1.7965,1.9788,1.9801,1.9782,1.9799,1.9797,1.9775,1.9825,1.9823,1.9788,1.978,1.9763,1.7011,1.5432,1.5434,1.5444,1.5467,1.5467,1.5451,1.6258,1.7991,1.8001,1.7972,1.8008,1.8008,1.8008,1.8008,1.8008,1.8008,1.8008,1.8008,1.8008,1.8008,1.8008,1.8008,1.8008,1.8008,1.8008,1.8076,1.8008,1.8008,1.8008,1.8008,1.8008,1.8008,1.8008,1.8008,1.8008,1.8008,1.8008,1.8008,1.8008,1.8008,1.8008,1.8008,1.8008,1.8008,1.8008,1.8008,1.7997,1.8012,1.7978,1.8026,1.8025,2.0347,2.159,2.1562,2.1556,2.2106,2.3083,2.312,2.3092,2.3078,2.3078,2.3078,2.3078,2.3078,2.3078,2.3125,2.3085,2.3086,2.3019,2.2349,2.2116,2.2137,2.2137,2.2137,2.2137,2.2137,2.2137,2.2137,2.2137,2.2137,2.2125,2.2133,2.0995,1.9629,1.8714,1.8498,1.7991,1.5938,1.5367,1.5367,1.5367,1.5367,1.5385,1.5385,1.5411,1.5391,1.5376,1.7081,1.8515,1.8501,1.8478,1.8475,1.8506,1.9251,1.9789,1.9793,1.9778,1.9818,1.9811,1.9822,1.9783,1.9811,1.9822,1.8895,1.6828,1.7844,1.8475,1.8498,1.9995,2.0807,2.0787,1.8426,1.7506,1.7978,1.8009,1.7988,1.8008,1.8008,1.8008,1.8008,1.8008,1.8008,1.8008,1.8008,1.8008,1.8008,1.8008,1.8008,1.8008,1.8008,1.839,1.8784,1.8008,1.8008,1.8008,1.8008,1.8008,1.8008,1.8008,1.8008,1.8008,1.8008,1.8008,1.8008,1.8008,1.8008,1.8008,1.8008,1.8008,1.8008,1.8008,1.8008,1.8026,1.8035,1.9323,1.9393,1.8049,2.1316,2.3095,2.3119,2.3121,2.3096,2.3096,2.3092,2.3078,2.3078,2.3078,2.3078,2.3078,2.3078,2.3078,2.3078,2.3078,2.3072,2.3073,2.3073,2.3122,2.3129,2.3129,2.3129,2.3129,2.3129,2.3129,2.3129,2.3129,2.3129,2.3103,2.3075,2.2128,2.1104,2.1096,2.1113,2.0694,1.8885,1.6889,1.5402,1.5395,1.6283,1.7168,1.7126,1.7148,1.7126,1.7136,1.8581,1.9812,1.9822,1.9809,1.9801,1.98,1.9775,1.9818,1.9823,1.9798,1.9798,1.9798,1.9798,1.9798,1.9798,1.9815,1.9023,1.7227,1.8829,2.0205,2.1067,2.2422,2.3106,2.3095,2.107,1.9318,1.7995,1.7994,1.8008,1.8008,1.8008,1.8008,1.8008,1.8008,1.8008,1.8008,1.8008,1.8008,1.8008,1.8008,1.8008,1.8027,1.8017,1.8527,1.9193,1.8008,1.8008,1.8008,1.8008,1.8008,1.8008,1.8008,1.8008,1.8008,1.8008,1.8008,1.8008,1.8008,1.8008,1.8008,1.8008,1.8008,1.7998,1.7978,1.7978,1.7986,1.8031,2.1293,2.1613,1.855,2.1537,2.3121,2.3078,2.3078,2.3078,2.3078,2.3078,2.3078,2.3078,2.3078,2.3078,2.3078,2.3078,2.3113,2.3088,2.3125,2.3113,2.3088,2.3125,2.3078,2.3078,2.3078,2.3078,2.3078,2.3078,2.3078,2.3078,2.3078,2.3078,2.3075,2.3068,2.3096,2.309,2.3067,2.3102,2.3098,2.309,1.9575,1.6048,1.5832,1.7855,1.9787,1.9818,1.9794,1.9806,1.9789,1.9793,1.9825,1.9784,1.9798,1.9798,1.9798,1.9798,1.9798,1.9798,1.9798,1.9798,1.9798,1.9772,1.9797,1.9797,1.9787,1.9879,2.0101,2.0073,2.1046,2.3032,2.3083,2.3132,2.3125,2.3121,2.1394,1.8021,1.7976,1.7978,1.7978,1.7998,1.8008,1.8008,1.8008,1.8008,1.8008,1.8008,1.8008,1.8008,1.8008,1.8008,1.7979,1.8021,1.8582,1.9484,1.8008,1.8008,1.8008,1.8008,1.8008,1.8008,1.8008,1.8008,1.8008,1.8008,1.8008,1.8008,1.8008,1.8008,1.8008,1.8008,1.8008,1.7988,1.7992,1.7972,1.8026,1.7998,2.1279,2.2724,2.2019,2.2702,2.3121,2.3078,2.3078,2.3078,2.3078,2.3078,2.3078,2.3078,2.3078,2.3078,2.3078,2.3078,2.3094,2.3089,2.3085,2.3081,2.3102,2.3085,2.3078,2.3078,2.3078,2.3078,2.3078,2.3078,2.3078,2.3078,2.3078,2.3078,2.3125,2.311,2.3085,2.3072,2.3115,2.3103,2.3111,2.3083,2.2259,2.0964,1.9218,1.9315,1.9799,1.9824,1.9781,1.9793,1.9795,1.9783,1.9822,1.9811,1.9798,1.9798,1.9798,1.9798,1.9798,1.9798,1.9798,1.9798,1.9798,1.9775,1.9818,1.9818,1.9794,2.0569,2.2279,2.2394,2.2597,2.3103,2.3077,2.3122,2.3078,2.3121,2.1374,1.7977,1.8006,1.7972,1.7982,1.7978,1.8008,1.8008,1.8008,1.8008,1.8008,1.8008,1.8008,1.8008,1.8008,1.8008,1.7979,1.8021,1.8958,2.0348,1.8008,1.8008,1.8008,1.8008,1.8008,1.8008,1.8008,1.8008,1.8008,1.8008,1.8008,1.8008,1.8008,1.8008,1.8027,1.7976,1.7982,1.7975,1.7966,1.95,2.044,2.0444,2.2159,2.3071,2.3078,2.3106,2.3106,2.3078,2.3078,2.3078,2.3078,2.3078,2.3078,2.3078,2.3078,2.3078,2.3125,2.3128,2.3111,2.3208,2.4682,2.436,2.3111,2.3122,2.3078,2.3078,2.3078,2.3078,2.3078,2.3078,2.3078,2.3078,2.3078,2.3078,2.3078,2.3078,2.3078,2.3078,2.3078,2.3078,2.31,2.3103,2.3111,2.2778,2.1661,2.1394,2.1051,2.0001,1.9812,1.9797,1.9797,1.9797,1.9797,1.9797,1.9797,1.9797,1.9797,1.9797,1.9797,1.9797,1.9797,1.9797,1.9797,1.9794,2.0226,2.1306,2.1369,2.1882,2.3062,2.3109,2.3111,2.3111,2.311,2.3078,2.3078,2.3106,2.2213,2.0412,2.0415,1.9586,1.8031,1.7975,1.7969,1.7969,1.7969,1.7969,1.7969,1.7969,1.7982,1.8024,1.8024,1.7988,1.7995,1.8029,1.9068,2.0572,1.8008,1.8008,1.8008,1.8008,1.8008,1.8008,1.8008,1.8008,1.8008,1.8008,1.7969,1.8017,1.8017,1.7968,1.8255,1.8847,1.89,1.8881,1.8892,2.1545,2.3065,2.3084,2.3071,2.3083,2.3078,2.3078,2.3078,2.3078,2.3078,2.3078,2.3078,2.3078,2.3078,2.3078,2.3078,2.31,2.3085,2.3076,2.3412,2.4014,2.6048,2.5325,2.3081,2.3088,2.3078,2.3078,2.3078,2.3078,2.3078,2.3078,2.3078,2.3078,2.3078,2.3078,2.3078,2.3078,2.3078,2.3078,2.3078,2.3078,2.3078,2.3078,2.3078,2.3106,2.3083,2.3085,2.2588,2.0765,2.0346,2.0365,2.0365,2.0365,2.0365,2.0365,2.0365,2.0365,2.0365,2.0365,2.0365,2.0365,2.0365,2.0365,2.0365,2.0358,2.1138,2.2981,2.3129,2.3076,2.3076,2.3106,2.3078,2.3078,2.3078,2.3078,2.3078,2.3078,2.3078,2.3078,2.3082,2.1649,1.8892,1.8881,1.8902,1.8902,1.8902,1.8859,1.8837,1.8837,1.8874,1.8839,1.8205,1.7998,1.8052,1.8345,1.9381,2.0566,1.8008,1.8008,1.8008,1.8008,1.8008,1.8008,1.8008,1.8008,1.8008,1.8008,1.8014,1.8009,1.8009,1.8006,1.9222,2.2151,2.2403,2.24,2.2402,2.286,2.3071,2.3092,2.3067,2.3115,2.3078,2.3078,2.3078,2.3078,2.3078,2.3078,2.3078,2.3078,2.3078,2.3078,2.3078,2.3081,2.307,2.3077,2.4606,2.678,2.4587,2.3467,2.3085,2.3077,2.3078,2.3078,2.3078,2.3078,2.3078,2.3078,2.3078,2.3078,2.3078,2.3078,2.3078,2.3078,2.3078,2.3078,2.3078,2.3078,2.3078,2.3078,2.3078,2.3113,2.3085,2.3081,2.3013,2.2712,2.2616,2.2648,2.2648,2.2648,2.2648,2.2648,2.2648,2.2648,2.2648,2.2648,2.2648,2.2648,2.2648,2.2648,2.2648,2.2623,2.2796,2.3097,2.3124,2.3122,2.3122,2.3113,2.3078,2.3078,2.3078,2.3078,2.3078,2.3078,2.3078,2.3078,2.3092,2.2862,2.239,2.2389,2.2443,2.2443,2.2443,2.2392,2.243,2.243,2.2393,2.2117,1.9182,1.7999,1.818,1.9728,2.0434,2.0566,1.8008,1.8008,1.8008,1.8008,1.8008,1.8008,1.8008,1.8008,1.8008,1.8008,1.7978,1.871,2.0654,2.0831,2.1474,2.2979,2.307,2.3109,2.3095,2.3095,2.3094,2.3078,2.3078,2.3078,2.3078,2.3078,2.3078,2.3078,2.3078,2.3097,2.3073,2.3073,2.3076,2.3116,2.3116,2.3083,2.3193,2.4901,2.6368,2.7483,2.6162,2.4603,2.3114,2.3115,2.3078,2.3078,2.3078,2.3078,2.3078,2.3078,2.3078,2.3078,2.3078,2.3078,2.3078,2.3078,2.3078,2.3078,2.3078,2.3078,2.3078,2.3078,2.3078,2.3078,2.3078,2.3085,2.3103,2.3103,2.3094,2.3109,2.3109,2.3109,2.3109,2.3109,2.3109,2.3109,2.3109,2.3109,2.3109,2.3109,2.3109,2.3109,2.3109,2.3132,2.3103,2.3103,2.311,2.3078,2.3078,2.3078,2.3078,2.3078,2.3078,2.3078,2.3078,2.3078,2.3078,2.3078,2.3078,2.308,2.3095,2.3096,2.3096,2.3096,2.3096,2.3108,2.2943,2.102,2.0226,2.0084,1.8566,1.86,1.9536,2.0345,2.0594,2.0566]}]]